Wetterdaten: Donnerstag, 26.07.2018
Datum Zeit Temp. A. Feuchte A. Luftdruck Regen Wind Richtung Richtung Sonnenschein ET UV Solar Taupunkt Windchill Windböen
26.07.2018 00:00 16,1 °C 89 % 1013,2 hPa 0,0 mm 3,1 km/h (1 Bft) W 281 ° 0 min 0,000 mm 0,0 UV-I 0 W/m² 14,3 °C 16,1 °C 4,8 km/h (1 Bft)
26.07.2018 00:01 16,1 °C 89 % 1013,2 hPa 0,0 mm 4,8 km/h (1 Bft) W-NW 284 ° 0 min 0,000 mm 0,0 UV-I 0 W/m² 14,3 °C 16,1 °C 6,4 km/h (2 Bft)
26.07.2018 00:03 16,1 °C 89 % 1013,3 hPa 0,0 mm 3,6 km/h (1 Bft) W-NW 283 ° 0 min 0,000 mm 0,0 UV-I 0 W/m² 14,3 °C 16,1 °C 6,4 km/h (2 Bft)
26.07.2018 00:04 16,1 °C 89 % 1013,3 hPa 0,0 mm 2,6 km/h (1 Bft) W-NW 283 ° 0 min 0,000 mm 0,0 UV-I 0 W/m² 14,3 °C 16,1 °C 3,2 km/h (1 Bft)
26.07.2018 00:05 16,1 °C 89 % 1013,3 hPa 0,0 mm 4,5 km/h (1 Bft) W 261 ° 0 min 0,000 mm 0,0 UV-I 0 W/m² 14,3 °C 16,1 °C 6,4 km/h (2 Bft)
26.07.2018 00:06 16,1 °C 89 % 1013,3 hPa 0,0 mm 3,6 km/h (1 Bft) W 265 ° 0 min 0,000 mm 0,0 UV-I 0 W/m² 14,3 °C 16,1 °C 4,8 km/h (1 Bft)
26.07.2018 00:07 16,1 °C 89 % 1013,3 hPa 0,0 mm 2,5 km/h (1 Bft) W 264 ° 0 min 0,000 mm 0,0 UV-I 0 W/m² 14,3 °C 16,1 °C 3,2 km/h (1 Bft)
26.07.2018 00:08 16,1 °C 89 % 1013,2 hPa 0,0 mm 3,4 km/h (1 Bft) W 264 ° 0 min 0,000 mm 0,0 UV-I 0 W/m² 14,3 °C 16,1 °C 4,8 km/h (1 Bft)
26.07.2018 00:09 16,1 °C 89 % 1013,2 hPa 0,0 mm 0,7 km/h (0 Bft) W 264 ° 0 min 0,000 mm 0,0 UV-I 0 W/m² 14,3 °C 16,1 °C 3,2 km/h (1 Bft)
26.07.2018 00:10 16,0 °C 89 % 1013,2 hPa 0,0 mm 0,0 km/h (0 Bft) W 264 ° 0 min 0,000 mm 0,0 UV-I 0 W/m² 14,2 °C 16,0 °C 0,0 km/h (0 Bft)
26.07.2018 00:11 15,9 °C 89 % 1013,2 hPa 0,0 mm 0,0 km/h (0 Bft) W 264 ° 0 min 0,000 mm 0,0 UV-I 0 W/m² 14,1 °C 15,9 °C 0,0 km/h (0 Bft)
26.07.2018 00:12 15,8 °C 90 % 1013,2 hPa 0,0 mm 0,0 km/h (0 Bft) W 264 ° 0 min 0,000 mm 0,0 UV-I 0 W/m² 14,2 °C 15,8 °C 0,0 km/h (0 Bft)
26.07.2018 00:13 15,8 °C 90 % 1013,2 hPa 0,0 mm 0,0 km/h (0 Bft) W 264 ° 0 min 0,000 mm 0,0 UV-I 0 W/m² 14,2 °C 15,8 °C 0,0 km/h (0 Bft)
26.07.2018 00:14 15,7 °C 90 % 1013,2 hPa 0,0 mm 0,6 km/h (0 Bft) W 264 ° 0 min 0,000 mm 0,0 UV-I 0 W/m² 14,1 °C 15,7 °C 3,2 km/h (1 Bft)
26.07.2018 00:15 15,6 °C 90 % 1013,2 hPa 0,0 mm 0,6 km/h (0 Bft) W 264 ° 0 min 0,000 mm 0,0 UV-I 0 W/m² 14,0 °C 15,6 °C 1,6 km/h (1 Bft)
26.07.2018 00:16 15,6 °C 90 % 1013,3 hPa 0,0 mm 1,1 km/h (1 Bft) W 264 ° 0 min 0,000 mm 0,0 UV-I 0 W/m² 14,0 °C 15,6 °C 3,2 km/h (1 Bft)
26.07.2018 00:17 15,6 °C 91 % 1013,2 hPa 0,0 mm 0,0 km/h (0 Bft) W 264 ° 0 min 0,000 mm 0,0 UV-I 0 W/m² 14,1 °C 15,6 °C 0,0 km/h (0 Bft)
26.07.2018 00:18 15,4 °C 90 % 1013,2 hPa 0,0 mm 0,0 km/h (0 Bft) W 264 ° 0 min 0,000 mm 0,0 UV-I 0 W/m² 13,8 °C 15,4 °C 0,0 km/h (0 Bft)
26.07.2018 00:19 15,4 °C 90 % 1013,1 hPa 0,0 mm 0,3 km/h (0 Bft) W 264 ° 0 min 0,000 mm 0,0 UV-I 0 W/m² 13,8 °C 15,4 °C 1,6 km/h (1 Bft)
26.07.2018 00:20 15,3 °C 91 % 1013,1 hPa 0,0 mm 0,0 km/h (0 Bft) W 264 ° 0 min 0,000 mm 0,0 UV-I 0 W/m² 13,8 °C 15,3 °C 0,0 km/h (0 Bft)
26.07.2018 00:21 15,3 °C 91 % 1013,1 hPa 0,0 mm 0,0 km/h (0 Bft) W 264 ° 0 min 0,000 mm 0,0 UV-I 0 W/m² 13,8 °C 15,3 °C 0,0 km/h (0 Bft)
26.07.2018 00:22 15,3 °C 91 % 1013,1 hPa 0,0 mm 0,0 km/h (0 Bft) W 264 ° 0 min 0,000 mm 0,0 UV-I 0 W/m² 13,8 °C 15,3 °C 0,0 km/h (0 Bft)
26.07.2018 00:23 15,2 °C 91 % 1013,1 hPa 0,0 mm 0,0 km/h (0 Bft) W 264 ° 0 min 0,000 mm 0,0 UV-I 0 W/m² 13,7 °C 15,2 °C 0,0 km/h (0 Bft)
26.07.2018 00:24 15,2 °C 91 % 1013,2 hPa 0,0 mm 0,0 km/h (0 Bft) W 264 ° 0 min 0,000 mm 0,0 UV-I 0 W/m² 13,7 °C 15,2 °C 0,0 km/h (0 Bft)
26.07.2018 00:25 15,2 °C 91 % 1013,1 hPa 0,0 mm 0,0 km/h (0 Bft) W 264 ° 0 min 0,000 mm 0,0 UV-I 0 W/m² 13,7 °C 15,2 °C 0,0 km/h (0 Bft)
26.07.2018 00:26 15,2 °C 91 % 1013,1 hPa 0,0 mm 0,0 km/h (0 Bft) W 264 ° 0 min 0,000 mm 0,0 UV-I 0 W/m² 13,7 °C 15,2 °C 0,0 km/h (0 Bft)
26.07.2018 00:27 15,2 °C 91 % 1013,1 hPa 0,0 mm 0,0 km/h (0 Bft) W 264 ° 0 min 0,000 mm 0,0 UV-I 0 W/m² 13,7 °C 15,2 °C 0,0 km/h (0 Bft)
26.07.2018 00:28 15,1 °C 91 % 1013,1 hPa 0,0 mm 0,0 km/h (0 Bft) W 264 ° 0 min 0,000 mm 0,0 UV-I 0 W/m² 13,6 °C 15,1 °C 0,0 km/h (0 Bft)
26.07.2018 00:29 15,2 °C 91 % 1013,1 hPa 0,0 mm 0,0 km/h (0 Bft) W 264 ° 0 min 0,000 mm 0,0 UV-I 0 W/m² 13,7 °C 15,2 °C 0,0 km/h (0 Bft)
26.07.2018 00:30 15,2 °C 91 % 1013,1 hPa 0,0 mm 0,0 km/h (0 Bft) W 264 ° 0 min 0,000 mm 0,0 UV-I 0 W/m² 13,7 °C 15,2 °C 0,0 km/h (0 Bft)
26.07.2018 00:31 15,1 °C 91 % 1013,1 hPa 0,0 mm 0,2 km/h (0 Bft) W 273 ° 0 min 0,000 mm 0,0 UV-I 0 W/m² 13,6 °C 15,1 °C 1,6 km/h (1 Bft)
26.07.2018 00:32 15,1 °C 91 % 1013,1 hPa 0,0 mm 2,7 km/h (1 Bft) W 273 ° 0 min 0,000 mm 0,0 UV-I 0 W/m² 13,6 °C 15,1 °C 4,8 km/h (1 Bft)
26.07.2018 00:33 15,2 °C 91 % 1013,1 hPa 0,0 mm 0,3 km/h (0 Bft) W 273 ° 0 min 0,000 mm 0,0 UV-I 0 W/m² 13,7 °C 15,2 °C 1,6 km/h (1 Bft)
26.07.2018 00:34 15,2 °C 91 % 1013,0 hPa 0,0 mm 0,0 km/h (0 Bft) W 273 ° 0 min 0,000 mm 0,0 UV-I 0 W/m² 13,7 °C 15,2 °C 0,0 km/h (0 Bft)
26.07.2018 00:35 15,2 °C 91 % 1013,0 hPa 0,0 mm 2,2 km/h (1 Bft) W 272 ° 0 min 0,000 mm 0,0 UV-I 0 W/m² 13,7 °C 15,2 °C 6,4 km/h (2 Bft)
26.07.2018 00:36 15,1 °C 91 % 1013,0 hPa 0,0 mm 1,0 km/h (0 Bft) W 272 ° 0 min 0,000 mm 0,0 UV-I 0 W/m² 13,6 °C 15,1 °C 1,6 km/h (1 Bft)
26.07.2018 00:37 15,1 °C 91 % 1013,0 hPa 0,0 mm 0,0 km/h (0 Bft) W 272 ° 0 min 0,000 mm 0,0 UV-I 0 W/m² 13,6 °C 15,1 °C 0,0 km/h (0 Bft)
26.07.2018 00:38 15,1 °C 91 % 1013,0 hPa 0,0 mm 0,0 km/h (0 Bft) W 272 ° 0 min 0,000 mm 0,0 UV-I 0 W/m² 13,6 °C 15,1 °C 0,0 km/h (0 Bft)
26.07.2018 00:39 15,1 °C 91 % 1012,9 hPa 0,0 mm 0,0 km/h (0 Bft) W 272 ° 0 min 0,000 mm 0,0 UV-I 0 W/m² 13,6 °C 15,1 °C 0,0 km/h (0 Bft)
26.07.2018 00:40 15,1 °C 91 % 1012,9 hPa 0,0 mm 0,0 km/h (0 Bft) W 272 ° 0 min 0,000 mm 0,0 UV-I 0 W/m² 13,6 °C 15,1 °C 0,0 km/h (0 Bft)
26.07.2018 00:41 15,0 °C 91 % 1012,9 hPa 0,0 mm 0,0 km/h (0 Bft) W 272 ° 0 min 0,000 mm 0,0 UV-I 0 W/m² 13,5 °C 15,0 °C 0,0 km/h (0 Bft)
26.07.2018 00:42 15,0 °C 91 % 1012,9 hPa 0,0 mm 0,0 km/h (0 Bft) W 272 ° 0 min 0,000 mm 0,0 UV-I 0 W/m² 13,5 °C 15,0 °C 0,0 km/h (0 Bft)
26.07.2018 00:43 14,9 °C 92 % 1012,9 hPa 0,0 mm 0,0 km/h (0 Bft) W 272 ° 0 min 0,000 mm 0,0 UV-I 0 W/m² 13,6 °C 14,9 °C 0,0 km/h (0 Bft)
26.07.2018 00:44 15,0 °C 92 % 1012,9 hPa 0,0 mm 0,0 km/h (0 Bft) W 272 ° 0 min 0,000 mm 0,0 UV-I 0 W/m² 13,7 °C 15,0 °C 0,0 km/h (0 Bft)
26.07.2018 00:45 15,0 °C 92 % 1013,0 hPa 0,0 mm 0,0 km/h (0 Bft) W 272 ° 0 min 0,000 mm 0,0 UV-I 0 W/m² 13,7 °C 15,0 °C 0,0 km/h (0 Bft)
26.07.2018 00:46 15,0 °C 91 % 1012,9 hPa 0,0 mm 0,0 km/h (0 Bft) W 272 ° 0 min 0,000 mm 0,0 UV-I 0 W/m² 13,5 °C 15,0 °C 0,0 km/h (0 Bft)
26.07.2018 00:47 14,9 °C 91 % 1012,9 hPa 0,0 mm 0,0 km/h (0 Bft) W 272 ° 0 min 0,000 mm 0,0 UV-I 0 W/m² 13,4 °C 14,9 °C 0,0 km/h (0 Bft)
26.07.2018 00:48 15,0 °C 92 % 1013,0 hPa 0,0 mm 0,0 km/h (0 Bft) W 272 ° 0 min 0,000 mm 0,0 UV-I 0 W/m² 13,7 °C 15,0 °C 0,0 km/h (0 Bft)
26.07.2018 00:49 15,1 °C 92 % 1012,9 hPa 0,0 mm 0,0 km/h (0 Bft) W 272 ° 0 min 0,000 mm 0,0 UV-I 0 W/m² 13,8 °C 15,1 °C 0,0 km/h (0 Bft)
26.07.2018 00:50 15,1 °C 91 % 1012,9 hPa 0,0 mm 0,0 km/h (0 Bft) W 272 ° 0 min 0,000 mm 0,0 UV-I 0 W/m² 13,6 °C 15,1 °C 0,0 km/h (0 Bft)
26.07.2018 00:51 15,1 °C 91 % 1012,9 hPa 0,0 mm 0,0 km/h (0 Bft) W 272 ° 0 min 0,000 mm 0,0 UV-I 0 W/m² 13,6 °C 15,1 °C 0,0 km/h (0 Bft)
26.07.2018 00:52 15,1 °C 91 % 1012,8 hPa 0,0 mm 0,0 km/h (0 Bft) W 272 ° 0 min 0,000 mm 0,0 UV-I 0 W/m² 13,6 °C 15,1 °C 0,0 km/h (0 Bft)
26.07.2018 00:53 15,1 °C 91 % 1012,8 hPa 0,0 mm 0,0 km/h (0 Bft) W 277 ° 0 min 0,000 mm 0,0 UV-I 0 W/m² 13,6 °C 15,1 °C 0,0 km/h (0 Bft)
26.07.2018 00:54 15,1 °C 90 % 1012,9 hPa 0,0 mm 0,6 km/h (0 Bft) W 277 ° 0 min 0,000 mm 0,0 UV-I 0 W/m² 13,5 °C 15,1 °C 1,6 km/h (1 Bft)
26.07.2018 00:55 15,1 °C 91 % 1012,8 hPa 0,0 mm 3,7 km/h (1 Bft) S 173 ° 0 min 0,000 mm 0,0 UV-I 0 W/m² 13,6 °C 15,1 °C 6,4 km/h (2 Bft)
26.07.2018 00:56 15,2 °C 91 % 1012,8 hPa 0,0 mm 0,3 km/h (0 Bft) S 173 ° 0 min 0,000 mm 0,0 UV-I 0 W/m² 13,7 °C 15,2 °C 1,6 km/h (1 Bft)
26.07.2018 00:57 15,2 °C 91 % 1012,8 hPa 0,0 mm 0,0 km/h (0 Bft) S 173 ° 0 min 0,000 mm 0,0 UV-I 0 W/m² 13,7 °C 15,2 °C 0,0 km/h (0 Bft)
26.07.2018 00:58 15,2 °C 91 % 1012,8 hPa 0,0 mm 0,0 km/h (0 Bft) S 173 ° 0 min 0,000 mm 0,0 UV-I 0 W/m² 13,7 °C 15,2 °C 0,0 km/h (0 Bft)
26.07.2018 00:59 15,2 °C 91 % 1012,8 hPa 0,0 mm 0,3 km/h (0 Bft) S 173 ° 0 min 0,000 mm 0,0 UV-I 0 W/m² 13,7 °C 15,2 °C 1,6 km/h (1 Bft)
26.07.2018 01:00 15,2 °C 91 % 1012,8 hPa 0,0 mm 0,1 km/h (0 Bft) S 173 ° 0 min 0,000 mm 0,0 UV-I 0 W/m² 13,7 °C 15,2 °C 1,6 km/h (1 Bft)
26.07.2018 01:01 15,1 °C 91 % 1012,9 hPa 0,0 mm 0,0 km/h (0 Bft) S 173 ° 0 min 0,000 mm 0,0 UV-I 0 W/m² 13,6 °C 15,1 °C 0,0 km/h (0 Bft)
26.07.2018 01:02 15,1 °C 90 % 1012,9 hPa 0,0 mm 0,0 km/h (0 Bft) S 173 ° 0 min 0,000 mm 0,0 UV-I 0 W/m² 13,5 °C 15,1 °C 0,0 km/h (0 Bft)
26.07.2018 01:03 15,2 °C 91 % 1012,9 hPa 0,0 mm 0,1 km/h (0 Bft) S 173 ° 0 min 0,000 mm 0,0 UV-I 0 W/m² 13,7 °C 15,2 °C 1,6 km/h (1 Bft)
26.07.2018 01:04 15,2 °C 90 % 1012,8 hPa 0,0 mm 0,0 km/h (0 Bft) S 173 ° 0 min 0,000 mm 0,0 UV-I 0 W/m² 13,6 °C 15,2 °C 0,0 km/h (0 Bft)
26.07.2018 01:05 15,1 °C 90 % 1012,9 hPa 0,0 mm 0,0 km/h (0 Bft) S 173 ° 0 min 0,000 mm 0,0 UV-I 0 W/m² 13,5 °C 15,1 °C 0,0 km/h (0 Bft)
26.07.2018 01:06 15,1 °C 90 % 1012,9 hPa 0,0 mm 0,0 km/h (0 Bft) S 173 ° 0 min 0,000 mm 0,0 UV-I 0 W/m² 13,5 °C 15,1 °C 0,0 km/h (0 Bft)
26.07.2018 01:07 15,0 °C 90 % 1012,9 hPa 0,0 mm 0,0 km/h (0 Bft) S 173 ° 0 min 0,000 mm 0,0 UV-I 0 W/m² 13,4 °C 15,0 °C 0,0 km/h (0 Bft)
26.07.2018 01:08 14,9 °C 90 % 1012,9 hPa 0,0 mm 0,0 km/h (0 Bft) S 173 ° 0 min 0,000 mm 0,0 UV-I 0 W/m² 13,3 °C 14,9 °C 0,0 km/h (0 Bft)
26.07.2018 01:09 14,9 °C 90 % 1012,8 hPa 0,0 mm 0,0 km/h (0 Bft) S 173 ° 0 min 0,000 mm 0,0 UV-I 0 W/m² 13,3 °C 14,9 °C 0,0 km/h (0 Bft)
26.07.2018 01:10 14,9 °C 90 % 1012,8 hPa 0,0 mm 0,0 km/h (0 Bft) S 173 ° 0 min 0,000 mm 0,0 UV-I 0 W/m² 13,3 °C 14,9 °C 0,0 km/h (0 Bft)
26.07.2018 01:11 14,9 °C 90 % 1012,8 hPa 0,0 mm 0,0 km/h (0 Bft) S 173 ° 0 min 0,000 mm 0,0 UV-I 0 W/m² 13,3 °C 14,9 °C 0,0 km/h (0 Bft)
26.07.2018 01:12 15,0 °C 90 % 1012,8 hPa 0,0 mm 0,0 km/h (0 Bft) S 173 ° 0 min 0,000 mm 0,0 UV-I 0 W/m² 13,4 °C 15,0 °C 0,0 km/h (0 Bft)
26.07.2018 01:13 15,1 °C 91 % 1012,8 hPa 0,0 mm 0,0 km/h (0 Bft) S 173 ° 0 min 0,000 mm 0,0 UV-I 0 W/m² 13,6 °C 15,1 °C 0,0 km/h (0 Bft)
26.07.2018 01:14 15,2 °C 90 % 1012,8 hPa 0,0 mm 0,0 km/h (0 Bft) S 173 ° 0 min 0,000 mm 0,0 UV-I 0 W/m² 13,6 °C 15,2 °C 0,0 km/h (0 Bft)
26.07.2018 01:15 15,2 °C 90 % 1012,8 hPa 0,0 mm 0,0 km/h (0 Bft) S 173 ° 0 min 0,000 mm 0,0 UV-I 0 W/m² 13,6 °C 15,2 °C 0,0 km/h (0 Bft)
26.07.2018 01:16 15,2 °C 90 % 1012,8 hPa 0,0 mm 0,0 km/h (0 Bft) S 173 ° 0 min 0,000 mm 0,0 UV-I 0 W/m² 13,6 °C 15,2 °C 0,0 km/h (0 Bft)
26.07.2018 01:17 15,1 °C 90 % 1012,8 hPa 0,0 mm 0,0 km/h (0 Bft) S 173 ° 0 min 0,000 mm 0,0 UV-I 0 W/m² 13,5 °C 15,1 °C 0,0 km/h (0 Bft)
26.07.2018 01:18 15,1 °C 90 % 1012,8 hPa 0,0 mm 0,0 km/h (0 Bft) S 173 ° 0 min 0,000 mm 0,0 UV-I 0 W/m² 13,5 °C 15,1 °C 0,0 km/h (0 Bft)
26.07.2018 01:19 15,0 °C 90 % 1012,8 hPa 0,0 mm 0,0 km/h (0 Bft) S 173 ° 0 min 0,000 mm 0,0 UV-I 0 W/m² 13,4 °C 15,0 °C 0,0 km/h (0 Bft)
26.07.2018 01:20 14,9 °C 90 % 1012,8 hPa 0,0 mm 0,0 km/h (0 Bft) S 173 ° 0 min 0,000 mm 0,0 UV-I 0 W/m² 13,3 °C 14,9 °C 0,0 km/h (0 Bft)
26.07.2018 01:21 14,9 °C 90 % 1012,8 hPa 0,0 mm 0,0 km/h (0 Bft) S 173 ° 0 min 0,000 mm 0,0 UV-I 0 W/m² 13,3 °C 14,9 °C 0,0 km/h (0 Bft)
26.07.2018 01:22 14,9 °C 90 % 1012,8 hPa 0,0 mm 0,0 km/h (0 Bft) S 173 ° 0 min 0,000 mm 0,0 UV-I 0 W/m² 13,3 °C 14,9 °C 0,0 km/h (0 Bft)
26.07.2018 01:23 14,9 °C 90 % 1012,8 hPa 0,0 mm 0,0 km/h (0 Bft) S 173 ° 0 min 0,000 mm 0,0 UV-I 0 W/m² 13,3 °C 14,9 °C 0,0 km/h (0 Bft)
26.07.2018 01:24 15,0 °C 90 % 1012,9 hPa 0,0 mm 0,0 km/h (0 Bft) S 173 ° 0 min 0,000 mm 0,0 UV-I 0 W/m² 13,4 °C 15,0 °C 0,0 km/h (0 Bft)
26.07.2018 01:25 15,1 °C 90 % 1012,9 hPa 0,0 mm 0,0 km/h (0 Bft) S 174 ° 0 min 0,000 mm 0,0 UV-I 0 W/m² 13,5 °C 15,1 °C 0,0 km/h (0 Bft)
26.07.2018 01:26 15,1 °C 90 % 1012,9 hPa 0,0 mm 0,1 km/h (0 Bft) S 173 ° 0 min 0,000 mm 0,0 UV-I 0 W/m² 13,5 °C 15,1 °C 1,6 km/h (1 Bft)
26.07.2018 01:27 15,1 °C 89 % 1012,9 hPa 0,0 mm 1,6 km/h (1 Bft) S 185 ° 0 min 0,000 mm 0,0 UV-I 0 W/m² 13,3 °C 15,1 °C 3,2 km/h (1 Bft)
26.07.2018 01:28 15,1 °C 89 % 1012,9 hPa 0,0 mm 0,2 km/h (0 Bft) S 185 ° 0 min 0,000 mm 0,0 UV-I 0 W/m² 13,3 °C 15,1 °C 1,6 km/h (1 Bft)
26.07.2018 01:29 15,1 °C 89 % 1012,8 hPa 0,0 mm 0,1 km/h (0 Bft) S 185 ° 0 min 0,000 mm 0,0 UV-I 0 W/m² 13,3 °C 15,1 °C 1,6 km/h (1 Bft)
26.07.2018 01:30 15,1 °C 89 % 1012,8 hPa 0,0 mm 0,0 km/h (0 Bft) S 185 ° 0 min 0,000 mm 0,0 UV-I 0 W/m² 13,3 °C 15,1 °C 0,0 km/h (0 Bft)
26.07.2018 01:31 15,1 °C 89 % 1012,8 hPa 0,0 mm 0,0 km/h (0 Bft) S 185 ° 0 min 0,000 mm 0,0 UV-I 0 W/m² 13,3 °C 15,1 °C 0,0 km/h (0 Bft)
26.07.2018 01:32 15,1 °C 89 % 1012,8 hPa 0,0 mm 0,0 km/h (0 Bft) S 185 ° 0 min 0,000 mm 0,0 UV-I 0 W/m² 13,3 °C 15,1 °C 0,0 km/h (0 Bft)
26.07.2018 01:33 15,1 °C 89 % 1012,8 hPa 0,0 mm 0,0 km/h (0 Bft) S 185 ° 0 min 0,000 mm 0,0 UV-I 0 W/m² 13,3 °C 15,1 °C 0,0 km/h (0 Bft)
26.07.2018 01:34 15,1 °C 89 % 1012,7 hPa 0,0 mm 0,0 km/h (0 Bft) S 185 ° 0 min 0,000 mm 0,0 UV-I 0 W/m² 13,3 °C 15,1 °C 0,0 km/h (0 Bft)
26.07.2018 01:35 15,1 °C 89 % 1012,8 hPa 0,0 mm 0,0 km/h (0 Bft) S 185 ° 0 min 0,000 mm 0,0 UV-I 0 W/m² 13,3 °C 15,1 °C 0,0 km/h (0 Bft)
26.07.2018 01:36 15,1 °C 89 % 1012,7 hPa 0,0 mm 0,0 km/h (0 Bft) S 185 ° 0 min 0,000 mm 0,0 UV-I 0 W/m² 13,3 °C 15,1 °C 0,0 km/h (0 Bft)
26.07.2018 01:37 15,1 °C 89 % 1012,7 hPa 0,0 mm 0,0 km/h (0 Bft) S 185 ° 0 min 0,000 mm 0,0 UV-I 0 W/m² 13,3 °C 15,1 °C 0,0 km/h (0 Bft)
26.07.2018 01:38 15,1 °C 89 % 1012,7 hPa 0,0 mm 0,0 km/h (0 Bft) S 185 ° 0 min 0,000 mm 0,0 UV-I 0 W/m² 13,3 °C 15,1 °C 0,0 km/h (0 Bft)
26.07.2018 01:39 15,1 °C 89 % 1012,7 hPa 0,0 mm 0,0 km/h (0 Bft) S 185 ° 0 min 0,000 mm 0,0 UV-I 0 W/m² 13,3 °C 15,1 °C 0,0 km/h (0 Bft)
26.07.2018 01:40 15,0 °C 89 % 1012,7 hPa 0,0 mm 0,0 km/h (0 Bft) S 185 ° 0 min 0,000 mm 0,0 UV-I 0 W/m² 13,2 °C 15,0 °C 0,0 km/h (0 Bft)
26.07.2018 01:41 14,9 °C 89 % 1012,7 hPa 0,0 mm 0,0 km/h (0 Bft) S 185 ° 0 min 0,000 mm 0,0 UV-I 0 W/m² 13,1 °C 14,9 °C 0,0 km/h (0 Bft)
26.07.2018 01:42 14,9 °C 89 % 1012,7 hPa 0,0 mm 0,0 km/h (0 Bft) S 185 ° 0 min 0,000 mm 0,0 UV-I 0 W/m² 13,1 °C 14,9 °C 0,0 km/h (0 Bft)
26.07.2018 01:43 14,9 °C 90 % 1012,6 hPa 0,0 mm 0,0 km/h (0 Bft) S 185 ° 0 min 0,000 mm 0,0 UV-I 0 W/m² 13,3 °C 14,9 °C 0,0 km/h (0 Bft)
26.07.2018 01:44 14,8 °C 89 % 1012,6 hPa 0,0 mm 0,0 km/h (0 Bft) S 185 ° 0 min 0,000 mm 0,0 UV-I 0 W/m² 13,0 °C 14,8 °C 0,0 km/h (0 Bft)
26.07.2018 01:45 14,8 °C 90 % 1012,6 hPa 0,0 mm 0,0 km/h (0 Bft) S 185 ° 0 min 0,000 mm 0,0 UV-I 0 W/m² 13,2 °C 14,8 °C 0,0 km/h (0 Bft)
26.07.2018 01:46 14,7 °C 90 % 1012,6 hPa 0,0 mm 0,0 km/h (0 Bft) S 185 ° 0 min 0,000 mm 0,0 UV-I 0 W/m² 13,1 °C 14,7 °C 0,0 km/h (0 Bft)
26.07.2018 01:47 14,7 °C 90 % 1012,6 hPa 0,0 mm 0,0 km/h (0 Bft) S 185 ° 0 min 0,000 mm 0,0 UV-I 0 W/m² 13,1 °C 14,7 °C 0,0 km/h (0 Bft)
26.07.2018 01:48 14,7 °C 90 % 1012,6 hPa 0,0 mm 0,0 km/h (0 Bft) S 185 ° 0 min 0,000 mm 0,0 UV-I 0 W/m² 13,1 °C 14,7 °C 0,0 km/h (0 Bft)
26.07.2018 01:49 14,6 °C 90 % 1012,6 hPa 0,0 mm 0,0 km/h (0 Bft) S 185 ° 0 min 0,000 mm 0,0 UV-I 0 W/m² 13,0 °C 14,6 °C 0,0 km/h (0 Bft)
26.07.2018 01:50 14,6 °C 90 % 1012,6 hPa 0,0 mm 0,0 km/h (0 Bft) S 185 ° 0 min 0,000 mm 0,0 UV-I 0 W/m² 13,0 °C 14,6 °C 0,0 km/h (0 Bft)
26.07.2018 01:51 14,6 °C 90 % 1012,6 hPa 0,0 mm 0,0 km/h (0 Bft) S 185 ° 0 min 0,000 mm 0,0 UV-I 0 W/m² 13,0 °C 14,6 °C 0,0 km/h (0 Bft)
26.07.2018 01:52 14,5 °C 90 % 1012,6 hPa 0,0 mm 0,0 km/h (0 Bft) S 185 ° 0 min 0,000 mm 0,0 UV-I 0 W/m² 12,9 °C 14,5 °C 0,0 km/h (0 Bft)
26.07.2018 01:53 14,4 °C 90 % 1012,6 hPa 0,0 mm 0,0 km/h (0 Bft) S 185 ° 0 min 0,000 mm 0,0 UV-I 0 W/m² 12,8 °C 14,4 °C 0,0 km/h (0 Bft)
26.07.2018 01:54 14,4 °C 90 % 1012,5 hPa 0,0 mm 0,0 km/h (0 Bft) S 185 ° 0 min 0,000 mm 0,0 UV-I 0 W/m² 12,8 °C 14,4 °C 0,0 km/h (0 Bft)
26.07.2018 01:55 14,5 °C 90 % 1012,6 hPa 0,0 mm 0,0 km/h (0 Bft) S 185 ° 0 min 0,000 mm 0,0 UV-I 0 W/m² 12,9 °C 14,5 °C 0,0 km/h (0 Bft)
26.07.2018 01:56 14,5 °C 90 % 1012,5 hPa 0,0 mm 0,0 km/h (0 Bft) S 185 ° 0 min 0,000 mm 0,0 UV-I 0 W/m² 12,9 °C 14,5 °C 0,0 km/h (0 Bft)
26.07.2018 01:57 14,6 °C 90 % 1012,5 hPa 0,0 mm 0,0 km/h (0 Bft) S 185 ° 0 min 0,000 mm 0,0 UV-I 0 W/m² 13,0 °C 14,6 °C 0,0 km/h (0 Bft)
26.07.2018 01:58 14,5 °C 90 % 1012,5 hPa 0,0 mm 0,0 km/h (0 Bft) S 185 ° 0 min 0,000 mm 0,0 UV-I 0 W/m² 12,9 °C 14,5 °C 0,0 km/h (0 Bft)
26.07.2018 01:59 14,6 °C 91 % 1012,6 hPa 0,0 mm 0,0 km/h (0 Bft) S 185 ° 0 min 0,000 mm 0,0 UV-I 0 W/m² 13,1 °C 14,6 °C 0,0 km/h (0 Bft)
26.07.2018 02:00 14,6 °C 90 % 1012,7 hPa 0,0 mm 0,0 km/h (0 Bft) S 185 ° 0 min 0,000 mm 0,0 UV-I 0 W/m² 13,0 °C 14,6 °C 0,0 km/h (0 Bft)
26.07.2018 02:01 14,7 °C 90 % 1012,6 hPa 0,0 mm 0,1 km/h (0 Bft) S-SO 168 ° 0 min 0,000 mm 0,0 UV-I 0 W/m² 13,1 °C 14,7 °C 1,6 km/h (1 Bft)
26.07.2018 02:02 14,7 °C 90 % 1012,6 hPa 0,0 mm 0,0 km/h (0 Bft) S-SO 168 ° 0 min 0,000 mm 0,0 UV-I 0 W/m² 13,1 °C 14,7 °C 0,0 km/h (0 Bft)
26.07.2018 02:03 14,8 °C 90 % 1012,7 hPa 0,0 mm 0,0 km/h (0 Bft) S-SO 168 ° 0 min 0,000 mm 0,0 UV-I 0 W/m² 13,2 °C 14,8 °C 0,0 km/h (0 Bft)
26.07.2018 02:04 14,8 °C 89 % 1012,7 hPa 0,0 mm 0,0 km/h (0 Bft) S-SO 168 ° 0 min 0,000 mm 0,0 UV-I 0 W/m² 13,0 °C 14,8 °C 0,0 km/h (0 Bft)
26.07.2018 02:05 14,9 °C 89 % 1012,7 hPa 0,0 mm 0,0 km/h (0 Bft) S-SO 168 ° 0 min 0,000 mm 0,0 UV-I 0 W/m² 13,1 °C 14,9 °C 0,0 km/h (0 Bft)
26.07.2018 02:06 15,0 °C 89 % 1012,7 hPa 0,0 mm 0,0 km/h (0 Bft) S-SO 168 ° 0 min 0,000 mm 0,0 UV-I 0 W/m² 13,2 °C 15,0 °C 0,0 km/h (0 Bft)
26.07.2018 02:07 15,1 °C 88 % 1012,7 hPa 0,0 mm 0,0 km/h (0 Bft) S-SO 168 ° 0 min 0,000 mm 0,0 UV-I 0 W/m² 13,1 °C 15,1 °C 0,0 km/h (0 Bft)
26.07.2018 02:08 15,1 °C 88 % 1012,7 hPa 0,0 mm 0,0 km/h (0 Bft) S-SO 168 ° 0 min 0,000 mm 0,0 UV-I 0 W/m² 13,1 °C 15,1 °C 0,0 km/h (0 Bft)
26.07.2018 02:09 15,2 °C 88 % 1012,7 hPa 0,0 mm 0,0 km/h (0 Bft) S-SO 168 ° 0 min 0,000 mm 0,0 UV-I 0 W/m² 13,2 °C 15,2 °C 0,0 km/h (0 Bft)
26.07.2018 02:10 15,2 °C 88 % 1012,7 hPa 0,0 mm 0,0 km/h (0 Bft) S-SO 168 ° 0 min 0,000 mm 0,0 UV-I 0 W/m² 13,2 °C 15,2 °C 0,0 km/h (0 Bft)
26.07.2018 02:11 15,1 °C 88 % 1012,6 hPa 0,0 mm 0,0 km/h (0 Bft) S-SO 168 ° 0 min 0,000 mm 0,0 UV-I 0 W/m² 13,1 °C 15,1 °C 0,0 km/h (0 Bft)
26.07.2018 02:12 15,1 °C 88 % 1012,6 hPa 0,0 mm 0,0 km/h (0 Bft) S-SO 168 ° 0 min 0,000 mm 0,0 UV-I 0 W/m² 13,1 °C 15,1 °C 0,0 km/h (0 Bft)
26.07.2018 02:13 15,0 °C 88 % 1012,6 hPa 0,0 mm 1,5 km/h (1 Bft) S-SO 168 ° 0 min 0,000 mm 0,0 UV-I 0 W/m² 13,0 °C 15,0 °C 3,2 km/h (1 Bft)
26.07.2018 02:14 14,9 °C 88 % 1012,6 hPa 0,0 mm 0,5 km/h (0 Bft) S-SO 168 ° 0 min 0,000 mm 0,0 UV-I 0 W/m² 12,9 °C 14,9 °C 1,6 km/h (1 Bft)
26.07.2018 02:15 14,8 °C 89 % 1012,7 hPa 0,0 mm 0,0 km/h (0 Bft) S-SO 168 ° 0 min 0,000 mm 0,0 UV-I 0 W/m² 13,0 °C 14,8 °C 0,0 km/h (0 Bft)
26.07.2018 02:16 14,8 °C 89 % 1012,7 hPa 0,0 mm 0,0 km/h (0 Bft) S-SO 168 ° 0 min 0,000 mm 0,0 UV-I 0 W/m² 13,0 °C 14,8 °C 0,0 km/h (0 Bft)
26.07.2018 02:17 14,9 °C 89 % 1012,7 hPa 0,0 mm 0,0 km/h (0 Bft) S-SO 168 ° 0 min 0,000 mm 0,0 UV-I 0 W/m² 13,1 °C 14,9 °C 0,0 km/h (0 Bft)
26.07.2018 02:18 14,9 °C 89 % 1012,7 hPa 0,0 mm 0,0 km/h (0 Bft) S-SO 168 ° 0 min 0,000 mm 0,0 UV-I 0 W/m² 13,1 °C 14,9 °C 0,0 km/h (0 Bft)
26.07.2018 02:19 15,0 °C 89 % 1012,7 hPa 0,0 mm 0,0 km/h (0 Bft) S-SO 168 ° 0 min 0,000 mm 0,0 UV-I 0 W/m² 13,2 °C 15,0 °C 0,0 km/h (0 Bft)
26.07.2018 02:20 15,0 °C 89 % 1012,7 hPa 0,0 mm 0,0 km/h (0 Bft) S-SO 168 ° 0 min 0,000 mm 0,0 UV-I 0 W/m² 13,2 °C 15,0 °C 0,0 km/h (0 Bft)
26.07.2018 02:21 15,0 °C 89 % 1012,6 hPa 0,0 mm 0,0 km/h (0 Bft) S-SO 168 ° 0 min 0,000 mm 0,0 UV-I 0 W/m² 13,2 °C 15,0 °C 0,0 km/h (0 Bft)
26.07.2018 02:22 15,0 °C 89 % 1012,7 hPa 0,0 mm 0,0 km/h (0 Bft) S-SO 168 ° 0 min 0,000 mm 0,0 UV-I 0 W/m² 13,2 °C 15,0 °C 0,0 km/h (0 Bft)
26.07.2018 02:23 15,0 °C 89 % 1012,7 hPa 0,0 mm 0,0 km/h (0 Bft) S-SO 168 ° 0 min 0,000 mm 0,0 UV-I 0 W/m² 13,2 °C 15,0 °C 0,0 km/h (0 Bft)
26.07.2018 02:24 14,9 °C 89 % 1012,6 hPa 0,0 mm 0,0 km/h (0 Bft) S-SO 168 ° 0 min 0,000 mm 0,0 UV-I 0 W/m² 13,1 °C 14,9 °C 0,0 km/h (0 Bft)
26.07.2018 02:25 14,8 °C 89 % 1012,6 hPa 0,0 mm 0,0 km/h (0 Bft) S-SO 168 ° 0 min 0,000 mm 0,0 UV-I 0 W/m² 13,0 °C 14,8 °C 0,0 km/h (0 Bft)
26.07.2018 02:26 14,8 °C 89 % 1012,5 hPa 0,0 mm 0,0 km/h (0 Bft) S-SO 168 ° 0 min 0,000 mm 0,0 UV-I 0 W/m² 13,0 °C 14,8 °C 0,0 km/h (0 Bft)
26.07.2018 02:27 14,8 °C 89 % 1012,6 hPa 0,0 mm 0,0 km/h (0 Bft) S-SO 168 ° 0 min 0,000 mm 0,0 UV-I 0 W/m² 13,0 °C 14,8 °C 0,0 km/h (0 Bft)
26.07.2018 02:28 14,7 °C 89 % 1012,6 hPa 0,0 mm 0,0 km/h (0 Bft) S-SO 168 ° 0 min 0,000 mm 0,0 UV-I 0 W/m² 12,9 °C 14,7 °C 0,0 km/h (0 Bft)
26.07.2018 02:29 14,7 °C 89 % 1012,6 hPa 0,0 mm 0,0 km/h (0 Bft) S-SO 168 ° 0 min 0,000 mm 0,0 UV-I 0 W/m² 12,9 °C 14,7 °C 0,0 km/h (0 Bft)
26.07.2018 02:30 14,6 °C 89 % 1012,6 hPa 0,0 mm 0,0 km/h (0 Bft) S-SO 168 ° 0 min 0,000 mm 0,0 UV-I 0 W/m² 12,8 °C 14,6 °C 0,0 km/h (0 Bft)
26.07.2018 02:31 14,6 °C 89 % 1012,6 hPa 0,0 mm 0,0 km/h (0 Bft) S-SO 168 ° 0 min 0,000 mm 0,0 UV-I 0 W/m² 12,8 °C 14,6 °C 0,0 km/h (0 Bft)
26.07.2018 02:32 14,5 °C 90 % 1012,6 hPa 0,0 mm 0,0 km/h (0 Bft) S-SO 168 ° 0 min 0,000 mm 0,0 UV-I 0 W/m² 12,9 °C 14,5 °C 0,0 km/h (0 Bft)
26.07.2018 02:33 14,4 °C 90 % 1012,6 hPa 0,0 mm 0,0 km/h (0 Bft) S-SO 168 ° 0 min 0,000 mm 0,0 UV-I 0 W/m² 12,8 °C 14,4 °C 0,0 km/h (0 Bft)
26.07.2018 02:34 14,4 °C 90 % 1012,6 hPa 0,0 mm 0,0 km/h (0 Bft) S-SO 168 ° 0 min 0,000 mm 0,0 UV-I 0 W/m² 12,8 °C 14,4 °C 0,0 km/h (0 Bft)
26.07.2018 02:35 14,4 °C 90 % 1012,6 hPa 0,0 mm 0,0 km/h (0 Bft) S-SO 168 ° 0 min 0,000 mm 0,0 UV-I 0 W/m² 12,8 °C 14,4 °C 0,0 km/h (0 Bft)
26.07.2018 02:36 14,4 °C 90 % 1012,6 hPa 0,0 mm 0,0 km/h (0 Bft) S-SO 168 ° 0 min 0,000 mm 0,0 UV-I 0 W/m² 12,8 °C 14,4 °C 0,0 km/h (0 Bft)
26.07.2018 02:37 14,4 °C 90 % 1012,6 hPa 0,0 mm 0,0 km/h (0 Bft) S-SO 168 ° 0 min 0,000 mm 0,0 UV-I 0 W/m² 12,8 °C 14,4 °C 0,0 km/h (0 Bft)
26.07.2018 02:38 14,4 °C 89 % 1012,6 hPa 0,0 mm 0,0 km/h (0 Bft) S-SO 168 ° 0 min 0,000 mm 0,0 UV-I 0 W/m² 12,6 °C 14,4 °C 0,0 km/h (0 Bft)
26.07.2018 02:39 14,3 °C 89 % 1012,6 hPa 0,0 mm 0,0 km/h (0 Bft) S-SO 168 ° 0 min 0,000 mm 0,0 UV-I 0 W/m² 12,5 °C 14,3 °C 0,0 km/h (0 Bft)
26.07.2018 02:40 14,3 °C 90 % 1012,6 hPa 0,0 mm 0,0 km/h (0 Bft) S-SO 168 ° 0 min 0,000 mm 0,0 UV-I 0 W/m² 12,7 °C 14,3 °C 0,0 km/h (0 Bft)
26.07.2018 02:41 14,3 °C 89 % 1012,6 hPa 0,0 mm 0,0 km/h (0 Bft) S-SO 168 ° 0 min 0,000 mm 0,0 UV-I 0 W/m² 12,5 °C 14,3 °C 0,0 km/h (0 Bft)
26.07.2018 02:42 14,3 °C 90 % 1012,6 hPa 0,0 mm 0,0 km/h (0 Bft) S-SO 168 ° 0 min 0,000 mm 0,0 UV-I 0 W/m² 12,7 °C 14,3 °C 0,0 km/h (0 Bft)
26.07.2018 02:43 14,2 °C 89 % 1012,6 hPa 0,0 mm 0,0 km/h (0 Bft) S-SO 168 ° 0 min 0,000 mm 0,0 UV-I 0 W/m² 12,4 °C 14,2 °C 0,0 km/h (0 Bft)
26.07.2018 02:44 14,2 °C 90 % 1012,6 hPa 0,0 mm 0,0 km/h (0 Bft) S-SO 168 ° 0 min 0,000 mm 0,0 UV-I 0 W/m² 12,6 °C 14,2 °C 0,0 km/h (0 Bft)
26.07.2018 02:45 14,2 °C 90 % 1012,6 hPa 0,0 mm 0,0 km/h (0 Bft) S-SO 168 ° 0 min 0,000 mm 0,0 UV-I 0 W/m² 12,6 °C 14,2 °C 0,0 km/h (0 Bft)
26.07.2018 02:46 14,2 °C 90 % 1012,6 hPa 0,0 mm 0,0 km/h (0 Bft) S-SO 168 ° 0 min 0,000 mm 0,0 UV-I 0 W/m² 12,6 °C 14,2 °C 0,0 km/h (0 Bft)
26.07.2018 02:47 14,2 °C 89 % 1012,6 hPa 0,0 mm 0,0 km/h (0 Bft) S-SO 168 ° 0 min 0,000 mm 0,0 UV-I 0 W/m² 12,4 °C 14,2 °C 0,0 km/h (0 Bft)
26.07.2018 02:48 14,2 °C 89 % 1012,6 hPa 0,0 mm 0,0 km/h (0 Bft) S-SO 168 ° 0 min 0,000 mm 0,0 UV-I 0 W/m² 12,4 °C 14,2 °C 0,0 km/h (0 Bft)
26.07.2018 02:49 14,1 °C 89 % 1012,6 hPa 0,0 mm 0,0 km/h (0 Bft) S-SO 168 ° 0 min 0,000 mm 0,0 UV-I 0 W/m² 12,3 °C 14,1 °C 0,0 km/h (0 Bft)
26.07.2018 02:50 14,1 °C 90 % 1012,6 hPa 0,0 mm 0,0 km/h (0 Bft) S-SO 168 ° 0 min 0,000 mm 0,0 UV-I 0 W/m² 12,5 °C 14,1 °C 0,0 km/h (0 Bft)
26.07.2018 02:51 14,1 °C 90 % 1012,6 hPa 0,0 mm 0,0 km/h (0 Bft) S-SO 168 ° 0 min 0,000 mm 0,0 UV-I 0 W/m² 12,5 °C 14,1 °C 0,0 km/h (0 Bft)
26.07.2018 02:52 14,1 °C 90 % 1012,6 hPa 0,0 mm 0,0 km/h (0 Bft) S-SO 168 ° 0 min 0,000 mm 0,0 UV-I 0 W/m² 12,5 °C 14,1 °C 0,0 km/h (0 Bft)
26.07.2018 02:53 14,1 °C 90 % 1012,6 hPa 0,0 mm 0,0 km/h (0 Bft) S-SO 168 ° 0 min 0,000 mm 0,0 UV-I 0 W/m² 12,5 °C 14,1 °C 0,0 km/h (0 Bft)
26.07.2018 02:54 14,0 °C 90 % 1012,6 hPa 0,0 mm 0,0 km/h (0 Bft) S-SO 168 ° 0 min 0,000 mm 0,0 UV-I 0 W/m² 12,4 °C 14,0 °C 0,0 km/h (0 Bft)
26.07.2018 02:55 14,0 °C 90 % 1012,6 hPa 0,0 mm 0,0 km/h (0 Bft) S-SO 168 ° 0 min 0,000 mm 0,0 UV-I 0 W/m² 12,4 °C 14,0 °C 0,0 km/h (0 Bft)
26.07.2018 02:56 13,9 °C 90 % 1012,6 hPa 0,0 mm 0,0 km/h (0 Bft) S-SO 168 ° 0 min 0,000 mm 0,0 UV-I 0 W/m² 12,3 °C 13,9 °C 0,0 km/h (0 Bft)
26.07.2018 02:57 13,9 °C 91 % 1012,6 hPa 0,0 mm 0,0 km/h (0 Bft) S-SO 168 ° 0 min 0,000 mm 0,0 UV-I 0 W/m² 12,5 °C 13,9 °C 0,0 km/h (0 Bft)
26.07.2018 02:58 13,9 °C 90 % 1012,7 hPa 0,0 mm 0,0 km/h (0 Bft) S-SO 168 ° 0 min 0,000 mm 0,0 UV-I 0 W/m² 12,3 °C 13,9 °C 0,0 km/h (0 Bft)
26.07.2018 02:59 13,9 °C 90 % 1012,7 hPa 0,0 mm 0,0 km/h (0 Bft) S-SO 168 ° 0 min 0,000 mm 0,0 UV-I 0 W/m² 12,3 °C 13,9 °C 0,0 km/h (0 Bft)
26.07.2018 03:00 13,9 °C 91 % 1012,7 hPa 0,0 mm 0,0 km/h (0 Bft) S-SO 168 ° 0 min 0,000 mm 0,0 UV-I 0 W/m² 12,5 °C 13,9 °C 0,0 km/h (0 Bft)
26.07.2018 03:01 13,9 °C 91 % 1012,7 hPa 0,0 mm 0,0 km/h (0 Bft) S-SO 168 ° 0 min 0,000 mm 0,0 UV-I 0 W/m² 12,5 °C 13,9 °C 0,0 km/h (0 Bft)
26.07.2018 03:02 13,8 °C 90 % 1012,7 hPa 0,0 mm 0,0 km/h (0 Bft) S-SO 168 ° 0 min 0,000 mm 0,0 UV-I 0 W/m² 12,2 °C 13,8 °C 0,0 km/h (0 Bft)
26.07.2018 03:03 13,8 °C 90 % 1012,7 hPa 0,0 mm 0,0 km/h (0 Bft) S-SO 168 ° 0 min 0,000 mm 0,0 UV-I 0 W/m² 12,2 °C 13,8 °C 0,0 km/h (0 Bft)
26.07.2018 03:04 13,8 °C 90 % 1012,7 hPa 0,0 mm 0,0 km/h (0 Bft) S-SO 168 ° 0 min 0,000 mm 0,0 UV-I 0 W/m² 12,2 °C 13,8 °C 0,0 km/h (0 Bft)
26.07.2018 03:05 13,8 °C 90 % 1012,7 hPa 0,0 mm 0,0 km/h (0 Bft) S-SO 168 ° 0 min 0,000 mm 0,0 UV-I 0 W/m² 12,2 °C 13,8 °C 0,0 km/h (0 Bft)
26.07.2018 03:06 13,8 °C 91 % 1012,7 hPa 0,0 mm 0,0 km/h (0 Bft) S-SO 168 ° 0 min 0,000 mm 0,0 UV-I 0 W/m² 12,4 °C 13,8 °C 0,0 km/h (0 Bft)
26.07.2018 03:07 13,8 °C 91 % 1012,6 hPa 0,0 mm 0,0 km/h (0 Bft) S-SO 168 ° 0 min 0,000 mm 0,0 UV-I 0 W/m² 12,4 °C 13,8 °C 0,0 km/h (0 Bft)
26.07.2018 03:08 13,9 °C 91 % 1012,7 hPa 0,0 mm 0,0 km/h (0 Bft) S-SO 168 ° 0 min 0,000 mm 0,0 UV-I 0 W/m² 12,5 °C 13,9 °C 0,0 km/h (0 Bft)
26.07.2018 03:09 13,9 °C 91 % 1012,6 hPa 0,0 mm 0,0 km/h (0 Bft) S-SO 168 ° 0 min 0,000 mm 0,0 UV-I 0 W/m² 12,5 °C 13,9 °C 0,0 km/h (0 Bft)
26.07.2018 03:10 13,9 °C 90 % 1012,7 hPa 0,0 mm 0,0 km/h (0 Bft) S-SO 168 ° 0 min 0,000 mm 0,0 UV-I 0 W/m² 12,3 °C 13,9 °C 0,0 km/h (0 Bft)
26.07.2018 03:11 14,0 °C 91 % 1012,7 hPa 0,0 mm 0,0 km/h (0 Bft) S-SO 168 ° 0 min 0,000 mm 0,0 UV-I 0 W/m² 12,6 °C 14,0 °C 0,0 km/h (0 Bft)
26.07.2018 03:12 14,0 °C 90 % 1012,7 hPa 0,0 mm 0,0 km/h (0 Bft) S-SO 168 ° 0 min 0,000 mm 0,0 UV-I 0 W/m² 12,4 °C 14,0 °C 0,0 km/h (0 Bft)
26.07.2018 03:13 13,9 °C 90 % 1012,7 hPa 0,0 mm 0,0 km/h (0 Bft) S-SO 168 ° 0 min 0,000 mm 0,0 UV-I 0 W/m² 12,3 °C 13,9 °C 0,0 km/h (0 Bft)
26.07.2018 03:14 13,9 °C 90 % 1012,7 hPa 0,0 mm 0,0 km/h (0 Bft) S-SO 168 ° 0 min 0,000 mm 0,0 UV-I 0 W/m² 12,3 °C 13,9 °C 0,0 km/h (0 Bft)
26.07.2018 03:15 13,9 °C 90 % 1012,7 hPa 0,0 mm 0,0 km/h (0 Bft) S-SO 168 ° 0 min 0,000 mm 0,0 UV-I 0 W/m² 12,3 °C 13,9 °C 0,0 km/h (0 Bft)
26.07.2018 03:16 13,9 °C 90 % 1012,7 hPa 0,0 mm 0,0 km/h (0 Bft) S-SO 168 ° 0 min 0,000 mm 0,0 UV-I 0 W/m² 12,3 °C 13,9 °C 0,0 km/h (0 Bft)
26.07.2018 03:17 13,9 °C 90 % 1012,7 hPa 0,0 mm 0,0 km/h (0 Bft) S-SO 168 ° 0 min 0,000 mm 0,0 UV-I 0 W/m² 12,3 °C 13,9 °C 0,0 km/h (0 Bft)
26.07.2018 03:18 13,9 °C 90 % 1012,7 hPa 0,0 mm 0,0 km/h (0 Bft) S-SO 168 ° 0 min 0,000 mm 0,0 UV-I 0 W/m² 12,3 °C 13,9 °C 0,0 km/h (0 Bft)
26.07.2018 03:19 13,9 °C 90 % 1012,6 hPa 0,0 mm 0,0 km/h (0 Bft) S-SO 168 ° 0 min 0,000 mm 0,0 UV-I 0 W/m² 12,3 °C 13,9 °C 0,0 km/h (0 Bft)
26.07.2018 03:20 13,9 °C 90 % 1012,6 hPa 0,0 mm 0,0 km/h (0 Bft) S-SO 168 ° 0 min 0,000 mm 0,0 UV-I 0 W/m² 12,3 °C 13,9 °C 0,0 km/h (0 Bft)
26.07.2018 03:21 13,9 °C 90 % 1012,7 hPa 0,0 mm 0,0 km/h (0 Bft) S-SO 168 ° 0 min 0,000 mm 0,0 UV-I 0 W/m² 12,3 °C 13,9 °C 0,0 km/h (0 Bft)
26.07.2018 03:22 13,8 °C 90 % 1012,7 hPa 0,0 mm 0,0 km/h (0 Bft) S-SO 168 ° 0 min 0,000 mm 0,0 UV-I 0 W/m² 12,2 °C 13,8 °C 0,0 km/h (0 Bft)
26.07.2018 03:23 13,8 °C 90 % 1012,7 hPa 0,0 mm 0,0 km/h (0 Bft) S-SO 168 ° 0 min 0,000 mm 0,0 UV-I 0 W/m² 12,2 °C 13,8 °C 0,0 km/h (0 Bft)
26.07.2018 03:24 13,8 °C 90 % 1012,6 hPa 0,0 mm 0,0 km/h (0 Bft) S-SO 168 ° 0 min 0,000 mm 0,0 UV-I 0 W/m² 12,2 °C 13,8 °C 0,0 km/h (0 Bft)
26.07.2018 03:25 13,7 °C 90 % 1012,7 hPa 0,0 mm 0,0 km/h (0 Bft) S-SO 168 ° 0 min 0,000 mm 0,0 UV-I 0 W/m² 12,1 °C 13,7 °C 0,0 km/h (0 Bft)
26.07.2018 03:26 13,7 °C 90 % 1012,7 hPa 0,0 mm 0,0 km/h (0 Bft) S-SO 168 ° 0 min 0,000 mm 0,0 UV-I 0 W/m² 12,1 °C 13,7 °C 0,0 km/h (0 Bft)
26.07.2018 03:27 13,7 °C 90 % 1012,7 hPa 0,0 mm 0,0 km/h (0 Bft) S-SO 168 ° 0 min 0,000 mm 0,0 UV-I 0 W/m² 12,1 °C 13,7 °C 0,0 km/h (0 Bft)
26.07.2018 03:28 13,6 °C 91 % 1012,6 hPa 0,0 mm 0,0 km/h (0 Bft) S-SO 168 ° 0 min 0,000 mm 0,0 UV-I 0 W/m² 12,2 °C 13,6 °C 0,0 km/h (0 Bft)
26.07.2018 03:29 13,6 °C 91 % 1012,6 hPa 0,0 mm 0,0 km/h (0 Bft) S-SO 168 ° 0 min 0,000 mm 0,0 UV-I 0 W/m² 12,2 °C 13,6 °C 0,0 km/h (0 Bft)
26.07.2018 03:30 13,7 °C 91 % 1012,6 hPa 0,0 mm 0,0 km/h (0 Bft) S-SO 168 ° 0 min 0,000 mm 0,0 UV-I 0 W/m² 12,3 °C 13,7 °C 0,0 km/h (0 Bft)
26.07.2018 03:31 13,7 °C 91 % 1012,7 hPa 0,0 mm 0,0 km/h (0 Bft) S-SO 168 ° 0 min 0,000 mm 0,0 UV-I 0 W/m² 12,3 °C 13,7 °C 0,0 km/h (0 Bft)
26.07.2018 03:32 13,8 °C 91 % 1012,6 hPa 0,0 mm 0,0 km/h (0 Bft) S-SO 168 ° 0 min 0,000 mm 0,0 UV-I 0 W/m² 12,4 °C 13,8 °C 0,0 km/h (0 Bft)
26.07.2018 03:33 13,8 °C 90 % 1012,6 hPa 0,0 mm 0,0 km/h (0 Bft) S-SO 168 ° 0 min 0,000 mm 0,0 UV-I 0 W/m² 12,2 °C 13,8 °C 0,0 km/h (0 Bft)
26.07.2018 03:34 13,9 °C 90 % 1012,6 hPa 0,0 mm 0,0 km/h (0 Bft) S-SO 168 ° 0 min 0,000 mm 0,0 UV-I 0 W/m² 12,3 °C 13,9 °C 0,0 km/h (0 Bft)
26.07.2018 03:35 13,8 °C 90 % 1012,6 hPa 0,0 mm 0,0 km/h (0 Bft) S-SO 168 ° 0 min 0,000 mm 0,0 UV-I 0 W/m² 12,2 °C 13,8 °C 0,0 km/h (0 Bft)
26.07.2018 03:36 13,8 °C 90 % 1012,6 hPa 0,0 mm 0,0 km/h (0 Bft) S-SO 168 ° 0 min 0,000 mm 0,0 UV-I 0 W/m² 12,2 °C 13,8 °C 0,0 km/h (0 Bft)
26.07.2018 03:37 13,8 °C 90 % 1012,6 hPa 0,0 mm 0,0 km/h (0 Bft) S-SO 168 ° 0 min 0,000 mm 0,0 UV-I 0 W/m² 12,2 °C 13,8 °C 0,0 km/h (0 Bft)
26.07.2018 03:38 13,8 °C 90 % 1012,6 hPa 0,0 mm 0,0 km/h (0 Bft) S-SO 168 ° 0 min 0,000 mm 0,0 UV-I 0 W/m² 12,2 °C 13,8 °C 0,0 km/h (0 Bft)
26.07.2018 03:39 13,8 °C 90 % 1012,6 hPa 0,0 mm 0,0 km/h (0 Bft) S-SO 168 ° 0 min 0,000 mm 0,0 UV-I 0 W/m² 12,2 °C 13,8 °C 0,0 km/h (0 Bft)
26.07.2018 03:40 13,7 °C 90 % 1012,7 hPa 0,0 mm 0,0 km/h (0 Bft) S-SO 168 ° 0 min 0,000 mm 0,0 UV-I 0 W/m² 12,1 °C 13,7 °C 0,0 km/h (0 Bft)
26.07.2018 03:41 13,7 °C 90 % 1012,6 hPa 0,0 mm 0,0 km/h (0 Bft) S-SO 168 ° 0 min 0,000 mm 0,0 UV-I 0 W/m² 12,1 °C 13,7 °C 0,0 km/h (0 Bft)
26.07.2018 03:42 13,7 °C 91 % 1012,6 hPa 0,0 mm 0,0 km/h (0 Bft) S-SO 168 ° 0 min 0,000 mm 0,0 UV-I 0 W/m² 12,3 °C 13,7 °C 0,0 km/h (0 Bft)
26.07.2018 03:43 13,6 °C 90 % 1012,7 hPa 0,0 mm 0,0 km/h (0 Bft) S-SO 168 ° 0 min 0,000 mm 0,0 UV-I 0 W/m² 12,0 °C 13,6 °C 0,0 km/h (0 Bft)
26.07.2018 03:44 13,6 °C 91 % 1012,7 hPa 0,0 mm 0,0 km/h (0 Bft) S-SO 168 ° 0 min 0,000 mm 0,0 UV-I 0 W/m² 12,2 °C 13,6 °C 0,0 km/h (0 Bft)
26.07.2018 03:45 13,6 °C 91 % 1012,7 hPa 0,0 mm 0,0 km/h (0 Bft) S-SO 168 ° 0 min 0,000 mm 0,0 UV-I 0 W/m² 12,2 °C 13,6 °C 0,0 km/h (0 Bft)
26.07.2018 03:46 13,6 °C 91 % 1012,7 hPa 0,0 mm 0,0 km/h (0 Bft) S-SO 168 ° 0 min 0,000 mm 0,0 UV-I 0 W/m² 12,2 °C 13,6 °C 0,0 km/h (0 Bft)
26.07.2018 03:47 13,6 °C 91 % 1012,7 hPa 0,0 mm 0,0 km/h (0 Bft) S-SO 168 ° 0 min 0,000 mm 0,0 UV-I 0 W/m² 12,2 °C 13,6 °C 0,0 km/h (0 Bft)
26.07.2018 03:48 13,6 °C 91 % 1012,6 hPa 0,0 mm 0,0 km/h (0 Bft) S-SO 168 ° 0 min 0,000 mm 0,0 UV-I 0 W/m² 12,2 °C 13,6 °C 0,0 km/h (0 Bft)
26.07.2018 03:49 13,6 °C 91 % 1012,7 hPa 0,0 mm 0,0 km/h (0 Bft) S-SO 168 ° 0 min 0,000 mm 0,0 UV-I 0 W/m² 12,2 °C 13,6 °C 0,0 km/h (0 Bft)
26.07.2018 03:50 13,6 °C 91 % 1012,7 hPa 0,0 mm 0,0 km/h (0 Bft) S-SO 168 ° 0 min 0,000 mm 0,0 UV-I 0 W/m² 12,2 °C 13,6 °C 0,0 km/h (0 Bft)
26.07.2018 03:51 13,6 °C 91 % 1012,6 hPa 0,0 mm 0,0 km/h (0 Bft) S-SO 168 ° 0 min 0,000 mm 0,0 UV-I 0 W/m² 12,2 °C 13,6 °C 0,0 km/h (0 Bft)
26.07.2018 03:52 13,5 °C 91 % 1012,6 hPa 0,0 mm 0,0 km/h (0 Bft) S-SO 168 ° 0 min 0,000 mm 0,0 UV-I 0 W/m² 12,1 °C 13,5 °C 0,0 km/h (0 Bft)
26.07.2018 03:53 13,5 °C 91 % 1012,6 hPa 0,0 mm 0,0 km/h (0 Bft) S-SO 168 ° 0 min 0,000 mm 0,0 UV-I 0 W/m² 12,1 °C 13,5 °C 0,0 km/h (0 Bft)
26.07.2018 03:54 13,4 °C 91 % 1012,6 hPa 0,0 mm 0,0 km/h (0 Bft) S-SO 168 ° 0 min 0,000 mm 0,0 UV-I 0 W/m² 12,0 °C 13,4 °C 0,0 km/h (0 Bft)
26.07.2018 03:55 13,4 °C 91 % 1012,6 hPa 0,0 mm 0,0 km/h (0 Bft) S-SO 168 ° 0 min 0,000 mm 0,0 UV-I 0 W/m² 12,0 °C 13,4 °C 0,0 km/h (0 Bft)
26.07.2018 03:56 13,4 °C 91 % 1012,6 hPa 0,0 mm 0,0 km/h (0 Bft) S-SO 168 ° 0 min 0,000 mm 0,0 UV-I 0 W/m² 12,0 °C 13,4 °C 0,0 km/h (0 Bft)
26.07.2018 03:57 13,3 °C 91 % 1012,6 hPa 0,0 mm 0,0 km/h (0 Bft) S-SO 168 ° 0 min 0,000 mm 0,0 UV-I 0 W/m² 11,9 °C 13,3 °C 0,0 km/h (0 Bft)
26.07.2018 03:58 13,3 °C 91 % 1012,6 hPa 0,0 mm 0,0 km/h (0 Bft) S-SO 168 ° 0 min 0,000 mm 0,0 UV-I 0 W/m² 11,9 °C 13,3 °C 0,0 km/h (0 Bft)
26.07.2018 03:59 13,2 °C 91 % 1012,6 hPa 0,0 mm 0,0 km/h (0 Bft) S-SO 168 ° 0 min 0,000 mm 0,0 UV-I 0 W/m² 11,8 °C 13,2 °C 0,0 km/h (0 Bft)
26.07.2018 04:00 13,2 °C 91 % 1012,6 hPa 0,0 mm 0,0 km/h (0 Bft) S-SO 168 ° 0 min 0,000 mm 0,0 UV-I 0 W/m² 11,8 °C 13,2 °C 0,0 km/h (0 Bft)
26.07.2018 04:01 13,2 °C 91 % 1012,6 hPa 0,0 mm 0,0 km/h (0 Bft) S-SO 168 ° 0 min 0,000 mm 0,0 UV-I 0 W/m² 11,8 °C 13,2 °C 0,0 km/h (0 Bft)
26.07.2018 04:02 13,1 °C 91 % 1012,5 hPa 0,0 mm 0,0 km/h (0 Bft) S-SO 168 ° 0 min 0,000 mm 0,0 UV-I 0 W/m² 11,7 °C 13,1 °C 0,0 km/h (0 Bft)
26.07.2018 04:03 13,1 °C 91 % 1012,5 hPa 0,0 mm 0,0 km/h (0 Bft) S-SO 168 ° 0 min 0,000 mm 0,0 UV-I 0 W/m² 11,7 °C 13,1 °C 0,0 km/h (0 Bft)
26.07.2018 04:04 13,1 °C 91 % 1012,5 hPa 0,0 mm 0,0 km/h (0 Bft) S-SO 168 ° 0 min 0,000 mm 0,0 UV-I 0 W/m² 11,7 °C 13,1 °C 0,0 km/h (0 Bft)
26.07.2018 04:05 13,1 °C 92 % 1012,5 hPa 0,0 mm 0,0 km/h (0 Bft) S-SO 168 ° 0 min 0,000 mm 0,0 UV-I 0 W/m² 11,8 °C 13,1 °C 0,0 km/h (0 Bft)
26.07.2018 04:06 13,1 °C 92 % 1012,5 hPa 0,0 mm 0,0 km/h (0 Bft) S-SO 168 ° 0 min 0,000 mm 0,0 UV-I 0 W/m² 11,8 °C 13,1 °C 0,0 km/h (0 Bft)
26.07.2018 04:07 13,1 °C 92 % 1012,5 hPa 0,0 mm 0,0 km/h (0 Bft) S-SO 168 ° 0 min 0,000 mm 0,0 UV-I 0 W/m² 11,8 °C 13,1 °C 0,0 km/h (0 Bft)
26.07.2018 04:08 13,0 °C 92 % 1012,5 hPa 0,0 mm 0,0 km/h (0 Bft) S-SO 168 ° 0 min 0,000 mm 0,0 UV-I 0 W/m² 11,7 °C 13,0 °C 0,0 km/h (0 Bft)
26.07.2018 04:09 13,0 °C 92 % 1012,5 hPa 0,0 mm 0,1 km/h (0 Bft) S-SO 168 ° 0 min 0,000 mm 0,0 UV-I 0 W/m² 11,7 °C 13,0 °C 1,6 km/h (1 Bft)
26.07.2018 04:10 13,1 °C 92 % 1012,5 hPa 0,0 mm 0,0 km/h (0 Bft) S-SO 168 ° 0 min 0,000 mm 0,0 UV-I 0 W/m² 11,8 °C 13,1 °C 0,0 km/h (0 Bft)
26.07.2018 04:11 13,0 °C 92 % 1012,5 hPa 0,0 mm 0,0 km/h (0 Bft) S-SO 168 ° 0 min 0,000 mm 0,0 UV-I 0 W/m² 11,7 °C 13,0 °C 0,0 km/h (0 Bft)
26.07.2018 04:12 13,1 °C 92 % 1012,5 hPa 0,0 mm 0,0 km/h (0 Bft) S-SO 168 ° 0 min 0,000 mm 0,0 UV-I 0 W/m² 11,8 °C 13,1 °C 0,0 km/h (0 Bft)
26.07.2018 04:13 13,1 °C 92 % 1012,5 hPa 0,0 mm 0,0 km/h (0 Bft) S-SO 168 ° 0 min 0,000 mm 0,0 UV-I 0 W/m² 11,8 °C 13,1 °C 0,0 km/h (0 Bft)
26.07.2018 04:14 13,1 °C 92 % 1012,5 hPa 0,0 mm 0,0 km/h (0 Bft) S-SO 168 ° 0 min 0,000 mm 0,0 UV-I 0 W/m² 11,8 °C 13,1 °C 0,0 km/h (0 Bft)
26.07.2018 04:15 13,1 °C 92 % 1012,5 hPa 0,0 mm 0,0 km/h (0 Bft) S-SO 168 ° 0 min 0,000 mm 0,0 UV-I 0 W/m² 11,8 °C 13,1 °C 0,0 km/h (0 Bft)
26.07.2018 04:16 13,1 °C 92 % 1012,5 hPa 0,0 mm 0,0 km/h (0 Bft) S-SO 168 ° 0 min 0,000 mm 0,0 UV-I 0 W/m² 11,8 °C 13,1 °C 0,0 km/h (0 Bft)
26.07.2018 04:17 13,2 °C 92 % 1012,5 hPa 0,0 mm 0,1 km/h (0 Bft) S-SO 168 ° 0 min 0,000 mm 0,0 UV-I 0 W/m² 11,9 °C 13,2 °C 1,6 km/h (1 Bft)
26.07.2018 04:18 13,3 °C 92 % 1012,6 hPa 0,0 mm 0,0 km/h (0 Bft) S-SO 168 ° 0 min 0,000 mm 0,0 UV-I 0 W/m² 12,0 °C 13,3 °C 0,0 km/h (0 Bft)
26.07.2018 04:19 13,3 °C 92 % 1012,6 hPa 0,0 mm 0,0 km/h (0 Bft) S-SO 168 ° 0 min 0,000 mm 0,0 UV-I 0 W/m² 12,0 °C 13,3 °C 0,0 km/h (0 Bft)
26.07.2018 04:20 13,3 °C 92 % 1012,5 hPa 0,0 mm 0,0 km/h (0 Bft) S-SO 168 ° 0 min 0,000 mm 0,0 UV-I 0 W/m² 12,0 °C 13,3 °C 0,0 km/h (0 Bft)
26.07.2018 04:21 13,4 °C 92 % 1012,5 hPa 0,0 mm 0,0 km/h (0 Bft) S-SO 168 ° 0 min 0,000 mm 0,0 UV-I 0 W/m² 12,1 °C 13,4 °C 0,0 km/h (0 Bft)
26.07.2018 04:22 13,4 °C 91 % 1012,6 hPa 0,0 mm 0,0 km/h (0 Bft) S-SO 168 ° 0 min 0,000 mm 0,0 UV-I 0 W/m² 12,0 °C 13,4 °C 0,0 km/h (0 Bft)
26.07.2018 04:23 13,5 °C 91 % 1012,6 hPa 0,0 mm 0,0 km/h (0 Bft) S-SO 168 ° 0 min 0,000 mm 0,0 UV-I 0 W/m² 12,1 °C 13,5 °C 0,0 km/h (0 Bft)
26.07.2018 04:24 13,5 °C 91 % 1012,5 hPa 0,0 mm 0,0 km/h (0 Bft) S-SO 168 ° 0 min 0,000 mm 0,0 UV-I 0 W/m² 12,1 °C 13,5 °C 0,0 km/h (0 Bft)
26.07.2018 04:25 13,5 °C 91 % 1012,6 hPa 0,0 mm 0,0 km/h (0 Bft) S-SO 168 ° 0 min 0,000 mm 0,0 UV-I 0 W/m² 12,1 °C 13,5 °C 0,0 km/h (0 Bft)
26.07.2018 04:26 13,4 °C 91 % 1012,6 hPa 0,0 mm 0,0 km/h (0 Bft) S-SO 168 ° 0 min 0,000 mm 0,0 UV-I 0 W/m² 12,0 °C 13,4 °C 0,0 km/h (0 Bft)
26.07.2018 04:27 13,4 °C 91 % 1012,6 hPa 0,0 mm 0,0 km/h (0 Bft) S-SO 168 ° 0 min 0,000 mm 0,0 UV-I 0 W/m² 12,0 °C 13,4 °C 0,0 km/h (0 Bft)
26.07.2018 04:28 13,3 °C 91 % 1012,6 hPa 0,0 mm 0,0 km/h (0 Bft) S-SO 168 ° 0 min 0,000 mm 0,0 UV-I 0 W/m² 11,9 °C 13,3 °C 0,0 km/h (0 Bft)
26.07.2018 04:29 13,2 °C 91 % 1012,6 hPa 0,0 mm 0,0 km/h (0 Bft) S-SO 168 ° 0 min 0,000 mm 0,0 UV-I 0 W/m² 11,8 °C 13,2 °C 0,0 km/h (0 Bft)
26.07.2018 04:30 13,2 °C 91 % 1012,6 hPa 0,0 mm 0,7 km/h (0 Bft) S-SO 168 ° 0 min 0,000 mm 0,0 UV-I 0 W/m² 11,8 °C 13,2 °C 3,2 km/h (1 Bft)
26.07.2018 04:31 13,2 °C 91 % 1012,6 hPa 0,0 mm 0,1 km/h (0 Bft) S-SO 168 ° 0 min 0,000 mm 0,0 UV-I 0 W/m² 11,8 °C 13,2 °C 1,6 km/h (1 Bft)
26.07.2018 04:32 13,2 °C 91 % 1012,6 hPa 0,0 mm 0,0 km/h (0 Bft) S-SO 168 ° 0 min 0,000 mm 0,0 UV-I 0 W/m² 11,8 °C 13,2 °C 0,0 km/h (0 Bft)
26.07.2018 04:33 13,2 °C 91 % 1012,6 hPa 0,0 mm 0,0 km/h (0 Bft) S-SO 168 ° 0 min 0,000 mm 0,0 UV-I 0 W/m² 11,8 °C 13,2 °C 0,0 km/h (0 Bft)
26.07.2018 04:34 13,2 °C 91 % 1012,6 hPa 0,0 mm 0,1 km/h (0 Bft) S-SO 168 ° 0 min 0,000 mm 0,0 UV-I 0 W/m² 11,8 °C 13,2 °C 1,6 km/h (1 Bft)
26.07.2018 04:35 13,2 °C 91 % 1012,6 hPa 0,0 mm 0,0 km/h (0 Bft) S-SO 168 ° 0 min 0,000 mm 0,0 UV-I 0 W/m² 11,8 °C 13,2 °C 0,0 km/h (0 Bft)
26.07.2018 04:36 13,2 °C 91 % 1012,6 hPa 0,0 mm 0,0 km/h (0 Bft) S-SO 168 ° 0 min 0,000 mm 0,0 UV-I 0 W/m² 11,8 °C 13,2 °C 0,0 km/h (0 Bft)
26.07.2018 04:37 13,1 °C 91 % 1012,6 hPa 0,0 mm 1,1 km/h (1 Bft) S-SO 168 ° 0 min 0,000 mm 0,0 UV-I 0 W/m² 11,7 °C 13,1 °C 1,6 km/h (1 Bft)
26.07.2018 04:38 13,0 °C 91 % 1012,6 hPa 0,0 mm 0,6 km/h (0 Bft) S-SO 168 ° 0 min 0,000 mm 0,0 UV-I 0 W/m² 11,6 °C 13,0 °C 1,6 km/h (1 Bft)
26.07.2018 04:39 12,9 °C 91 % 1012,6 hPa 0,0 mm 1,5 km/h (1 Bft) S-SO 168 ° 0 min 0,000 mm 0,0 UV-I 0 W/m² 11,5 °C 12,9 °C 3,2 km/h (1 Bft)
26.07.2018 04:40 12,9 °C 91 % 1012,6 hPa 0,0 mm 0,3 km/h (0 Bft) S-SO 168 ° 0 min 0,000 mm 0,0 UV-I 0 W/m² 11,5 °C 12,9 °C 1,6 km/h (1 Bft)
26.07.2018 04:41 12,9 °C 91 % 1012,6 hPa 0,0 mm 0,0 km/h (0 Bft) S-SO 168 ° 0 min 0,000 mm 0,0 UV-I 0 W/m² 11,5 °C 12,9 °C 0,0 km/h (0 Bft)
26.07.2018 04:42 12,9 °C 91 % 1012,6 hPa 0,0 mm 0,0 km/h (0 Bft) S-SO 168 ° 0 min 0,000 mm 0,0 UV-I 0 W/m² 11,5 °C 12,9 °C 0,0 km/h (0 Bft)
26.07.2018 04:43 12,9 °C 92 % 1012,6 hPa 0,0 mm 0,0 km/h (0 Bft) S-SO 168 ° 0 min 0,000 mm 0,0 UV-I 0 W/m² 11,6 °C 12,9 °C 0,0 km/h (0 Bft)
26.07.2018 04:44 12,9 °C 92 % 1012,6 hPa 0,0 mm 0,0 km/h (0 Bft) S-SO 168 ° 0 min 0,000 mm 0,0 UV-I 0 W/m² 11,6 °C 12,9 °C 0,0 km/h (0 Bft)
26.07.2018 04:45 12,9 °C 92 % 1012,5 hPa 0,0 mm 0,0 km/h (0 Bft) S-SO 168 ° 0 min 0,000 mm 0,0 UV-I 0 W/m² 11,6 °C 12,9 °C 0,0 km/h (0 Bft)
26.07.2018 04:46 12,9 °C 92 % 1012,5 hPa 0,0 mm 0,0 km/h (0 Bft) S-SO 168 ° 0 min 0,000 mm 0,0 UV-I 0 W/m² 11,6 °C 12,9 °C 0,0 km/h (0 Bft)
26.07.2018 04:47 12,9 °C 92 % 1012,6 hPa 0,0 mm 0,0 km/h (0 Bft) S-SO 168 ° 0 min 0,000 mm 0,0 UV-I 0 W/m² 11,6 °C 12,9 °C 0,0 km/h (0 Bft)
26.07.2018 04:48 12,9 °C 91 % 1012,6 hPa 0,0 mm 0,0 km/h (0 Bft) S-SO 168 ° 0 min 0,000 mm 0,0 UV-I 0 W/m² 11,5 °C 12,9 °C 0,0 km/h (0 Bft)
26.07.2018 04:49 12,9 °C 92 % 1012,6 hPa 0,0 mm 0,0 km/h (0 Bft) S-SO 168 ° 0 min 0,000 mm 0,0 UV-I 0 W/m² 11,6 °C 12,9 °C 0,0 km/h (0 Bft)
26.07.2018 04:50 12,9 °C 92 % 1012,6 hPa 0,0 mm 0,0 km/h (0 Bft) S-SO 168 ° 0 min 0,000 mm 0,0 UV-I 0 W/m² 11,6 °C 12,9 °C 0,0 km/h (0 Bft)
26.07.2018 04:51 12,9 °C 92 % 1012,6 hPa 0,0 mm 0,0 km/h (0 Bft) S-SO 168 ° 0 min 0,000 mm 0,0 UV-I 0 W/m² 11,6 °C 12,9 °C 0,0 km/h (0 Bft)
26.07.2018 04:52 12,9 °C 92 % 1012,6 hPa 0,0 mm 0,0 km/h (0 Bft) S-SO 168 ° 0 min 0,000 mm 0,0 UV-I 0 W/m² 11,6 °C 12,9 °C 0,0 km/h (0 Bft)
26.07.2018 04:53 12,8 °C 92 % 1012,5 hPa 0,0 mm 0,0 km/h (0 Bft) S-SO 168 ° 0 min 0,000 mm 0,0 UV-I 0 W/m² 11,5 °C 12,8 °C 0,0 km/h (0 Bft)
26.07.2018 04:54 12,8 °C 92 % 1012,5 hPa 0,0 mm 0,0 km/h (0 Bft) S-SO 168 ° 0 min 0,000 mm 0,0 UV-I 0 W/m² 11,5 °C 12,8 °C 0,0 km/h (0 Bft)
26.07.2018 04:55 12,8 °C 92 % 1012,5 hPa 0,0 mm 0,0 km/h (0 Bft) S-SO 168 ° 0 min 0,000 mm 0,0 UV-I 0 W/m² 11,5 °C 12,8 °C 0,0 km/h (0 Bft)
26.07.2018 04:56 12,8 °C 92 % 1012,5 hPa 0,0 mm 0,0 km/h (0 Bft) S-SO 168 ° 0 min 0,000 mm 0,0 UV-I 0 W/m² 11,5 °C 12,8 °C 0,0 km/h (0 Bft)
26.07.2018 04:57 12,8 °C 92 % 1012,5 hPa 0,0 mm 0,0 km/h (0 Bft) S-SO 168 ° 0 min 0,000 mm 0,0 UV-I 0 W/m² 11,5 °C 12,8 °C 0,0 km/h (0 Bft)
26.07.2018 04:58 12,7 °C 92 % 1012,5 hPa 0,0 mm 0,0 km/h (0 Bft) S-SO 168 ° 0 min 0,000 mm 0,0 UV-I 0 W/m² 11,4 °C 12,7 °C 0,0 km/h (0 Bft)
26.07.2018 04:59 12,6 °C 92 % 1012,5 hPa 0,0 mm 0,0 km/h (0 Bft) S-SO 168 ° 0 min 0,000 mm 0,0 UV-I 0 W/m² 11,3 °C 12,6 °C 0,0 km/h (0 Bft)
26.07.2018 05:00 12,6 °C 92 % 1012,5 hPa 0,0 mm 0,0 km/h (0 Bft) S-SO 168 ° 0 min 0,000 mm 0,0 UV-I 0 W/m² 11,3 °C 12,6 °C 0,0 km/h (0 Bft)
26.07.2018 05:01 12,5 °C 92 % 1012,6 hPa 0,0 mm 0,0 km/h (0 Bft) S-SO 168 ° 0 min 0,000 mm 0,0 UV-I 0 W/m² 11,2 °C 12,5 °C 0,0 km/h (0 Bft)
26.07.2018 05:02 12,5 °C 92 % 1012,6 hPa 0,0 mm 0,0 km/h (0 Bft) S-SO 168 ° 0 min 0,000 mm 0,0 UV-I 0 W/m² 11,2 °C 12,5 °C 0,0 km/h (0 Bft)
26.07.2018 05:03 12,4 °C 92 % 1012,6 hPa 0,0 mm 0,0 km/h (0 Bft) S-SO 168 ° 0 min 0,000 mm 0,0 UV-I 0 W/m² 11,1 °C 12,4 °C 0,0 km/h (0 Bft)
26.07.2018 05:04 12,5 °C 92 % 1012,6 hPa 0,0 mm 0,0 km/h (0 Bft) S-SO 168 ° 0 min 0,000 mm 0,0 UV-I 0 W/m² 11,2 °C 12,5 °C 0,0 km/h (0 Bft)
26.07.2018 05:05 12,5 °C 92 % 1012,6 hPa 0,0 mm 0,0 km/h (0 Bft) S-SO 168 ° 0 min 0,000 mm 0,0 UV-I 0 W/m² 11,2 °C 12,5 °C 0,0 km/h (0 Bft)
26.07.2018 05:06 12,4 °C 92 % 1012,6 hPa 0,0 mm 0,0 km/h (0 Bft) S-SO 168 ° 0 min 0,000 mm 0,0 UV-I 0 W/m² 11,1 °C 12,4 °C 0,0 km/h (0 Bft)
26.07.2018 05:07 12,4 °C 93 % 1012,6 hPa 0,0 mm 0,0 km/h (0 Bft) S-SO 168 ° 0 min 0,000 mm 0,0 UV-I 0 W/m² 11,3 °C 12,4 °C 0,0 km/h (0 Bft)
26.07.2018 05:08 12,4 °C 93 % 1012,6 hPa 0,0 mm 0,0 km/h (0 Bft) S-SO 168 ° 0 min 0,000 mm 0,0 UV-I 0 W/m² 11,3 °C 12,4 °C 0,0 km/h (0 Bft)
26.07.2018 05:09 12,4 °C 93 % 1012,6 hPa 0,0 mm 0,0 km/h (0 Bft) S-SO 168 ° 0 min 0,000 mm 0,0 UV-I 0 W/m² 11,3 °C 12,4 °C 0,0 km/h (0 Bft)
26.07.2018 05:10 12,4 °C 93 % 1012,6 hPa 0,0 mm 0,0 km/h (0 Bft) S-SO 168 ° 0 min 0,000 mm 0,0 UV-I 0 W/m² 11,3 °C 12,4 °C 0,0 km/h (0 Bft)
26.07.2018 05:11 12,4 °C 93 % 1012,6 hPa 0,0 mm 0,0 km/h (0 Bft) S-SO 168 ° 0 min 0,000 mm 0,0 UV-I 0 W/m² 11,3 °C 12,4 °C 0,0 km/h (0 Bft)
26.07.2018 05:12 12,4 °C 93 % 1012,5 hPa 0,0 mm 0,0 km/h (0 Bft) S-SO 168 ° 0 min 0,000 mm 0,0 UV-I 0 W/m² 11,3 °C 12,4 °C 0,0 km/h (0 Bft)
26.07.2018 05:13 12,4 °C 93 % 1012,5 hPa 0,0 mm 0,0 km/h (0 Bft) S-SO 168 ° 0 min 0,000 mm 0,0 UV-I 0 W/m² 11,3 °C 12,4 °C 0,0 km/h (0 Bft)
26.07.2018 05:14 12,4 °C 93 % 1012,6 hPa 0,0 mm 0,0 km/h (0 Bft) S-SO 168 ° 0 min 0,000 mm 0,0 UV-I 0 W/m² 11,3 °C 12,4 °C 0,0 km/h (0 Bft)
26.07.2018 05:15 12,4 °C 93 % 1012,6 hPa 0,0 mm 0,0 km/h (0 Bft) S-SO 168 ° 0 min 0,000 mm 0,0 UV-I 0 W/m² 11,3 °C 12,4 °C 0,0 km/h (0 Bft)
26.07.2018 05:16 12,4 °C 93 % 1012,5 hPa 0,0 mm 0,0 km/h (0 Bft) S-SO 168 ° 0 min 0,000 mm 0,0 UV-I 0 W/m² 11,3 °C 12,4 °C 0,0 km/h (0 Bft)
26.07.2018 05:17 12,5 °C 93 % 1012,5 hPa 0,0 mm 0,0 km/h (0 Bft) S-SO 168 ° 0 min 0,000 mm 0,0 UV-I 0 W/m² 11,4 °C 12,5 °C 0,0 km/h (0 Bft)
26.07.2018 05:18 12,4 °C 93 % 1012,5 hPa 0,0 mm 0,0 km/h (0 Bft) S-SO 168 ° 0 min 0,000 mm 0,0 UV-I 0 W/m² 11,3 °C 12,4 °C 0,0 km/h (0 Bft)
26.07.2018 05:19 12,4 °C 93 % 1012,6 hPa 0,0 mm 0,0 km/h (0 Bft) S-SO 168 ° 0 min 0,000 mm 0,0 UV-I 0 W/m² 11,3 °C 12,4 °C 0,0 km/h (0 Bft)
26.07.2018 05:20 12,4 °C 93 % 1012,5 hPa 0,0 mm 0,0 km/h (0 Bft) S-SO 168 ° 0 min 0,000 mm 0,0 UV-I 0 W/m² 11,3 °C 12,4 °C 0,0 km/h (0 Bft)
26.07.2018 05:21 12,3 °C 93 % 1012,5 hPa 0,0 mm 0,0 km/h (0 Bft) S-SO 168 ° 0 min 0,000 mm 0,0 UV-I 0 W/m² 11,2 °C 12,3 °C 0,0 km/h (0 Bft)
26.07.2018 05:22 12,4 °C 93 % 1012,5 hPa 0,0 mm 0,0 km/h (0 Bft) S-SO 168 ° 0 min 0,000 mm 0,0 UV-I 0 W/m² 11,3 °C 12,4 °C 0,0 km/h (0 Bft)
26.07.2018 05:23 12,4 °C 93 % 1012,5 hPa 0,0 mm 0,0 km/h (0 Bft) S-SO 168 ° 0 min 0,000 mm 0,0 UV-I 0 W/m² 11,3 °C 12,4 °C 0,0 km/h (0 Bft)
26.07.2018 05:24 12,6 °C 93 % 1012,5 hPa 0,0 mm 0,0 km/h (0 Bft) S-SO 168 ° 0 min 0,000 mm 0,0 UV-I 0 W/m² 11,5 °C 12,6 °C 0,0 km/h (0 Bft)
26.07.2018 05:25 12,6 °C 93 % 1012,5 hPa 0,0 mm 0,0 km/h (0 Bft) S-SO 168 ° 0 min 0,000 mm 0,0 UV-I 0 W/m² 11,5 °C 12,6 °C 0,0 km/h (0 Bft)
26.07.2018 05:26 12,7 °C 93 % 1012,5 hPa 0,0 mm 0,0 km/h (0 Bft) S-SO 168 ° 0 min 0,000 mm 0,0 UV-I 0 W/m² 11,6 °C 12,7 °C 0,0 km/h (0 Bft)
26.07.2018 05:27 12,8 °C 93 % 1012,5 hPa 0,0 mm 0,0 km/h (0 Bft) S-SO 168 ° 0 min 0,000 mm 0,0 UV-I 0 W/m² 11,7 °C 12,8 °C 0,0 km/h (0 Bft)
26.07.2018 05:28 12,8 °C 93 % 1012,5 hPa 0,0 mm 0,0 km/h (0 Bft) S-SO 168 ° 0 min 0,000 mm 0,0 UV-I 0 W/m² 11,7 °C 12,8 °C 0,0 km/h (0 Bft)
26.07.2018 05:29 12,8 °C 93 % 1012,6 hPa 0,0 mm 0,0 km/h (0 Bft) S-SO 168 ° 0 min 0,000 mm 0,0 UV-I 0 W/m² 11,7 °C 12,8 °C 0,0 km/h (0 Bft)
26.07.2018 05:30 12,8 °C 93 % 1012,6 hPa 0,0 mm 0,0 km/h (0 Bft) S-SO 168 ° 0 min 0,000 mm 0,0 UV-I 0 W/m² 11,7 °C 12,8 °C 0,0 km/h (0 Bft)
26.07.2018 05:31 12,8 °C 92 % 1012,6 hPa 0,0 mm 0,0 km/h (0 Bft) S-SO 168 ° 0 min 0,000 mm 0,0 UV-I 0 W/m² 11,5 °C 12,8 °C 0,0 km/h (0 Bft)
26.07.2018 05:32 12,8 °C 92 % 1012,6 hPa 0,0 mm 0,0 km/h (0 Bft) S-SO 168 ° 0 min 0,000 mm 0,0 UV-I 0 W/m² 11,5 °C 12,8 °C 0,0 km/h (0 Bft)
26.07.2018 05:33 12,8 °C 92 % 1012,6 hPa 0,0 mm 0,0 km/h (0 Bft) S-SO 168 ° 0 min 0,000 mm 0,0 UV-I 0 W/m² 11,5 °C 12,8 °C 0,0 km/h (0 Bft)
26.07.2018 05:34 12,9 °C 92 % 1012,6 hPa 0,0 mm 0,0 km/h (0 Bft) S-SO 168 ° 0 min 0,000 mm 0,0 UV-I 0 W/m² 11,6 °C 12,9 °C 0,0 km/h (0 Bft)
26.07.2018 05:35 12,9 °C 92 % 1012,6 hPa 0,0 mm 0,0 km/h (0 Bft) S-SO 168 ° 0 min 0,000 mm 0,0 UV-I 0 W/m² 11,6 °C 12,9 °C 0,0 km/h (0 Bft)
26.07.2018 05:36 12,9 °C 92 % 1012,6 hPa 0,0 mm 0,0 km/h (0 Bft) S-SO 168 ° 0 min 0,000 mm 0,0 UV-I 0 W/m² 11,6 °C 12,9 °C 0,0 km/h (0 Bft)
26.07.2018 05:37 13,0 °C 92 % 1012,5 hPa 0,0 mm 0,0 km/h (0 Bft) S-SO 168 ° 0 min 0,000 mm 0,0 UV-I 0 W/m² 11,7 °C 13,0 °C 0,0 km/h (0 Bft)
26.07.2018 05:38 13,0 °C 92 % 1012,5 hPa 0,0 mm 0,0 km/h (0 Bft) S-SO 168 ° 0 min 0,000 mm 0,0 UV-I 0 W/m² 11,7 °C 13,0 °C 0,0 km/h (0 Bft)
26.07.2018 05:39 13,0 °C 92 % 1012,5 hPa 0,0 mm 0,0 km/h (0 Bft) S-SO 168 ° 0 min 0,000 mm 0,0 UV-I 0 W/m² 11,7 °C 13,0 °C 0,0 km/h (0 Bft)
26.07.2018 05:40 12,9 °C 92 % 1012,5 hPa 0,0 mm 0,0 km/h (0 Bft) S-SO 168 ° 0 min 0,000 mm 0,0 UV-I 0 W/m² 11,6 °C 12,9 °C 0,0 km/h (0 Bft)
26.07.2018 05:41 12,9 °C 91 % 1012,5 hPa 0,0 mm 0,0 km/h (0 Bft) S-SO 168 ° 0 min 0,000 mm 0,0 UV-I 0 W/m² 11,5 °C 12,9 °C 0,0 km/h (0 Bft)
26.07.2018 05:42 12,8 °C 91 % 1012,5 hPa 0,0 mm 0,0 km/h (0 Bft) S-SO 168 ° 0 min 0,000 mm 0,0 UV-I 0 W/m² 11,4 °C 12,8 °C 0,0 km/h (0 Bft)
26.07.2018 05:43 12,8 °C 91 % 1012,5 hPa 0,0 mm 0,0 km/h (0 Bft) S-SO 168 ° 0 min 0,000 mm 0,0 UV-I 0 W/m² 11,4 °C 12,8 °C 0,0 km/h (0 Bft)
26.07.2018 05:44 12,8 °C 91 % 1012,5 hPa 0,0 mm 0,0 km/h (0 Bft) S-SO 168 ° 0 min 0,000 mm 0,0 UV-I 0 W/m² 11,4 °C 12,8 °C 0,0 km/h (0 Bft)
26.07.2018 05:45 12,8 °C 92 % 1012,5 hPa 0,0 mm 0,0 km/h (0 Bft) S-SO 168 ° 0 min 0,000 mm 0,0 UV-I 0 W/m² 11,5 °C 12,8 °C 0,0 km/h (0 Bft)
26.07.2018 05:46 12,8 °C 92 % 1012,5 hPa 0,0 mm 0,0 km/h (0 Bft) S-SO 168 ° 0 min 0,000 mm 0,0 UV-I 0 W/m² 11,5 °C 12,8 °C 0,0 km/h (0 Bft)
26.07.2018 05:47 12,8 °C 92 % 1012,5 hPa 0,0 mm 0,0 km/h (0 Bft) S-SO 168 ° 0 min 0,000 mm 0,0 UV-I 0 W/m² 11,5 °C 12,8 °C 0,0 km/h (0 Bft)
26.07.2018 05:48 12,7 °C 92 % 1012,5 hPa 0,0 mm 0,0 km/h (0 Bft) S-SO 168 ° 0 min 0,000 mm 0,0 UV-I 0 W/m² 11,4 °C 12,7 °C 0,0 km/h (0 Bft)
26.07.2018 05:49 12,7 °C 92 % 1012,5 hPa 0,0 mm 0,0 km/h (0 Bft) S-SO 168 ° 0 min 0,000 mm 0,0 UV-I 5 W/m² 11,4 °C 12,7 °C 0,0 km/h (0 Bft)
26.07.2018 05:50 12,6 °C 92 % 1012,5 hPa 0,0 mm 0,0 km/h (0 Bft) S-SO 168 ° 0 min 0,000 mm 0,0 UV-I 5 W/m² 11,3 °C 12,6 °C 0,0 km/h (0 Bft)
26.07.2018 05:51 12,6 °C 92 % 1012,5 hPa 0,0 mm 0,0 km/h (0 Bft) S-SO 168 ° 0 min 0,000 mm 0,0 UV-I 5 W/m² 11,3 °C 12,6 °C 0,0 km/h (0 Bft)
26.07.2018 05:52 12,6 °C 92 % 1012,5 hPa 0,0 mm 0,0 km/h (0 Bft) S-SO 168 ° 0 min 0,000 mm 0,0 UV-I 5 W/m² 11,3 °C 12,6 °C 0,0 km/h (0 Bft)
26.07.2018 05:53 12,6 °C 92 % 1012,5 hPa 0,0 mm 0,0 km/h (0 Bft) S-SO 168 ° 0 min 0,000 mm 0,0 UV-I 7 W/m² 11,3 °C 12,6 °C 0,0 km/h (0 Bft)
26.07.2018 05:54 12,6 °C 92 % 1012,5 hPa 0,0 mm 0,0 km/h (0 Bft) S-SO 168 ° 0 min 0,000 mm 0,0 UV-I 7 W/m² 11,3 °C 12,6 °C 0,0 km/h (0 Bft)
26.07.2018 05:55 12,6 °C 92 % 1012,5 hPa 0,0 mm 0,0 km/h (0 Bft) S-SO 168 ° 0 min 0,000 mm 0,0 UV-I 7 W/m² 11,3 °C 12,6 °C 0,0 km/h (0 Bft)
26.07.2018 05:56 12,6 °C 92 % 1012,5 hPa 0,0 mm 0,0 km/h (0 Bft) S-SO 168 ° 0 min 0,000 mm 0,0 UV-I 9 W/m² 11,3 °C 12,6 °C 0,0 km/h (0 Bft)
26.07.2018 05:57 12,6 °C 92 % 1012,6 hPa 0,0 mm 0,0 km/h (0 Bft) S-SO 168 ° 0 min 0,000 mm 0,0 UV-I 9 W/m² 11,3 °C 12,6 °C 0,0 km/h (0 Bft)
26.07.2018 05:58 12,6 °C 92 % 1012,6 hPa 0,0 mm 0,0 km/h (0 Bft) S-SO 168 ° 0 min 0,000 mm 0,0 UV-I 9 W/m² 11,3 °C 12,6 °C 0,0 km/h (0 Bft)
26.07.2018 05:59 12,6 °C 92 % 1012,6 hPa 0,0 mm 0,0 km/h (0 Bft) S-SO 168 ° 0 min 0,000 mm 0,0 UV-I 9 W/m² 11,3 °C 12,6 °C 0,0 km/h (0 Bft)
26.07.2018 06:00 12,6 °C 92 % 1012,6 hPa 0,0 mm 0,0 km/h (0 Bft) S-SO 168 ° 0 min 0,000 mm 0,0 UV-I 9 W/m² 11,3 °C 12,6 °C 0,0 km/h (0 Bft)
26.07.2018 06:01 12,6 °C 92 % 1012,6 hPa 0,0 mm 0,0 km/h (0 Bft) S-SO 168 ° 0 min 0,000 mm 0,0 UV-I 11 W/m² 11,3 °C 12,6 °C 0,0 km/h (0 Bft)
26.07.2018 06:02 12,7 °C 92 % 1012,5 hPa 0,0 mm 0,0 km/h (0 Bft) S-SO 168 ° 0 min 0,000 mm 0,0 UV-I 11 W/m² 11,4 °C 12,7 °C 0,0 km/h (0 Bft)
26.07.2018 06:03 12,6 °C 92 % 1012,6 hPa 0,0 mm 0,0 km/h (0 Bft) S-SO 168 ° 0 min 0,000 mm 0,0 UV-I 11 W/m² 11,3 °C 12,6 °C 0,0 km/h (0 Bft)
26.07.2018 06:04 12,6 °C 92 % 1012,6 hPa 0,0 mm 0,0 km/h (0 Bft) S-SO 168 ° 0 min 0,000 mm 0,0 UV-I 11 W/m² 11,3 °C 12,6 °C 0,0 km/h (0 Bft)
26.07.2018 06:05 12,6 °C 92 % 1012,5 hPa 0,0 mm 0,0 km/h (0 Bft) S-SO 168 ° 0 min 0,000 mm 0,0 UV-I 11 W/m² 11,3 °C 12,6 °C 0,0 km/h (0 Bft)
26.07.2018 06:06 12,6 °C 92 % 1012,5 hPa 0,0 mm 0,0 km/h (0 Bft) S-SO 168 ° 0 min 0,000 mm 0,0 UV-I 12 W/m² 11,3 °C 12,6 °C 0,0 km/h (0 Bft)
26.07.2018 06:07 12,7 °C 92 % 1012,5 hPa 0,0 mm 0,0 km/h (0 Bft) S-SO 168 ° 0 min 0,000 mm 0,0 UV-I 12 W/m² 11,4 °C 12,7 °C 0,0 km/h (0 Bft)
26.07.2018 06:08 12,7 °C 92 % 1012,6 hPa 0,0 mm 0,0 km/h (0 Bft) S-SO 168 ° 0 min 0,000 mm 0,0 UV-I 12 W/m² 11,4 °C 12,7 °C 0,0 km/h (0 Bft)
26.07.2018 06:09 12,7 °C 92 % 1012,6 hPa 0,0 mm 0,0 km/h (0 Bft) S-SO 168 ° 0 min 0,000 mm 0,0 UV-I 14 W/m² 11,4 °C 12,7 °C 0,0 km/h (0 Bft)
26.07.2018 06:10 12,7 °C 92 % 1012,6 hPa 0,0 mm 0,0 km/h (0 Bft) S-SO 168 ° 0 min 0,000 mm 0,0 UV-I 14 W/m² 11,4 °C 12,7 °C 0,0 km/h (0 Bft)
26.07.2018 06:11 12,7 °C 92 % 1012,6 hPa 0,0 mm 0,0 km/h (0 Bft) S-SO 168 ° 0 min 0,000 mm 0,0 UV-I 14 W/m² 11,4 °C 12,7 °C 0,0 km/h (0 Bft)
26.07.2018 06:12 12,7 °C 92 % 1012,5 hPa 0,0 mm 0,0 km/h (0 Bft) S-SO 168 ° 0 min 0,000 mm 0,0 UV-I 14 W/m² 11,4 °C 12,7 °C 0,0 km/h (0 Bft)
26.07.2018 06:13 12,6 °C 92 % 1012,5 hPa 0,0 mm 0,0 km/h (0 Bft) S-SO 168 ° 0 min 0,000 mm 0,0 UV-I 14 W/m² 11,3 °C 12,6 °C 0,0 km/h (0 Bft)
26.07.2018 06:14 12,6 °C 92 % 1012,5 hPa 0,0 mm 0,0 km/h (0 Bft) S-SO 168 ° 0 min 0,000 mm 0,0 UV-I 14 W/m² 11,3 °C 12,6 °C 0,0 km/h (0 Bft)
26.07.2018 06:15 12,5 °C 92 % 1012,5 hPa 0,0 mm 0,0 km/h (0 Bft) S-SO 168 ° 0 min 0,000 mm 0,0 UV-I 14 W/m² 11,2 °C 12,5 °C 0,0 km/h (0 Bft)
26.07.2018 06:16 12,5 °C 92 % 1012,5 hPa 0,0 mm 0,0 km/h (0 Bft) S-SO 168 ° 0 min 0,000 mm 0,0 UV-I 16 W/m² 11,2 °C 12,5 °C 0,0 km/h (0 Bft)
26.07.2018 06:17 12,5 °C 92 % 1012,5 hPa 0,0 mm 0,0 km/h (0 Bft) S-SO 168 ° 0 min 0,000 mm 0,0 UV-I 16 W/m² 11,2 °C 12,5 °C 0,0 km/h (0 Bft)
26.07.2018 06:18 12,5 °C 92 % 1012,5 hPa 0,0 mm 0,0 km/h (0 Bft) S-SO 168 ° 0 min 0,000 mm 0,0 UV-I 18 W/m² 11,2 °C 12,5 °C 0,0 km/h (0 Bft)
26.07.2018 06:19 12,5 °C 92 % 1012,5 hPa 0,0 mm 0,0 km/h (0 Bft) S-SO 168 ° 0 min 0,000 mm 0,0 UV-I 16 W/m² 11,2 °C 12,5 °C 0,0 km/h (0 Bft)
26.07.2018 06:20 12,5 °C 92 % 1012,6 hPa 0,0 mm 0,0 km/h (0 Bft) S-SO 168 ° 0 min 0,000 mm 0,0 UV-I 18 W/m² 11,2 °C 12,5 °C 0,0 km/h (0 Bft)
26.07.2018 06:21 12,5 °C 92 % 1012,6 hPa 0,0 mm 0,0 km/h (0 Bft) S-SO 168 ° 0 min 0,000 mm 0,0 UV-I 19 W/m² 11,2 °C 12,5 °C 0,0 km/h (0 Bft)
26.07.2018 06:22 12,6 °C 93 % 1012,6 hPa 0,0 mm 0,0 km/h (0 Bft) S-SO 168 ° 0 min 0,000 mm 0,0 UV-I 21 W/m² 11,5 °C 12,6 °C 0,0 km/h (0 Bft)
26.07.2018 06:23 12,6 °C 92 % 1012,6 hPa 0,0 mm 0,0 km/h (0 Bft) S-SO 168 ° 0 min 0,000 mm 0,0 UV-I 21 W/m² 11,3 °C 12,6 °C 0,0 km/h (0 Bft)
26.07.2018 06:24 12,6 °C 92 % 1012,6 hPa 0,0 mm 0,0 km/h (0 Bft) S-SO 168 ° 0 min 0,000 mm 0,0 UV-I 25 W/m² 11,3 °C 12,6 °C 0,0 km/h (0 Bft)
26.07.2018 06:25 12,7 °C 92 % 1012,6 hPa 0,0 mm 0,0 km/h (0 Bft) S-SO 168 ° 0 min 0,000 mm 0,0 UV-I 23 W/m² 11,4 °C 12,7 °C 0,0 km/h (0 Bft)
26.07.2018 06:26 12,7 °C 92 % 1012,6 hPa 0,0 mm 0,0 km/h (0 Bft) S-SO 168 ° 0 min 0,000 mm 0,0 UV-I 21 W/m² 11,4 °C 12,7 °C 0,0 km/h (0 Bft)
26.07.2018 06:27 12,8 °C 92 % 1012,6 hPa 0,0 mm 0,0 km/h (0 Bft) S-SO 168 ° 0 min 0,000 mm 0,0 UV-I 21 W/m² 11,5 °C 12,8 °C 0,0 km/h (0 Bft)
26.07.2018 06:28 12,8 °C 92 % 1012,6 hPa 0,0 mm 0,0 km/h (0 Bft) S-SO 168 ° 0 min 0,000 mm 0,0 UV-I 21 W/m² 11,5 °C 12,8 °C 0,0 km/h (0 Bft)
26.07.2018 06:29 12,9 °C 92 % 1012,5 hPa 0,0 mm 0,0 km/h (0 Bft) S-SO 168 ° 0 min 0,000 mm 0,0 UV-I 21 W/m² 11,6 °C 12,9 °C 0,0 km/h (0 Bft)
26.07.2018 06:30 12,9 °C 92 % 1012,6 hPa 0,0 mm 0,0 km/h (0 Bft) S-SO 168 ° 0 min 0,000 mm 0,0 UV-I 23 W/m² 11,6 °C 12,9 °C 0,0 km/h (0 Bft)
26.07.2018 06:31 13,1 °C 92 % 1012,6 hPa 0,0 mm 0,0 km/h (0 Bft) S-SO 168 ° 0 min 0,000 mm 0,0 UV-I 21 W/m² 11,8 °C 13,1 °C 0,0 km/h (0 Bft)
26.07.2018 06:32 13,1 °C 92 % 1012,5 hPa 0,0 mm 0,0 km/h (0 Bft) S-SO 168 ° 0 min 0,000 mm 0,0 UV-I 23 W/m² 11,8 °C 13,1 °C 0,0 km/h (0 Bft)
26.07.2018 06:33 13,1 °C 92 % 1012,6 hPa 0,0 mm 0,0 km/h (0 Bft) S-SO 168 ° 0 min 0,000 mm 0,0 UV-I 23 W/m² 11,8 °C 13,1 °C 0,0 km/h (0 Bft)
26.07.2018 06:34 13,2 °C 92 % 1012,6 hPa 0,0 mm 0,0 km/h (0 Bft) S-SO 168 ° 0 min 0,000 mm 0,0 UV-I 25 W/m² 11,9 °C 13,2 °C 0,0 km/h (0 Bft)
26.07.2018 06:35 13,2 °C 91 % 1012,6 hPa 0,0 mm 0,0 km/h (0 Bft) S-SO 168 ° 0 min 0,000 mm 0,0 UV-I 25 W/m² 11,8 °C 13,2 °C 0,0 km/h (0 Bft)
26.07.2018 06:36 13,2 °C 91 % 1012,6 hPa 0,0 mm 0,0 km/h (0 Bft) S-SO 168 ° 0 min 0,000 mm 0,0 UV-I 23 W/m² 11,8 °C 13,2 °C 0,0 km/h (0 Bft)
26.07.2018 06:37 13,2 °C 91 % 1012,6 hPa 0,0 mm 0,0 km/h (0 Bft) S-SO 168 ° 0 min 0,000 mm 0,0 UV-I 25 W/m² 11,8 °C 13,2 °C 0,0 km/h (0 Bft)
26.07.2018 06:38 13,2 °C 91 % 1012,6 hPa 0,0 mm 0,0 km/h (0 Bft) S-SO 168 ° 0 min 0,000 mm 0,0 UV-I 25 W/m² 11,8 °C 13,2 °C 0,0 km/h (0 Bft)
26.07.2018 06:39 13,2 °C 91 % 1012,6 hPa 0,0 mm 0,0 km/h (0 Bft) S-SO 168 ° 0 min 0,000 mm 0,0 UV-I 30 W/m² 11,8 °C 13,2 °C 0,0 km/h (0 Bft)
26.07.2018 06:40 13,2 °C 91 % 1012,6 hPa 0,0 mm 0,0 km/h (0 Bft) S-SO 168 ° 0 min 0,000 mm 0,0 UV-I 32 W/m² 11,8 °C 13,2 °C 0,0 km/h (0 Bft)
26.07.2018 06:41 13,2 °C 91 % 1012,6 hPa 0,0 mm 0,0 km/h (0 Bft) S-SO 168 ° 0 min 0,000 mm 0,0 UV-I 30 W/m² 11,8 °C 13,2 °C 0,0 km/h (0 Bft)
26.07.2018 06:42 13,2 °C 91 % 1012,6 hPa 0,0 mm 0,0 km/h (0 Bft) S-SO 168 ° 0 min 0,000 mm 0,0 UV-I 33 W/m² 11,8 °C 13,2 °C 0,0 km/h (0 Bft)
26.07.2018 06:43 13,2 °C 91 % 1012,6 hPa 0,0 mm 0,0 km/h (0 Bft) S-SO 168 ° 0 min 0,000 mm 0,0 UV-I 26 W/m² 11,8 °C 13,2 °C 0,0 km/h (0 Bft)
26.07.2018 06:44 13,2 °C 91 % 1012,6 hPa 0,0 mm 0,0 km/h (0 Bft) S-SO 168 ° 0 min 0,000 mm 0,0 UV-I 30 W/m² 11,8 °C 13,2 °C 0,0 km/h (0 Bft)
26.07.2018 06:45 13,2 °C 91 % 1012,6 hPa 0,0 mm 0,0 km/h (0 Bft) S-SO 168 ° 0 min 0,000 mm 0,0 UV-I 28 W/m² 11,8 °C 13,2 °C 0,0 km/h (0 Bft)
26.07.2018 06:46 13,2 °C 91 % 1012,6 hPa 0,0 mm 0,0 km/h (0 Bft) S-SO 168 ° 0 min 0,000 mm 0,0 UV-I 35 W/m² 11,8 °C 13,2 °C 0,0 km/h (0 Bft)
26.07.2018 06:47 13,3 °C 91 % 1012,6 hPa 0,0 mm 0,0 km/h (0 Bft) S-SO 168 ° 0 min 0,000 mm 0,0 UV-I 40 W/m² 11,9 °C 13,3 °C 0,0 km/h (0 Bft)
26.07.2018 06:48 13,3 °C 91 % 1012,6 hPa 0,0 mm 0,0 km/h (0 Bft) S-SO 168 ° 0 min 0,000 mm 0,0 UV-I 32 W/m² 11,9 °C 13,3 °C 0,0 km/h (0 Bft)
26.07.2018 06:49 13,3 °C 91 % 1012,6 hPa 0,0 mm 0,0 km/h (0 Bft) S-SO 168 ° 0 min 0,000 mm 0,0 UV-I 30 W/m² 11,9 °C 13,3 °C 0,0 km/h (0 Bft)
26.07.2018 06:50 13,3 °C 91 % 1012,6 hPa 0,0 mm 0,0 km/h (0 Bft) S-SO 168 ° 0 min 0,000 mm 0,0 UV-I 35 W/m² 11,9 °C 13,3 °C 0,0 km/h (0 Bft)
26.07.2018 06:51 13,3 °C 91 % 1012,6 hPa 0,0 mm 0,0 km/h (0 Bft) S-SO 168 ° 0 min 0,000 mm 0,0 UV-I 60 W/m² 11,9 °C 13,3 °C 0,0 km/h (0 Bft)
26.07.2018 06:52 13,3 °C 91 % 1012,6 hPa 0,0 mm 0,0 km/h (0 Bft) S-SO 168 ° 0 min 0,000 mm 0,0 UV-I 63 W/m² 11,9 °C 13,3 °C 0,0 km/h (0 Bft)
26.07.2018 06:53 13,3 °C 91 % 1012,6 hPa 0,0 mm 0,0 km/h (0 Bft) S-SO 168 ° 0 min 0,000 mm 0,0 UV-I 65 W/m² 11,9 °C 13,3 °C 0,0 km/h (0 Bft)
26.07.2018 06:54 13,2 °C 91 % 1012,6 hPa 0,0 mm 0,0 km/h (0 Bft) S-SO 168 ° 0 min 0,000 mm 0,0 UV-I 44 W/m² 11,8 °C 13,2 °C 0,0 km/h (0 Bft)
26.07.2018 06:55 13,2 °C 91 % 1012,6 hPa 0,0 mm 0,0 km/h (0 Bft) S-SO 168 ° 0 min 0,000 mm 0,0 UV-I 46 W/m² 11,8 °C 13,2 °C 0,0 km/h (0 Bft)
26.07.2018 06:56 13,2 °C 91 % 1012,6 hPa 0,0 mm 0,0 km/h (0 Bft) S-SO 168 ° 0 min 0,000 mm 0,0 UV-I 33 W/m² 11,8 °C 13,2 °C 0,0 km/h (0 Bft)
26.07.2018 06:57 13,2 °C 92 % 1012,6 hPa 0,0 mm 0,0 km/h (0 Bft) S-SO 168 ° 0 min 0,000 mm 0,0 UV-I 32 W/m² 11,9 °C 13,2 °C 0,0 km/h (0 Bft)
26.07.2018 06:58 13,2 °C 92 % 1012,6 hPa 0,0 mm 0,0 km/h (0 Bft) S-SO 168 ° 0 min 0,000 mm 0,0 UV-I 33 W/m² 11,9 °C 13,2 °C 0,0 km/h (0 Bft)
26.07.2018 06:59 13,2 °C 92 % 1012,6 hPa 0,0 mm 0,0 km/h (0 Bft) S-SO 168 ° 0 min 0,000 mm 0,0 UV-I 53 W/m² 11,9 °C 13,2 °C 0,0 km/h (0 Bft)
26.07.2018 07:00 13,2 °C 92 % 1012,7 hPa 0,0 mm 0,0 km/h (0 Bft) S-SO 168 ° 0 min 0,000 mm 0,0 UV-I 83 W/m² 11,9 °C 13,2 °C 0,0 km/h (0 Bft)
26.07.2018 07:01 13,2 °C 92 % 1012,6 hPa 0,0 mm 0,0 km/h (0 Bft) S-SO 168 ° 0 min 0,025 mm 0,0 UV-I 97 W/m² 11,9 °C 13,2 °C 0,0 km/h (0 Bft)
26.07.2018 07:02 13,2 °C 92 % 1012,6 hPa 0,0 mm 0,0 km/h (0 Bft) S-SO 168 ° 0 min 0,000 mm 0,0 UV-I 97 W/m² 11,9 °C 13,2 °C 0,0 km/h (0 Bft)
26.07.2018 07:03 13,3 °C 92 % 1012,5 hPa 0,0 mm 0,0 km/h (0 Bft) S-SO 168 ° 0 min 0,000 mm 0,0 UV-I 100 W/m² 12,0 °C 13,3 °C 0,0 km/h (0 Bft)
26.07.2018 07:04 13,3 °C 92 % 1012,6 hPa 0,0 mm 0,0 km/h (0 Bft) S-SO 168 ° 0 min 0,000 mm 0,0 UV-I 104 W/m² 12,0 °C 13,3 °C 0,0 km/h (0 Bft)
26.07.2018 07:05 13,4 °C 91 % 1012,5 hPa 0,0 mm 0,0 km/h (0 Bft) S-SO 168 ° 0 min 0,000 mm 0,5 UV-I 109 W/m² 12,0 °C 13,4 °C 0,0 km/h (0 Bft)
26.07.2018 07:06 13,4 °C 92 % 1012,6 hPa 0,0 mm 0,0 km/h (0 Bft) S-SO 168 ° 0 min 0,000 mm 0,5 UV-I 109 W/m² 12,1 °C 13,4 °C 0,0 km/h (0 Bft)
26.07.2018 07:07 13,4 °C 92 % 1012,5 hPa 0,0 mm 0,0 km/h (0 Bft) S-SO 168 ° 0 min 0,000 mm 0,5 UV-I 113 W/m² 12,1 °C 13,4 °C 0,0 km/h (0 Bft)
26.07.2018 07:08 13,5 °C 92 % 1012,6 hPa 0,0 mm 0,5 km/h (0 Bft) S-SO 168 ° 0 min 0,000 mm 0,5 UV-I 114 W/m² 12,2 °C 13,5 °C 1,6 km/h (1 Bft)
26.07.2018 07:09 13,4 °C 92 % 1012,5 hPa 0,0 mm 0,0 km/h (0 Bft) S-SO 168 ° 0 min 0,000 mm 0,5 UV-I 118 W/m² 12,1 °C 13,4 °C 0,0 km/h (0 Bft)
26.07.2018 07:10 13,4 °C 92 % 1012,6 hPa 0,0 mm 0,0 km/h (0 Bft) S-SO 168 ° 0 min 0,000 mm 0,5 UV-I 120 W/m² 12,1 °C 13,4 °C 0,0 km/h (0 Bft)
26.07.2018 07:11 13,5 °C 92 % 1012,7 hPa 0,0 mm 0,0 km/h (0 Bft) S-SO 168 ° 0 min 0,000 mm 0,5 UV-I 120 W/m² 12,2 °C 13,5 °C 0,0 km/h (0 Bft)
26.07.2018 07:12 13,5 °C 92 % 1012,6 hPa 0,0 mm 0,0 km/h (0 Bft) S-SO 168 ° 0 min 0,000 mm 0,5 UV-I 120 W/m² 12,2 °C 13,5 °C 0,0 km/h (0 Bft)
26.07.2018 07:13 13,7 °C 92 % 1012,6 hPa 0,0 mm 0,0 km/h (0 Bft) S-SO 168 ° 0 min 0,000 mm 0,5 UV-I 120 W/m² 12,4 °C 13,7 °C 0,0 km/h (0 Bft)
26.07.2018 07:14 13,8 °C 92 % 1012,6 hPa 0,0 mm 0,0 km/h (0 Bft) S-SO 168 ° 0 min 0,000 mm 0,5 UV-I 91 W/m² 12,5 °C 13,8 °C 0,0 km/h (0 Bft)
26.07.2018 07:15 13,8 °C 92 % 1012,5 hPa 0,0 mm 0,0 km/h (0 Bft) S-SO 168 ° 0 min 0,000 mm 0,5 UV-I 118 W/m² 12,5 °C 13,8 °C 0,0 km/h (0 Bft)
26.07.2018 07:16 13,9 °C 92 % 1012,5 hPa 0,0 mm 0,0 km/h (0 Bft) S-SO 168 ° 0 min 0,000 mm 0,5 UV-I 130 W/m² 12,6 °C 13,9 °C 0,0 km/h (0 Bft)
26.07.2018 07:17 14,0 °C 92 % 1012,5 hPa 0,0 mm 0,0 km/h (0 Bft) S-SO 168 ° 0 min 0,000 mm 0,5 UV-I 54 W/m² 12,7 °C 14,0 °C 0,0 km/h (0 Bft)
26.07.2018 07:18 14,1 °C 92 % 1012,6 hPa 0,0 mm 0,0 km/h (0 Bft) S-SO 168 ° 0 min 0,000 mm 0,0 UV-I 39 W/m² 12,8 °C 14,1 °C 0,0 km/h (0 Bft)
26.07.2018 07:19 14,2 °C 92 % 1012,5 hPa 0,0 mm 0,0 km/h (0 Bft) S-SO 168 ° 0 min 0,000 mm 0,0 UV-I 39 W/m² 12,9 °C 14,2 °C 0,0 km/h (0 Bft)
26.07.2018 07:20 14,3 °C 92 % 1012,5 hPa 0,0 mm 0,0 km/h (0 Bft) S-SO 168 ° 0 min 0,000 mm 0,0 UV-I 39 W/m² 13,0 °C 14,3 °C 0,0 km/h (0 Bft)
26.07.2018 07:21 14,4 °C 91 % 1012,5 hPa 0,0 mm 0,0 km/h (0 Bft) S-SO 168 ° 0 min 0,000 mm 0,0 UV-I 39 W/m² 12,9 °C 14,4 °C 0,0 km/h (0 Bft)
26.07.2018 07:22 14,4 °C 91 % 1012,6 hPa 0,0 mm 0,0 km/h (0 Bft) S-SO 168 ° 0 min 0,000 mm 0,0 UV-I 39 W/m² 12,9 °C 14,4 °C 0,0 km/h (0 Bft)
26.07.2018 07:23 14,4 °C 91 % 1012,7 hPa 0,0 mm 0,0 km/h (0 Bft) S-SO 168 ° 0 min 0,000 mm 0,0 UV-I 49 W/m² 12,9 °C 14,4 °C 0,0 km/h (0 Bft)
26.07.2018 07:24 14,4 °C 91 % 1012,6 hPa 0,0 mm 0,0 km/h (0 Bft) S-SO 168 ° 0 min 0,000 mm 0,0 UV-I 40 W/m² 12,9 °C 14,4 °C 0,0 km/h (0 Bft)
26.07.2018 07:25 14,5 °C 91 % 1012,6 hPa 0,0 mm 0,0 km/h (0 Bft) S-SO 168 ° 0 min 0,000 mm 0,0 UV-I 40 W/m² 13,0 °C 14,5 °C 0,0 km/h (0 Bft)
26.07.2018 07:26 14,5 °C 90 % 1012,6 hPa 0,0 mm 0,0 km/h (0 Bft) S-SO 168 ° 0 min 0,000 mm 0,0 UV-I 51 W/m² 12,9 °C 14,5 °C 0,0 km/h (0 Bft)
26.07.2018 07:27 14,5 °C 90 % 1012,6 hPa 0,0 mm 0,0 km/h (0 Bft) S-SO 168 ° 0 min 0,000 mm 0,0 UV-I 51 W/m² 12,9 °C 14,5 °C 0,0 km/h (0 Bft)
26.07.2018 07:28 14,5 °C 91 % 1012,6 hPa 0,0 mm 0,0 km/h (0 Bft) S-SO 168 ° 0 min 0,000 mm 0,0 UV-I 42 W/m² 13,0 °C 14,5 °C 0,0 km/h (0 Bft)
26.07.2018 07:29 14,5 °C 91 % 1012,6 hPa 0,0 mm 0,0 km/h (0 Bft) S-SO 168 ° 0 min 0,000 mm 0,0 UV-I 44 W/m² 13,0 °C 14,5 °C 0,0 km/h (0 Bft)
26.07.2018 07:30 14,4 °C 91 % 1012,7 hPa 0,0 mm 0,0 km/h (0 Bft) S-SO 168 ° 0 min 0,000 mm 0,0 UV-I 44 W/m² 12,9 °C 14,4 °C 0,0 km/h (0 Bft)
26.07.2018 07:31 14,5 °C 91 % 1012,6 hPa 0,0 mm 0,0 km/h (0 Bft) S-SO 168 ° 0 min 0,000 mm 0,7 UV-I 70 W/m² 13,0 °C 14,5 °C 0,0 km/h (0 Bft)
26.07.2018 07:32 14,5 °C 91 % 1012,6 hPa 0,0 mm 0,0 km/h (0 Bft) S-SO 168 ° 0 min 0,000 mm 0,7 UV-I 70 W/m² 13,0 °C 14,5 °C 0,0 km/h (0 Bft)
26.07.2018 07:33 14,5 °C 91 % 1012,6 hPa 0,0 mm 0,0 km/h (0 Bft) S-SO 168 ° 0 min 0,000 mm 0,7 UV-I 153 W/m² 13,0 °C 14,5 °C 0,0 km/h (0 Bft)
26.07.2018 07:34 14,6 °C 91 % 1012,6 hPa 0,0 mm 0,0 km/h (0 Bft) S-SO 168 ° 0 min 0,000 mm 0,7 UV-I 72 W/m² 13,1 °C 14,6 °C 0,0 km/h (0 Bft)
26.07.2018 07:35 14,6 °C 91 % 1012,6 hPa 0,0 mm 0,0 km/h (0 Bft) S-SO 168 ° 0 min 0,000 mm 0,7 UV-I 120 W/m² 13,1 °C 14,6 °C 0,0 km/h (0 Bft)
26.07.2018 07:36 14,7 °C 91 % 1012,6 hPa 0,0 mm 0,0 km/h (0 Bft) S-SO 168 ° 0 min 0,000 mm 0,8 UV-I 123 W/m² 13,2 °C 14,7 °C 0,0 km/h (0 Bft)
26.07.2018 07:37 14,8 °C 91 % 1012,6 hPa 0,0 mm 0,0 km/h (0 Bft) S-SO 168 ° 0 min 0,000 mm 0,8 UV-I 176 W/m² 13,3 °C 14,8 °C 0,0 km/h (0 Bft)
26.07.2018 07:38 14,8 °C 90 % 1012,7 hPa 0,0 mm 0,0 km/h (0 Bft) S-SO 168 ° 0 min 0,000 mm 0,8 UV-I 179 W/m² 13,2 °C 14,8 °C 0,0 km/h (0 Bft)
26.07.2018 07:39 14,9 °C 90 % 1012,6 hPa 0,0 mm 0,0 km/h (0 Bft) S-SO 168 ° 0 min 0,000 mm 0,8 UV-I 181 W/m² 13,3 °C 14,9 °C 0,0 km/h (0 Bft)
26.07.2018 07:40 15,0 °C 90 % 1012,6 hPa 0,0 mm 0,0 km/h (0 Bft) S-SO 168 ° 0 min 0,000 mm 0,8 UV-I 192 W/m² 13,4 °C 15,0 °C 0,0 km/h (0 Bft)
26.07.2018 07:41 15,1 °C 89 % 1012,7 hPa 0,0 mm 0,0 km/h (0 Bft) S-SO 168 ° 0 min 0,000 mm 0,8 UV-I 190 W/m² 13,3 °C 15,1 °C 0,0 km/h (0 Bft)
26.07.2018 07:42 15,2 °C 89 % 1012,8 hPa 0,0 mm 0,0 km/h (0 Bft) S-SO 168 ° 0 min 0,000 mm 0,8 UV-I 192 W/m² 13,4 °C 15,2 °C 0,0 km/h (0 Bft)
26.07.2018 07:43 15,3 °C 89 % 1012,8 hPa 0,0 mm 0,0 km/h (0 Bft) S-SO 168 ° 0 min 0,000 mm 0,8 UV-I 195 W/m² 13,5 °C 15,3 °C 0,0 km/h (0 Bft)
26.07.2018 07:44 15,4 °C 88 % 1012,7 hPa 0,0 mm 0,0 km/h (0 Bft) S-SO 168 ° 0 min 0,000 mm 0,8 UV-I 195 W/m² 13,4 °C 15,4 °C 0,0 km/h (0 Bft)
26.07.2018 07:45 15,4 °C 88 % 1012,8 hPa 0,0 mm 0,0 km/h (0 Bft) S-SO 168 ° 0 min 0,000 mm 0,0 UV-I 44 W/m² 13,4 °C 15,4 °C 0,0 km/h (0 Bft)
26.07.2018 07:46 15,5 °C 87 % 1012,8 hPa 0,0 mm 0,0 km/h (0 Bft) S-SO 168 ° 0 min 0,000 mm 0,0 UV-I 42 W/m² 13,3 °C 15,5 °C 0,0 km/h (0 Bft)
26.07.2018 07:47 15,5 °C 87 % 1012,7 hPa 0,0 mm 0,0 km/h (0 Bft) S-SO 168 ° 0 min 0,000 mm 0,0 UV-I 44 W/m² 13,3 °C 15,5 °C 0,0 km/h (0 Bft)
26.07.2018 07:48 15,6 °C 87 % 1012,8 hPa 0,0 mm 0,0 km/h (0 Bft) S-SO 168 ° 0 min 0,000 mm 0,0 UV-I 44 W/m² 13,4 °C 15,6 °C 0,0 km/h (0 Bft)
26.07.2018 07:49 15,6 °C 87 % 1012,8 hPa 0,0 mm 0,0 km/h (0 Bft) S-SO 168 ° 0 min 0,000 mm 0,0 UV-I 44 W/m² 13,4 °C 15,6 °C 0,0 km/h (0 Bft)
26.07.2018 07:50 15,6 °C 86 % 1012,8 hPa 0,0 mm 0,0 km/h (0 Bft) S-SO 168 ° 0 min 0,000 mm 0,0 UV-I 44 W/m² 13,3 °C 15,6 °C 0,0 km/h (0 Bft)
26.07.2018 07:51 15,6 °C 86 % 1012,8 hPa 0,0 mm 0,0 km/h (0 Bft) S-SO 168 ° 0 min 0,000 mm 0,0 UV-I 44 W/m² 13,3 °C 15,6 °C 0,0 km/h (0 Bft)
26.07.2018 07:52 15,6 °C 86 % 1012,7 hPa 0,0 mm 0,0 km/h (0 Bft) S-SO 168 ° 0 min 0,000 mm 0,0 UV-I 44 W/m² 13,3 °C 15,6 °C 0,0 km/h (0 Bft)
26.07.2018 07:53 15,7 °C 88 % 1012,8 hPa 0,0 mm 0,0 km/h (0 Bft) S-SO 168 ° 0 min 0,000 mm 0,0 UV-I 46 W/m² 13,7 °C 15,7 °C 0,0 km/h (0 Bft)
26.07.2018 07:54 15,7 °C 88 % 1012,8 hPa 0,0 mm 0,0 km/h (0 Bft) S-SO 168 ° 0 min 0,000 mm 0,0 UV-I 46 W/m² 13,7 °C 15,7 °C 0,0 km/h (0 Bft)
26.07.2018 07:55 15,7 °C 88 % 1012,7 hPa 0,0 mm 0,0 km/h (0 Bft) S-SO 168 ° 0 min 0,000 mm 0,0 UV-I 47 W/m² 13,7 °C 15,7 °C 0,0 km/h (0 Bft)
26.07.2018 07:56 15,6 °C 88 % 1012,7 hPa 0,0 mm 0,0 km/h (0 Bft) S-SO 168 ° 0 min 0,000 mm 0,0 UV-I 47 W/m² 13,6 °C 15,6 °C 0,0 km/h (0 Bft)
26.07.2018 07:57 15,6 °C 88 % 1012,8 hPa 0,0 mm 0,0 km/h (0 Bft) S-SO 168 ° 0 min 0,000 mm 0,0 UV-I 51 W/m² 13,6 °C 15,6 °C 0,0 km/h (0 Bft)
26.07.2018 07:58 15,6 °C 88 % 1012,8 hPa 0,0 mm 0,0 km/h (0 Bft) S-SO 168 ° 0 min 0,000 mm 1,0 UV-I 220 W/m² 13,6 °C 15,6 °C 0,0 km/h (0 Bft)
26.07.2018 07:59 15,6 °C 88 % 1012,8 hPa 0,0 mm 0,0 km/h (0 Bft) S-SO 168 ° 0 min 0,000 mm 0,9 UV-I 220 W/m² 13,6 °C 15,6 °C 0,0 km/h (0 Bft)
26.07.2018 08:00 15,6 °C 89 % 1012,8 hPa 0,0 mm 0,0 km/h (0 Bft) S-SO 168 ° 0 min 0,051 mm 1,1 UV-I 220 W/m² 13,8 °C 15,6 °C 0,0 km/h (0 Bft)
26.07.2018 08:01 15,7 °C 88 % 1012,8 hPa 0,0 mm 0,0 km/h (0 Bft) S-SO 168 ° 0 min 0,000 mm 1,0 UV-I 218 W/m² 13,7 °C 15,7 °C 0,0 km/h (0 Bft)
26.07.2018 08:02 15,7 °C 89 % 1012,8 hPa 0,0 mm 0,0 km/h (0 Bft) S-SO 168 ° 0 min 0,000 mm 1,1 UV-I 248 W/m² 13,9 °C 15,7 °C 0,0 km/h (0 Bft)
26.07.2018 08:03 15,7 °C 89 % 1012,8 hPa 0,0 mm 0,0 km/h (0 Bft) S-SO 168 ° 0 min 0,000 mm 1,1 UV-I 253 W/m² 13,9 °C 15,7 °C 0,0 km/h (0 Bft)
26.07.2018 08:04 15,7 °C 88 % 1012,7 hPa 0,0 mm 0,0 km/h (0 Bft) S-SO 168 ° 0 min 0,000 mm 1,0 UV-I 134 W/m² 13,7 °C 15,7 °C 0,0 km/h (0 Bft)
26.07.2018 08:05 15,7 °C 89 % 1012,8 hPa 0,0 mm 0,4 km/h (0 Bft) S-SO 168 ° 0 min 0,000 mm 1,2 UV-I 134 W/m² 13,9 °C 15,7 °C 1,6 km/h (1 Bft)
26.07.2018 08:06 15,7 °C 89 % 1012,9 hPa 0,0 mm 1,0 km/h (0 Bft) S-SO 168 ° 0 min 0,000 mm 1,2 UV-I 134 W/m² 13,9 °C 15,7 °C 3,2 km/h (1 Bft)
26.07.2018 08:07 15,8 °C 89 % 1012,8 hPa 0,0 mm 0,0 km/h (0 Bft) S-SO 168 ° 0 min 0,000 mm 1,2 UV-I 258 W/m² 14,0 °C 15,8 °C 0,0 km/h (0 Bft)
26.07.2018 08:08 15,9 °C 89 % 1012,8 hPa 0,0 mm 0,0 km/h (0 Bft) S-SO 168 ° 0 min 0,000 mm 1,2 UV-I 253 W/m² 14,1 °C 15,9 °C 0,0 km/h (0 Bft)
26.07.2018 08:09 16,1 °C 89 % 1012,8 hPa 0,0 mm 0,2 km/h (0 Bft) S-SO 168 ° 0 min 0,000 mm 1,2 UV-I 265 W/m² 14,3 °C 16,1 °C 1,6 km/h (1 Bft)
26.07.2018 08:10 16,2 °C 89 % 1012,9 hPa 0,0 mm 0,3 km/h (0 Bft) S-SO 168 ° 0 min 0,000 mm 1,2 UV-I 267 W/m² 14,4 °C 16,2 °C 1,6 km/h (1 Bft)
26.07.2018 08:11 16,4 °C 89 % 1012,8 hPa 0,0 mm 0,0 km/h (0 Bft) S-SO 168 ° 0 min 0,000 mm 1,3 UV-I 271 W/m² 14,6 °C 16,4 °C 0,0 km/h (0 Bft)
26.07.2018 08:12 16,5 °C 89 % 1012,8 hPa 0,0 mm 0,0 km/h (0 Bft) S-SO 168 ° 0 min 0,000 mm 1,3 UV-I 274 W/m² 14,7 °C 16,5 °C 0,0 km/h (0 Bft)
26.07.2018 08:13 16,6 °C 88 % 1012,9 hPa 0,0 mm 0,0 km/h (0 Bft) S-SO 168 ° 0 min 0,000 mm 1,3 UV-I 279 W/m² 14,6 °C 16,6 °C 0,0 km/h (0 Bft)
26.07.2018 08:14 16,7 °C 89 % 1012,9 hPa 0,0 mm 0,0 km/h (0 Bft) S-SO 168 ° 0 min 0,000 mm 1,4 UV-I 278 W/m² 14,9 °C 16,7 °C 0,0 km/h (0 Bft)
26.07.2018 08:15 16,7 °C 88 % 1012,8 hPa 0,0 mm 0,0 km/h (0 Bft) S-SO 168 ° 0 min 0,000 mm 1,4 UV-I 287 W/m² 14,7 °C 16,7 °C 0,0 km/h (0 Bft)
26.07.2018 08:16 16,7 °C 88 % 1012,8 hPa 0,0 mm 0,0 km/h (0 Bft) S-SO 168 ° 0 min 0,000 mm 1,4 UV-I 290 W/m² 14,7 °C 16,7 °C 0,0 km/h (0 Bft)
26.07.2018 08:17 16,8 °C 88 % 1012,8 hPa 0,0 mm 0,0 km/h (0 Bft) S-SO 168 ° 0 min 0,000 mm 1,4 UV-I 288 W/m² 14,8 °C 16,8 °C 0,0 km/h (0 Bft)
26.07.2018 08:18 16,9 °C 88 % 1012,8 hPa 0,0 mm 0,0 km/h (0 Bft) S-SO 168 ° 0 min 0,000 mm 1,5 UV-I 294 W/m² 14,9 °C 16,9 °C 0,0 km/h (0 Bft)
26.07.2018 08:19 16,9 °C 88 % 1012,8 hPa 0,0 mm 0,0 km/h (0 Bft) S-SO 168 ° 0 min 0,000 mm 1,5 UV-I 294 W/m² 14,9 °C 16,9 °C 0,0 km/h (0 Bft)
26.07.2018 08:20 17,0 °C 89 % 1012,8 hPa 0,0 mm 0,0 km/h (0 Bft) S-SO 168 ° 0 min 0,000 mm 1,5 UV-I 297 W/m² 15,2 °C 17,0 °C 0,0 km/h (0 Bft)
26.07.2018 08:21 17,1 °C 89 % 1012,8 hPa 0,0 mm 0,0 km/h (0 Bft) S-SO 168 ° 0 min 0,000 mm 1,5 UV-I 299 W/m² 15,3 °C 17,1 °C 0,0 km/h (0 Bft)
26.07.2018 08:22 17,2 °C 89 % 1012,7 hPa 0,0 mm 0,0 km/h (0 Bft) S-SO 168 ° 0 min 0,000 mm 1,5 UV-I 302 W/m² 15,4 °C 17,2 °C 0,0 km/h (0 Bft)
26.07.2018 08:23 17,3 °C 89 % 1012,7 hPa 0,0 mm 0,0 km/h (0 Bft) S-SO 168 ° 0 min 0,000 mm 1,6 UV-I 308 W/m² 15,5 °C 17,3 °C 0,0 km/h (0 Bft)
26.07.2018 08:24 17,5 °C 89 % 1012,8 hPa 0,0 mm 0,3 km/h (0 Bft) S-SO 168 ° 0 min 0,000 mm 1,6 UV-I 308 W/m² 15,7 °C 17,5 °C 1,6 km/h (1 Bft)
26.07.2018 08:25 17,7 °C 89 % 1012,8 hPa 0,0 mm 1,8 km/h (1 Bft) S-SO 168 ° 0 min 0,000 mm 1,6 UV-I 315 W/m² 15,9 °C 17,7 °C 3,2 km/h (1 Bft)
26.07.2018 08:26 17,8 °C 89 % 1012,8 hPa 0,0 mm 1,5 km/h (1 Bft) S-SW 202 ° 0 min 0,000 mm 1,6 UV-I 318 W/m² 16,0 °C 17,8 °C 3,2 km/h (1 Bft)
26.07.2018 08:27 18,1 °C 88 % 1012,7 hPa 0,0 mm 1,8 km/h (1 Bft) S-SW 204 ° 0 min 0,000 mm 1,6 UV-I 325 W/m² 16,1 °C 18,1 °C 3,2 km/h (1 Bft)
26.07.2018 08:28 18,2 °C 88 % 1012,7 hPa 0,0 mm 2,5 km/h (1 Bft) W-SW 247 ° 0 min 0,000 mm 1,6 UV-I 329 W/m² 16,2 °C 18,2 °C 3,2 km/h (1 Bft)
26.07.2018 08:29 18,3 °C 88 % 1012,8 hPa 0,0 mm 1,3 km/h (1 Bft) W-SW 247 ° 0 min 0,000 mm 1,7 UV-I 332 W/m² 16,3 °C 18,3 °C 1,6 km/h (1 Bft)
26.07.2018 08:30 18,2 °C 86 % 1012,8 hPa 0,0 mm 0,4 km/h (0 Bft) W-SW 247 ° 0 min 0,000 mm 1,7 UV-I 334 W/m² 15,8 °C 18,2 °C 1,6 km/h (1 Bft)
26.07.2018 08:31 18,1 °C 87 % 1012,8 hPa 0,0 mm 0,0 km/h (0 Bft) W-SW 247 ° 0 min 0,000 mm 1,7 UV-I 339 W/m² 15,9 °C 18,1 °C 0,0 km/h (0 Bft)
26.07.2018 08:32 17,9 °C 84 % 1012,7 hPa 0,0 mm 0,0 km/h (0 Bft) W-SW 247 ° 0 min 0,000 mm 1,8 UV-I 343 W/m² 15,2 °C 17,9 °C 0,0 km/h (0 Bft)
26.07.2018 08:33 17,8 °C 85 % 1012,8 hPa 0,0 mm 0,0 km/h (0 Bft) W-SW 247 ° 0 min 0,000 mm 1,8 UV-I 353 W/m² 15,2 °C 17,8 °C 0,0 km/h (0 Bft)
26.07.2018 08:34 17,9 °C 86 % 1012,8 hPa 0,0 mm 0,0 km/h (0 Bft) W-SW 247 ° 0 min 0,000 mm 1,8 UV-I 359 W/m² 15,5 °C 17,9 °C 0,0 km/h (0 Bft)
26.07.2018 08:35 17,9 °C 85 % 1012,8 hPa 0,0 mm 0,0 km/h (0 Bft) W-SW 247 ° 0 min 0,000 mm 1,9 UV-I 366 W/m² 15,3 °C 17,9 °C 0,0 km/h (0 Bft)
26.07.2018 08:36 18,1 °C 85 % 1012,8 hPa 0,0 mm 0,4 km/h (0 Bft) W-SW 247 ° 0 min 0,000 mm 1,9 UV-I 369 W/m² 15,5 °C 18,1 °C 1,6 km/h (1 Bft)
26.07.2018 08:37 18,2 °C 85 % 1012,8 hPa 0,0 mm 0,2 km/h (0 Bft) W-SW 247 ° 0 min 0,000 mm 1,9 UV-I 371 W/m² 15,6 °C 18,2 °C 1,6 km/h (1 Bft)
26.07.2018 08:38 18,2 °C 85 % 1012,8 hPa 0,0 mm 0,0 km/h (0 Bft) W-SW 247 ° 0 min 0,000 mm 1,9 UV-I 374 W/m² 15,6 °C 18,2 °C 0,0 km/h (0 Bft)
26.07.2018 08:39 18,2 °C 85 % 1012,8 hPa 0,0 mm 0,0 km/h (0 Bft) W-SW 247 ° 0 min 0,000 mm 1,9 UV-I 380 W/m² 15,6 °C 18,2 °C 0,0 km/h (0 Bft)
26.07.2018 08:40 18,3 °C 85 % 1012,8 hPa 0,0 mm 0,0 km/h (0 Bft) W-SW 247 ° 0 min 0,000 mm 2,0 UV-I 380 W/m² 15,7 °C 18,3 °C 0,0 km/h (0 Bft)
26.07.2018 08:41 18,4 °C 85 % 1012,8 hPa 0,0 mm 0,0 km/h (0 Bft) W-SW 247 ° 0 min 0,000 mm 2,0 UV-I 383 W/m² 15,8 °C 18,4 °C 0,0 km/h (0 Bft)
26.07.2018 08:42 18,5 °C 85 % 1012,8 hPa 0,0 mm 0,0 km/h (0 Bft) W-SW 247 ° 0 min 0,000 mm 2,0 UV-I 383 W/m² 15,9 °C 18,5 °C 0,0 km/h (0 Bft)
26.07.2018 08:43 18,7 °C 85 % 1012,8 hPa 0,0 mm 0,0 km/h (0 Bft) W-SW 247 ° 0 min 0,000 mm 2,0 UV-I 390 W/m² 16,1 °C 18,7 °C 0,0 km/h (0 Bft)
26.07.2018 08:44 18,8 °C 84 % 1012,7 hPa 0,0 mm 0,0 km/h (0 Bft) W-SW 247 ° 0 min 0,000 mm 2,0 UV-I 392 W/m² 16,0 °C 18,8 °C 0,0 km/h (0 Bft)
26.07.2018 08:45 18,8 °C 83 % 1012,8 hPa 0,0 mm 0,0 km/h (0 Bft) W-SW 247 ° 0 min 0,000 mm 2,0 UV-I 394 W/m² 15,8 °C 18,8 °C 0,0 km/h (0 Bft)
26.07.2018 08:46 18,9 °C 84 % 1012,8 hPa 0,0 mm 0,0 km/h (0 Bft) W-SW 247 ° 0 min 0,000 mm 2,0 UV-I 399 W/m² 16,1 °C 18,9 °C 0,0 km/h (0 Bft)
26.07.2018 08:47 19,1 °C 83 % 1012,8 hPa 0,0 mm 0,0 km/h (0 Bft) W-SW 247 ° 0 min 0,000 mm 2,1 UV-I 401 W/m² 16,1 °C 19,1 °C 0,0 km/h (0 Bft)
26.07.2018 08:48 19,2 °C 82 % 1012,8 hPa 0,0 mm 0,0 km/h (0 Bft) W-SW 247 ° 0 min 0,000 mm 2,1 UV-I 404 W/m² 16,0 °C 19,2 °C 0,0 km/h (0 Bft)
26.07.2018 08:49 19,3 °C 84 % 1012,8 hPa 0,0 mm 0,0 km/h (0 Bft) W-SW 247 ° 0 min 0,000 mm 2,2 UV-I 410 W/m² 16,5 °C 19,3 °C 0,0 km/h (0 Bft)
26.07.2018 08:50 19,3 °C 82 % 1012,8 hPa 0,0 mm 0,0 km/h (0 Bft) W-SW 247 ° 0 min 0,000 mm 2,2 UV-I 411 W/m² 16,1 °C 19,3 °C 0,0 km/h (0 Bft)
26.07.2018 08:51 19,3 °C 82 % 1012,8 hPa 0,0 mm 0,0 km/h (0 Bft) W-SW 247 ° 0 min 0,000 mm 2,2 UV-I 418 W/m² 16,1 °C 19,3 °C 0,0 km/h (0 Bft)
26.07.2018 08:52 19,4 °C 81 % 1012,8 hPa 0,0 mm 0,0 km/h (0 Bft) W-SW 247 ° 0 min 0,000 mm 2,3 UV-I 420 W/m² 16,1 °C 19,4 °C 0,0 km/h (0 Bft)
26.07.2018 08:53 19,5 °C 82 % 1012,8 hPa 0,0 mm 0,0 km/h (0 Bft) W-SW 247 ° 0 min 0,000 mm 2,3 UV-I 422 W/m² 16,3 °C 19,5 °C 0,0 km/h (0 Bft)
26.07.2018 08:54 19,5 °C 81 % 1012,8 hPa 0,0 mm 0,0 km/h (0 Bft) W-SW 247 ° 0 min 0,000 mm 2,3 UV-I 422 W/m² 16,1 °C 19,5 °C 0,0 km/h (0 Bft)
26.07.2018 08:55 19,5 °C 81 % 1012,8 hPa 0,0 mm 0,0 km/h (0 Bft) W-SW 247 ° 0 min 0,000 mm 2,3 UV-I 424 W/m² 16,1 °C 19,5 °C 0,0 km/h (0 Bft)
26.07.2018 08:56 19,6 °C 82 % 1012,8 hPa 0,0 mm 0,0 km/h (0 Bft) W-SW 247 ° 0 min 0,000 mm 2,4 UV-I 427 W/m² 16,4 °C 19,6 °C 0,0 km/h (0 Bft)
26.07.2018 08:57 19,6 °C 81 % 1012,8 hPa 0,0 mm 0,0 km/h (0 Bft) W-SW 247 ° 0 min 0,000 mm 2,4 UV-I 424 W/m² 16,2 °C 19,6 °C 0,0 km/h (0 Bft)
26.07.2018 08:58 19,7 °C 81 % 1012,8 hPa 0,0 mm 0,0 km/h (0 Bft) W-SW 247 ° 0 min 0,000 mm 2,4 UV-I 422 W/m² 16,3 °C 19,7 °C 0,0 km/h (0 Bft)
26.07.2018 08:59 19,8 °C 81 % 1012,8 hPa 0,0 mm 0,0 km/h (0 Bft) W-SW 247 ° 0 min 0,000 mm 2,4 UV-I 429 W/m² 16,4 °C 19,8 °C 0,0 km/h (0 Bft)
26.07.2018 09:00 19,8 °C 82 % 1012,8 hPa 0,0 mm 0,0 km/h (0 Bft) W-SW 247 ° 0 min 0,178 mm 2,5 UV-I 434 W/m² 16,6 °C 19,8 °C 0,0 km/h (0 Bft)
26.07.2018 09:01 19,8 °C 84 % 1012,8 hPa 0,0 mm 0,9 km/h (0 Bft) NW 316 ° 0 min 0,000 mm 2,5 UV-I 436 W/m² 17,0 °C 19,8 °C 3,2 km/h (1 Bft)
26.07.2018 09:02 19,9 °C 83 % 1012,8 hPa 0,0 mm 0,2 km/h (0 Bft) NW 316 ° 0 min 0,000 mm 2,4 UV-I 417 W/m² 16,9 °C 19,9 °C 1,6 km/h (1 Bft)
26.07.2018 09:03 19,9 °C 82 % 1012,8 hPa 0,0 mm 1,2 km/h (1 Bft) N-NW 327 ° 0 min 0,000 mm 2,4 UV-I 425 W/m² 16,7 °C 19,9 °C 3,2 km/h (1 Bft)
26.07.2018 09:04 20,0 °C 82 % 1012,8 hPa 0,0 mm 1,9 km/h (1 Bft) N-NW 327 ° 0 min 0,000 mm 2,5 UV-I 425 W/m² 16,8 °C 20,0 °C 3,2 km/h (1 Bft)
26.07.2018 09:05 20,0 °C 79 % 1012,8 hPa 0,0 mm 0,7 km/h (0 Bft) N-NW 327 ° 0 min 0,000 mm 2,6 UV-I 438 W/m² 16,2 °C 20,0 °C 1,6 km/h (1 Bft)
26.07.2018 09:06 20,0 °C 78 % 1012,8 hPa 0,0 mm 1,3 km/h (1 Bft) N-NW 336 ° 0 min 0,000 mm 2,6 UV-I 443 W/m² 16,0 °C 20,0 °C 3,2 km/h (1 Bft)
26.07.2018 09:07 20,1 °C 80 % 1012,8 hPa 0,0 mm 0,3 km/h (0 Bft) N-NW 336 ° 0 min 0,000 mm 2,6 UV-I 450 W/m² 16,5 °C 20,1 °C 1,6 km/h (1 Bft)
26.07.2018 09:08 20,2 °C 77 % 1012,7 hPa 0,0 mm 1,9 km/h (1 Bft) N-NW 336 ° 0 min 0,000 mm 2,6 UV-I 455 W/m² 16,0 °C 20,2 °C 3,2 km/h (1 Bft)
26.07.2018 09:09 20,3 °C 79 % 1012,8 hPa 0,0 mm 0,9 km/h (0 Bft) N-NW 336 ° 0 min 0,000 mm 2,7 UV-I 459 W/m² 16,5 °C 20,3 °C 3,2 km/h (1 Bft)
26.07.2018 09:10 20,4 °C 77 % 1012,8 hPa 0,0 mm 0,5 km/h (0 Bft) N-NW 336 ° 0 min 0,000 mm 2,7 UV-I 466 W/m² 16,2 °C 20,4 °C 1,6 km/h (1 Bft)
26.07.2018 09:11 20,5 °C 76 % 1012,8 hPa 0,0 mm 0,5 km/h (0 Bft) N-NW 336 ° 0 min 0,000 mm 2,8 UV-I 469 W/m² 16,1 °C 20,5 °C 1,6 km/h (1 Bft)
26.07.2018 09:12 20,6 °C 76 % 1012,8 hPa 0,0 mm 0,0 km/h (0 Bft) N-NW 336 ° 0 min 0,000 mm 2,8 UV-I 468 W/m² 16,2 °C 20,6 °C 0,0 km/h (0 Bft)
26.07.2018 09:13 20,6 °C 78 % 1012,8 hPa 0,0 mm 0,0 km/h (0 Bft) N-NW 336 ° 0 min 0,000 mm 2,8 UV-I 473 W/m² 16,6 °C 20,6 °C 0,0 km/h (0 Bft)
26.07.2018 09:14 20,6 °C 76 % 1012,8 hPa 0,0 mm 0,0 km/h (0 Bft) N-NW 336 ° 0 min 0,000 mm 2,8 UV-I 478 W/m² 16,2 °C 20,6 °C 0,0 km/h (0 Bft)
26.07.2018 09:15 20,6 °C 77 % 1012,8 hPa 0,0 mm 0,0 km/h (0 Bft) N-NW 336 ° 0 min 0,000 mm 2,9 UV-I 482 W/m² 16,4 °C 20,6 °C 0,0 km/h (0 Bft)
26.07.2018 09:16 20,6 °C 78 % 1012,8 hPa 0,0 mm 0,0 km/h (0 Bft) N-NW 336 ° 0 min 0,000 mm 2,9 UV-I 485 W/m² 16,6 °C 20,6 °C 0,0 km/h (0 Bft)
26.07.2018 09:17 20,6 °C 77 % 1012,8 hPa 0,0 mm 0,0 km/h (0 Bft) N-NW 336 ° 0 min 0,000 mm 2,9 UV-I 489 W/m² 16,4 °C 20,6 °C 0,0 km/h (0 Bft)
26.07.2018 09:18 20,7 °C 76 % 1012,8 hPa 0,0 mm 0,0 km/h (0 Bft) N-NW 336 ° 0 min 0,000 mm 3,0 UV-I 490 W/m² 16,3 °C 20,7 °C 0,0 km/h (0 Bft)
26.07.2018 09:19 20,8 °C 77 % 1012,8 hPa 0,0 mm 0,0 km/h (0 Bft) N-NW 336 ° 0 min 0,000 mm 3,0 UV-I 490 W/m² 16,6 °C 20,8 °C 0,0 km/h (0 Bft)
26.07.2018 09:20 20,8 °C 74 % 1012,8 hPa 0,0 mm 0,0 km/h (0 Bft) N-NW 336 ° 0 min 0,000 mm 3,0 UV-I 492 W/m² 16,0 °C 20,8 °C 0,0 km/h (0 Bft)
26.07.2018 09:21 21,0 °C 80 % 1012,8 hPa 0,0 mm 0,0 km/h (0 Bft) N-NW 336 ° 0 min 0,000 mm 3,0 UV-I 496 W/m² 17,4 °C 21,0 °C 0,0 km/h (0 Bft)
26.07.2018 09:22 21,0 °C 77 % 1012,8 hPa 0,0 mm 0,0 km/h (0 Bft) N-NW 336 ° 0 min 0,000 mm 3,0 UV-I 497 W/m² 16,8 °C 21,0 °C 0,0 km/h (0 Bft)
26.07.2018 09:23 20,9 °C 75 % 1012,8 hPa 0,0 mm 0,0 km/h (0 Bft) N-NW 336 ° 0 min 0,000 mm 3,1 UV-I 501 W/m² 16,3 °C 20,9 °C 0,0 km/h (0 Bft)
26.07.2018 09:24 20,8 °C 78 % 1012,8 hPa 0,0 mm 0,0 km/h (0 Bft) N-NW 336 ° 0 min 0,000 mm 3,1 UV-I 506 W/m² 16,8 °C 20,8 °C 0,0 km/h (0 Bft)
26.07.2018 09:25 20,8 °C 78 % 1012,8 hPa 0,0 mm 0,1 km/h (0 Bft) N-NW 336 ° 0 min 0,000 mm 3,1 UV-I 510 W/m² 16,8 °C 20,8 °C 1,6 km/h (1 Bft)
26.07.2018 09:26 20,8 °C 77 % 1012,8 hPa 0,0 mm 1,7 km/h (1 Bft) N-NW 336 ° 0 min 0,000 mm 3,1 UV-I 513 W/m² 16,6 °C 20,8 °C 3,2 km/h (1 Bft)
26.07.2018 09:27 20,7 °C 77 % 1012,8 hPa 0,0 mm 2,5 km/h (1 Bft) N-NW 338 ° 0 min 0,000 mm 3,2 UV-I 517 W/m² 16,5 °C 20,7 °C 3,2 km/h (1 Bft)
26.07.2018 09:28 20,8 °C 78 % 1012,8 hPa 0,0 mm 0,2 km/h (0 Bft) N-NW 338 ° 0 min 0,000 mm 3,2 UV-I 519 W/m² 16,8 °C 20,8 °C 1,6 km/h (1 Bft)
26.07.2018 09:29 21,0 °C 78 % 1012,8 hPa 0,0 mm 0,4 km/h (0 Bft) N-NW 338 ° 0 min 0,000 mm 3,3 UV-I 522 W/m² 17,0 °C 21,0 °C 1,6 km/h (1 Bft)
26.07.2018 09:30 21,2 °C 76 % 1012,8 hPa 0,0 mm 0,1 km/h (0 Bft) N-NW 338 ° 0 min 0,000 mm 3,3 UV-I 527 W/m² 16,8 °C 21,2 °C 1,6 km/h (1 Bft)
26.07.2018 09:31 21,2 °C 77 % 1012,8 hPa 0,0 mm 0,0 km/h (0 Bft) N-NW 338 ° 0 min 0,000 mm 3,3 UV-I 529 W/m² 17,0 °C 21,2 °C 0,0 km/h (0 Bft)
26.07.2018 09:32 21,3 °C 80 % 1012,8 hPa 0,0 mm 0,0 km/h (0 Bft) N-NW 338 ° 0 min 0,000 mm 3,3 UV-I 534 W/m² 17,7 °C 21,3 °C 0,0 km/h (0 Bft)
26.07.2018 09:33 21,3 °C 79 % 1012,8 hPa 0,0 mm 1,1 km/h (1 Bft) N-NW 338 ° 0 min 0,000 mm 3,4 UV-I 538 W/m² 17,5 °C 21,3 °C 4,8 km/h (1 Bft)
26.07.2018 09:34 21,3 °C 76 % 1012,8 hPa 0,0 mm 2,8 km/h (1 Bft) N-NW 338 ° 0 min 0,000 mm 3,4 UV-I 536 W/m² 16,9 °C 21,3 °C 4,8 km/h (1 Bft)
26.07.2018 09:35 21,3 °C 74 % 1012,8 hPa 0,0 mm 0,8 km/h (0 Bft) N-NW 338 ° 0 min 0,000 mm 3,4 UV-I 540 W/m² 16,5 °C 21,3 °C 1,6 km/h (1 Bft)
26.07.2018 09:36 21,3 °C 71 % 1012,8 hPa 0,0 mm 0,5 km/h (0 Bft) N-NW 338 ° 0 min 0,000 mm 3,4 UV-I 541 W/m² 15,8 °C 21,3 °C 3,2 km/h (1 Bft)
26.07.2018 09:37 21,4 °C 71 % 1012,7 hPa 0,0 mm 1,4 km/h (1 Bft) N-NW 338 ° 0 min 0,000 mm 3,4 UV-I 543 W/m² 15,9 °C 21,4 °C 3,2 km/h (1 Bft)
26.07.2018 09:38 21,5 °C 68 % 1012,7 hPa 0,0 mm 0,9 km/h (0 Bft) N-NW 338 ° 0 min 0,000 mm 3,4 UV-I 548 W/m² 15,3 °C 21,5 °C 1,6 km/h (1 Bft)
26.07.2018 09:39 21,6 °C 67 % 1012,7 hPa 0,0 mm 2,0 km/h (1 Bft) N-NW 338 ° 0 min 0,000 mm 3,5 UV-I 552 W/m² 15,2 °C 21,6 °C 3,2 km/h (1 Bft)
26.07.2018 09:40 21,7 °C 67 % 1012,7 hPa 0,0 mm 0,2 km/h (0 Bft) N-NW 338 ° 0 min 0,000 mm 3,5 UV-I 552 W/m² 15,3 °C 21,7 °C 1,6 km/h (1 Bft)
26.07.2018 09:41 21,8 °C 69 % 1012,7 hPa 0,0 mm 2,2 km/h (1 Bft) N-NW 338 ° 0 min 0,000 mm 3,5 UV-I 554 W/m² 15,9 °C 21,8 °C 3,2 km/h (1 Bft)
26.07.2018 09:42 21,8 °C 69 % 1012,7 hPa 0,0 mm 0,7 km/h (0 Bft) N-NW 338 ° 0 min 0,000 mm 3,6 UV-I 554 W/m² 15,9 °C 21,8 °C 1,6 km/h (1 Bft)
26.07.2018 09:43 21,9 °C 67 % 1012,7 hPa 0,0 mm 2,7 km/h (1 Bft) N-NW 346 ° 0 min 0,000 mm 3,6 UV-I 563 W/m² 15,5 °C 21,9 °C 3,2 km/h (1 Bft)
26.07.2018 09:44 21,9 °C 62 % 1012,7 hPa 0,0 mm 0,7 km/h (0 Bft) N-NW 346 ° 0 min 0,000 mm 3,6 UV-I 564 W/m² 14,3 °C 21,9 °C 3,2 km/h (1 Bft)
26.07.2018 09:45 21,9 °C 62 % 1012,7 hPa 0,0 mm 0,7 km/h (0 Bft) N-NW 346 ° 0 min 0,000 mm 3,7 UV-I 566 W/m² 14,3 °C 21,9 °C 3,2 km/h (1 Bft)
26.07.2018 09:46 21,8 °C 63 % 1012,7 hPa 0,0 mm 0,8 km/h (0 Bft) N-NW 346 ° 0 min 0,000 mm 3,7 UV-I 568 W/m² 14,4 °C 21,8 °C 1,6 km/h (1 Bft)
26.07.2018 09:47 21,7 °C 69 % 1012,8 hPa 0,0 mm 0,5 km/h (0 Bft) N-NW 346 ° 0 min 0,000 mm 3,7 UV-I 566 W/m² 15,8 °C 21,7 °C 1,6 km/h (1 Bft)
26.07.2018 09:48 21,6 °C 70 % 1012,8 hPa 0,0 mm 1,0 km/h (0 Bft) N-NO 21 ° 0 min 0,000 mm 3,7 UV-I 568 W/m² 15,9 °C 21,6 °C 4,8 km/h (1 Bft)
26.07.2018 09:49 21,6 °C 65 % 1012,7 hPa 0,0 mm 3,6 km/h (1 Bft) N-NO 28 ° 0 min 0,000 mm 3,7 UV-I 573 W/m² 14,7 °C 21,6 °C 6,4 km/h (2 Bft)
26.07.2018 09:50 21,8 °C 68 % 1012,7 hPa 0,0 mm 2,5 km/h (1 Bft) N-NO 28 ° 0 min 0,000 mm 3,7 UV-I 575 W/m² 15,6 °C 21,8 °C 4,8 km/h (1 Bft)
26.07.2018 09:51 21,8 °C 69 % 1012,8 hPa 0,0 mm 1,9 km/h (1 Bft) N-NO 28 ° 0 min 0,000 mm 3,8 UV-I 578 W/m² 15,9 °C 21,8 °C 4,8 km/h (1 Bft)
26.07.2018 09:52 21,9 °C 64 % 1012,7 hPa 0,0 mm 1,6 km/h (1 Bft) N-NO 28 ° 0 min 0,000 mm 3,8 UV-I 582 W/m² 14,8 °C 21,9 °C 3,2 km/h (1 Bft)
26.07.2018 09:53 22,1 °C 66 % 1012,7 hPa 0,0 mm 1,7 km/h (1 Bft) N-NO 28 ° 0 min 0,000 mm 3,8 UV-I 584 W/m² 15,4 °C 22,1 °C 3,2 km/h (1 Bft)
26.07.2018 09:54 22,1 °C 64 % 1012,7 hPa 0,0 mm 2,0 km/h (1 Bft) N-NO 28 ° 0 min 0,000 mm 3,8 UV-I 582 W/m² 15,0 °C 22,1 °C 6,4 km/h (2 Bft)
26.07.2018 09:55 22,2 °C 69 % 1012,8 hPa 0,0 mm 4,6 km/h (1 Bft) N-NO 31 ° 0 min 0,000 mm 3,8 UV-I 584 W/m² 16,2 °C 22,2 °C 6,4 km/h (2 Bft)
26.07.2018 09:56 22,2 °C 67 % 1012,8 hPa 0,0 mm 2,1 km/h (1 Bft) N-NO 30 ° 0 min 0,000 mm 3,9 UV-I 591 W/m² 15,8 °C 22,2 °C 3,2 km/h (1 Bft)
26.07.2018 09:57 22,3 °C 66 % 1012,8 hPa 0,0 mm 3,6 km/h (1 Bft) N 360 ° 0 min 0,000 mm 3,9 UV-I 594 W/m² 15,6 °C 22,3 °C 4,8 km/h (1 Bft)
26.07.2018 09:58 22,3 °C 66 % 1012,8 hPa 0,0 mm 2,7 km/h (1 Bft) N 360 ° 0 min 0,000 mm 3,9 UV-I 598 W/m² 15,6 °C 22,3 °C 4,8 km/h (1 Bft)
26.07.2018 09:59 22,3 °C 72 % 1012,8 hPa 0,0 mm 2,5 km/h (1 Bft) N 360 ° 0 min 0,000 mm 4,0 UV-I 599 W/m² 17,0 °C 22,3 °C 4,8 km/h (1 Bft)
26.07.2018 10:00 22,3 °C 70 % 1012,8 hPa 0,0 mm 1,0 km/h (0 Bft) N 360 ° 0 min 0,000 mm 4,0 UV-I 599 W/m² 16,6 °C 22,3 °C 4,8 km/h (1 Bft)
26.07.2018 10:01 22,3 °C 68 % 1012,8 hPa 0,0 mm 4,8 km/h (1 Bft) NO 47 ° 1 min 0,305 mm 4,0 UV-I 601 W/m² 16,1 °C 22,3 °C 6,4 km/h (2 Bft)
26.07.2018 10:02 22,4 °C 71 % 1012,8 hPa 0,0 mm 2,8 km/h (1 Bft) NO 50 ° 1 min 0,000 mm 4,0 UV-I 603 W/m² 16,9 °C 22,4 °C 6,4 km/h (2 Bft)
26.07.2018 10:03 22,3 °C 68 % 1012,8 hPa 0,0 mm 2,5 km/h (1 Bft) NO 52 ° 1 min 0,000 mm 4,0 UV-I 606 W/m² 16,1 °C 22,3 °C 3,2 km/h (1 Bft)
26.07.2018 10:04 22,3 °C 70 % 1012,8 hPa 0,0 mm 3,5 km/h (1 Bft) N-NO 30 ° 1 min 0,000 mm 4,1 UV-I 608 W/m² 16,6 °C 22,3 °C 4,8 km/h (1 Bft)
26.07.2018 10:05 22,3 °C 67 % 1012,8 hPa 0,0 mm 2,9 km/h (1 Bft) N-NO 30 ° 1 min 0,000 mm 4,1 UV-I 612 W/m² 15,9 °C 22,3 °C 6,4 km/h (2 Bft)
26.07.2018 10:06 22,3 °C 66 % 1012,8 hPa 0,0 mm 2,3 km/h (1 Bft) N-NO 31 ° 1 min 0,000 mm 4,1 UV-I 615 W/m² 15,6 °C 22,3 °C 4,8 km/h (1 Bft)
26.07.2018 10:07 22,3 °C 65 % 1012,8 hPa 0,0 mm 0,3 km/h (0 Bft) N-NO 31 ° 1 min 0,000 mm 4,1 UV-I 622 W/m² 15,4 °C 22,3 °C 1,6 km/h (1 Bft)
26.07.2018 10:08 22,3 °C 66 % 1012,8 hPa 0,0 mm 0,3 km/h (0 Bft) N-NO 31 ° 1 min 0,000 mm 4,2 UV-I 622 W/m² 15,6 °C 22,3 °C 3,2 km/h (1 Bft)
26.07.2018 10:09 22,3 °C 69 % 1012,8 hPa 0,0 mm 2,3 km/h (1 Bft) NO 35 ° 1 min 0,000 mm 4,2 UV-I 624 W/m² 16,3 °C 22,3 °C 3,2 km/h (1 Bft)
26.07.2018 10:10 22,4 °C 68 % 1012,7 hPa 0,0 mm 1,9 km/h (1 Bft) NO 36 ° 1 min 0,000 mm 4,2 UV-I 629 W/m² 16,2 °C 22,4 °C 4,8 km/h (1 Bft)
26.07.2018 10:11 22,4 °C 66 % 1012,8 hPa 0,0 mm 4,3 km/h (1 Bft) NO 45 ° 1 min 0,000 mm 4,3 UV-I 629 W/m² 15,7 °C 22,4 °C 6,4 km/h (2 Bft)
26.07.2018 10:12 22,4 °C 67 % 1012,8 hPa 0,0 mm 3,8 km/h (1 Bft) NO 42 ° 1 min 0,000 mm 4,3 UV-I 631 W/m² 16,0 °C 22,4 °C 6,4 km/h (2 Bft)
26.07.2018 10:13 22,5 °C 68 % 1012,7 hPa 0,0 mm 8,2 km/h (2 Bft) N 355 ° 1 min 0,000 mm 4,3 UV-I 633 W/m² 16,3 °C 22,5 °C 12,9 km/h (3 Bft)
26.07.2018 10:14 22,6 °C 66 % 1012,8 hPa 0,0 mm 5,4 km/h (1 Bft) NW 318 ° 1 min 0,000 mm 4,3 UV-I 635 W/m² 15,9 °C 22,6 °C 8,0 km/h (2 Bft)
26.07.2018 10:15 22,7 °C 68 % 1012,7 hPa 0,0 mm 4,3 km/h (1 Bft) NW 312 ° 1 min 0,000 mm 4,3 UV-I 636 W/m² 16,5 °C 22,7 °C 8,0 km/h (2 Bft)
26.07.2018 10:16 22,7 °C 66 % 1012,7 hPa 0,0 mm 4,0 km/h (1 Bft) N-NW 340 ° 1 min 0,000 mm 4,3 UV-I 640 W/m² 16,0 °C 22,7 °C 6,4 km/h (2 Bft)
26.07.2018 10:17 22,8 °C 66 % 1012,7 hPa 0,0 mm 0,4 km/h (0 Bft) N 355 ° 1 min 0,000 mm 4,4 UV-I 643 W/m² 16,1 °C 22,8 °C 3,2 km/h (1 Bft)
26.07.2018 10:18 22,7 °C 64 % 1012,8 hPa 0,0 mm 0,9 km/h (0 Bft) N 355 ° 1 min 0,000 mm 4,4 UV-I 645 W/m² 15,5 °C 22,7 °C 1,6 km/h (1 Bft)
26.07.2018 10:19 22,6 °C 69 % 1012,8 hPa 0,0 mm 1,7 km/h (1 Bft) N 355 ° 1 min 0,000 mm 4,4 UV-I 650 W/m² 16,6 °C 22,6 °C 3,2 km/h (1 Bft)
26.07.2018 10:20 22,6 °C 68 % 1012,8 hPa 0,0 mm 1,1 km/h (1 Bft) N 360 ° 1 min 0,000 mm 4,5 UV-I 652 W/m² 16,4 °C 22,6 °C 3,2 km/h (1 Bft)
26.07.2018 10:21 22,6 °C 67 % 1012,7 hPa 0,0 mm 5,2 km/h (1 Bft) N-NO 19 ° 1 min 0,000 mm 4,5 UV-I 652 W/m² 16,2 °C 22,6 °C 6,4 km/h (2 Bft)
26.07.2018 10:22 22,7 °C 68 % 1012,7 hPa 0,0 mm 2,7 km/h (1 Bft) N-NO 19 ° 1 min 0,000 mm 4,5 UV-I 654 W/m² 16,5 °C 22,7 °C 3,2 km/h (1 Bft)
26.07.2018 10:23 22,7 °C 63 % 1012,8 hPa 0,0 mm 0,5 km/h (0 Bft) N-NO 19 ° 1 min 0,000 mm 4,5 UV-I 656 W/m² 15,3 °C 22,7 °C 1,6 km/h (1 Bft)
26.07.2018 10:24 22,7 °C 67 % 1012,7 hPa 0,0 mm 0,0 km/h (0 Bft) N-NO 19 ° 1 min 0,000 mm 4,6 UV-I 661 W/m² 16,2 °C 22,7 °C 0,0 km/h (0 Bft)
26.07.2018 10:25 22,8 °C 65 % 1012,7 hPa 0,0 mm 0,2 km/h (0 Bft) N-NO 19 ° 1 min 0,000 mm 4,6 UV-I 661 W/m² 15,9 °C 22,8 °C 1,6 km/h (1 Bft)
26.07.2018 10:26 22,9 °C 67 % 1012,7 hPa 0,0 mm 1,7 km/h (1 Bft) N-NO 19 ° 1 min 0,000 mm 4,6 UV-I 664 W/m² 16,4 °C 22,9 °C 3,2 km/h (1 Bft)
26.07.2018 10:27 22,9 °C 67 % 1012,7 hPa 0,0 mm 0,1 km/h (0 Bft) N-NO 19 ° 1 min 0,000 mm 4,7 UV-I 666 W/m² 16,4 °C 22,9 °C 1,6 km/h (1 Bft)
26.07.2018 10:28 22,9 °C 69 % 1012,7 hPa 0,0 mm 0,1 km/h (0 Bft) N-NO 19 ° 1 min 0,000 mm 4,7 UV-I 668 W/m² 16,9 °C 22,9 °C 1,6 km/h (1 Bft)
26.07.2018 10:29 23,0 °C 64 % 1012,7 hPa 0,0 mm 3,1 km/h (1 Bft) NO 44 ° 1 min 0,000 mm 4,7 UV-I 670 W/m² 15,8 °C 23,0 °C 4,8 km/h (1 Bft)
26.07.2018 10:30 22,9 °C 63 % 1012,8 hPa 0,0 mm 2,5 km/h (1 Bft) NO 38 ° 1 min 0,000 mm 4,7 UV-I 675 W/m² 15,5 °C 22,9 °C 4,8 km/h (1 Bft)
26.07.2018 10:31 23,0 °C 62 % 1012,8 hPa 0,0 mm 5,6 km/h (1 Bft) O-NO 58 ° 1 min 0,000 mm 4,7 UV-I 675 W/m² 15,3 °C 23,0 °C 8,0 km/h (2 Bft)
26.07.2018 10:32 23,1 °C 67 % 1012,8 hPa 0,0 mm 3,9 km/h (1 Bft) O-NO 70 ° 1 min 0,000 mm 4,8 UV-I 679 W/m² 16,6 °C 23,1 °C 4,8 km/h (1 Bft)
26.07.2018 10:33 23,1 °C 64 % 1012,7 hPa 0,0 mm 3,1 km/h (1 Bft) O 80 ° 1 min 0,000 mm 4,8 UV-I 680 W/m² 15,9 °C 23,1 °C 4,8 km/h (1 Bft)
26.07.2018 10:34 23,0 °C 63 % 1012,8 hPa 0,0 mm 2,2 km/h (1 Bft) O-NO 71 ° 1 min 0,000 mm 4,8 UV-I 682 W/m² 15,6 °C 23,0 °C 4,8 km/h (1 Bft)
26.07.2018 10:35 23,0 °C 63 % 1012,8 hPa 0,0 mm 1,7 km/h (1 Bft) O 80 ° 1 min 0,000 mm 4,9 UV-I 686 W/m² 15,6 °C 23,0 °C 6,4 km/h (2 Bft)
26.07.2018 10:36 23,1 °C 64 % 1012,8 hPa 0,0 mm 4,5 km/h (1 Bft) O-NO 65 ° 1 min 0,000 mm 4,9 UV-I 691 W/m² 15,9 °C 23,1 °C 6,4 km/h (2 Bft)
26.07.2018 10:37 23,0 °C 62 % 1012,7 hPa 0,0 mm 3,2 km/h (1 Bft) O 97 ° 1 min 0,000 mm 4,9 UV-I 691 W/m² 15,3 °C 23,0 °C 4,8 km/h (1 Bft)
26.07.2018 10:38 22,9 °C 61 % 1012,8 hPa 0,0 mm 2,7 km/h (1 Bft) O 97 ° 1 min 0,000 mm 4,9 UV-I 694 W/m² 15,0 °C 22,9 °C 3,2 km/h (1 Bft)
26.07.2018 10:39 22,8 °C 61 % 1012,8 hPa 0,0 mm 2,8 km/h (1 Bft) O 97 ° 1 min 0,000 mm 4,9 UV-I 694 W/m² 14,9 °C 22,8 °C 4,8 km/h (1 Bft)
26.07.2018 10:40 22,8 °C 64 % 1012,8 hPa 0,0 mm 0,9 km/h (0 Bft) O 97 ° 1 min 0,000 mm 4,9 UV-I 696 W/m² 15,6 °C 22,8 °C 1,6 km/h (1 Bft)
26.07.2018 10:41 22,7 °C 63 % 1012,8 hPa 0,0 mm 1,8 km/h (1 Bft) O 97 ° 1 min 0,000 mm 5,0 UV-I 698 W/m² 15,3 °C 22,7 °C 3,2 km/h (1 Bft)
26.07.2018 10:42 22,7 °C 62 % 1012,8 hPa 0,0 mm 1,5 km/h (1 Bft) O 97 ° 1 min 0,000 mm 5,0 UV-I 700 W/m² 15,0 °C 22,7 °C 1,6 km/h (1 Bft)
26.07.2018 10:43 22,8 °C 63 % 1012,8 hPa 0,0 mm 3,3 km/h (1 Bft) N-NW 329 ° 1 min 0,000 mm 5,0 UV-I 701 W/m² 15,4 °C 22,8 °C 6,4 km/h (2 Bft)
26.07.2018 10:44 22,9 °C 65 % 1012,8 hPa 0,0 mm 3,1 km/h (1 Bft) N 5 ° 1 min 0,000 mm 5,0 UV-I 703 W/m² 16,0 °C 22,9 °C 4,8 km/h (1 Bft)
26.07.2018 10:45 23,0 °C 62 % 1012,8 hPa 0,0 mm 2,8 km/h (1 Bft) N 5 ° 1 min 0,000 mm 5,1 UV-I 707 W/m² 15,3 °C 23,0 °C 4,8 km/h (1 Bft)
26.07.2018 10:46 23,0 °C 63 % 1012,8 hPa 0,0 mm 2,7 km/h (1 Bft) O-NO 67 ° 1 min 0,000 mm 5,1 UV-I 708 W/m² 15,6 °C 23,0 °C 4,8 km/h (1 Bft)
26.07.2018 10:47 23,2 °C 64 % 1012,8 hPa 0,0 mm 6,3 km/h (2 Bft) O-NO 65 ° 1 min 0,000 mm 5,1 UV-I 710 W/m² 16,0 °C 23,2 °C 9,7 km/h (2 Bft)
26.07.2018 10:48 23,3 °C 62 % 1012,8 hPa 0,0 mm 6,5 km/h (2 Bft) NO 45 ° 1 min 0,000 mm 5,1 UV-I 714 W/m² 15,6 °C 23,3 °C 11,3 km/h (2 Bft)
26.07.2018 10:49 23,3 °C 61 % 1012,8 hPa 0,0 mm 4,8 km/h (1 Bft) NW 311 ° 1 min 0,000 mm 5,2 UV-I 715 W/m² 15,3 °C 23,3 °C 8,0 km/h (2 Bft)
26.07.2018 10:50 23,4 °C 61 % 1012,8 hPa 0,0 mm 4,2 km/h (1 Bft) N 360 ° 1 min 0,000 mm 5,2 UV-I 717 W/m² 15,4 °C 23,4 °C 6,4 km/h (2 Bft)
26.07.2018 10:51 23,5 °C 62 % 1012,8 hPa 0,0 mm 3,8 km/h (1 Bft) N 5 ° 1 min 0,000 mm 5,2 UV-I 717 W/m² 15,8 °C 23,5 °C 8,0 km/h (2 Bft)
26.07.2018 10:52 23,6 °C 61 % 1012,8 hPa 0,0 mm 3,6 km/h (1 Bft) N-NO 13 ° 1 min 0,000 mm 5,2 UV-I 717 W/m² 15,6 °C 23,6 °C 6,4 km/h (2 Bft)
26.07.2018 10:53 23,6 °C 62 % 1012,9 hPa 0,0 mm 3,8 km/h (1 Bft) O-NO 66 ° 1 min 0,000 mm 5,2 UV-I 721 W/m² 15,9 °C 23,6 °C 6,4 km/h (2 Bft)
26.07.2018 10:54 23,5 °C 64 % 1012,8 hPa 0,0 mm 6,3 km/h (2 Bft) O 99 ° 1 min 0,000 mm 5,3 UV-I 726 W/m² 16,3 °C 23,5 °C 11,3 km/h (2 Bft)
26.07.2018 10:55 23,4 °C 61 % 1012,8 hPa 0,0 mm 3,9 km/h (1 Bft) O-NO 74 ° 1 min 0,000 mm 5,3 UV-I 728 W/m² 15,4 °C 23,4 °C 4,8 km/h (1 Bft)
26.07.2018 10:56 23,3 °C 59 % 1012,9 hPa 0,0 mm 3,5 km/h (1 Bft) NO 49 ° 1 min 0,000 mm 5,3 UV-I 729 W/m² 14,8 °C 23,3 °C 6,4 km/h (2 Bft)
26.07.2018 10:57 23,4 °C 60 % 1012,8 hPa 0,0 mm 0,6 km/h (0 Bft) NO 49 ° 1 min 0,000 mm 5,3 UV-I 731 W/m² 15,2 °C 23,4 °C 4,8 km/h (1 Bft)
26.07.2018 10:58 23,4 °C 61 % 1012,8 hPa 0,0 mm 6,4 km/h (2 Bft) N-NO 23 ° 1 min 0,000 mm 5,4 UV-I 731 W/m² 15,4 °C 23,4 °C 9,7 km/h (2 Bft)
26.07.2018 10:59 23,4 °C 60 % 1012,8 hPa 0,0 mm 1,9 km/h (1 Bft) N-NO 24 ° 1 min 0,000 mm 5,4 UV-I 735 W/m² 15,2 °C 23,4 °C 3,2 km/h (1 Bft)
26.07.2018 11:00 23,4 °C 64 % 1012,9 hPa 0,0 mm 2,8 km/h (1 Bft) O-SO 113 ° 1 min 0,000 mm 5,4 UV-I 737 W/m² 16,2 °C 23,4 °C 6,4 km/h (2 Bft)
26.07.2018 11:01 23,3 °C 60 % 1012,8 hPa 0,0 mm 0,7 km/h (0 Bft) O-NO 63 ° 1 min 0,432 mm 5,4 UV-I 738 W/m² 15,1 °C 23,3 °C 4,8 km/h (1 Bft)
26.07.2018 11:02 23,3 °C 61 % 1012,8 hPa 0,0 mm 2,9 km/h (1 Bft) NO 39 ° 1 min 0,000 mm 5,5 UV-I 740 W/m² 15,3 °C 23,3 °C 4,8 km/h (1 Bft)
26.07.2018 11:03 23,3 °C 64 % 1012,9 hPa 0,0 mm 0,2 km/h (0 Bft) NO 39 ° 1 min 0,000 mm 5,5 UV-I 740 W/m² 16,1 °C 23,3 °C 1,6 km/h (1 Bft)
26.07.2018 11:04 23,4 °C 61 % 1012,8 hPa 0,0 mm 0,3 km/h (0 Bft) NO 39 ° 1 min 0,000 mm 5,5 UV-I 742 W/m² 15,4 °C 23,4 °C 1,6 km/h (1 Bft)
26.07.2018 11:05 23,4 °C 61 % 1012,8 hPa 0,0 mm 3,6 km/h (1 Bft) NO 44 ° 1 min 0,000 mm 5,5 UV-I 744 W/m² 15,4 °C 23,4 °C 6,4 km/h (2 Bft)
26.07.2018 11:06 23,5 °C 60 % 1012,8 hPa 0,0 mm 2,0 km/h (1 Bft) NO 44 ° 1 min 0,000 mm 5,5 UV-I 745 W/m² 15,3 °C 23,5 °C 6,4 km/h (2 Bft)
26.07.2018 11:07 23,5 °C 62 % 1012,9 hPa 0,0 mm 4,8 km/h (1 Bft) O-NO 67 ° 1 min 0,000 mm 5,6 UV-I 728 W/m² 15,8 °C 23,5 °C 11,3 km/h (2 Bft)
26.07.2018 11:08 23,6 °C 61 % 1012,8 hPa 0,0 mm 4,4 km/h (1 Bft) O 94 ° 1 min 0,000 mm 5,6 UV-I 751 W/m² 15,6 °C 23,6 °C 11,3 km/h (2 Bft)
26.07.2018 11:09 23,4 °C 64 % 1012,9 hPa 0,0 mm 4,6 km/h (1 Bft) O-NO 71 ° 1 min 0,000 mm 5,6 UV-I 752 W/m² 16,2 °C 23,4 °C 8,0 km/h (2 Bft)
26.07.2018 11:10 23,3 °C 59 % 1012,9 hPa 0,0 mm 3,9 km/h (1 Bft) O-NO 65 ° 1 min 0,000 mm 5,6 UV-I 752 W/m² 14,8 °C 23,3 °C 8,0 km/h (2 Bft)
26.07.2018 11:11 23,3 °C 64 % 1012,8 hPa 0,0 mm 1,7 km/h (1 Bft) O-SO 119 ° 1 min 0,000 mm 5,2 UV-I 754 W/m² 16,1 °C 23,3 °C 6,4 km/h (2 Bft)
26.07.2018 11:12 23,3 °C 59 % 1012,9 hPa 0,0 mm 3,4 km/h (1 Bft) O-SO 113 ° 1 min 0,000 mm 3,2 UV-I 758 W/m² 14,8 °C 23,3 °C 6,4 km/h (2 Bft)
26.07.2018 11:13 23,4 °C 61 % 1012,9 hPa 0,0 mm 3,4 km/h (1 Bft) NO 43 ° 1 min 0,000 mm 4,9 UV-I 758 W/m² 15,4 °C 23,4 °C 11,3 km/h (2 Bft)
26.07.2018 11:14 23,4 °C 61 % 1012,9 hPa 0,0 mm 6,6 km/h (2 Bft) O-NO 76 ° 1 min 0,000 mm 5,7 UV-I 759 W/m² 15,4 °C 23,4 °C 9,7 km/h (2 Bft)
26.07.2018 11:15 23,4 °C 63 % 1012,8 hPa 0,0 mm 5,4 km/h (1 Bft) O-NO 70 ° 1 min 0,000 mm 5,4 UV-I 761 W/m² 15,9 °C 23,4 °C 8,0 km/h (2 Bft)
26.07.2018 11:16 23,4 °C 63 % 1012,8 hPa 0,0 mm 4,8 km/h (1 Bft) O 84 ° 1 min 0,000 mm 5,7 UV-I 765 W/m² 15,9 °C 23,4 °C 6,4 km/h (2 Bft)
26.07.2018 11:17 23,4 °C 63 % 1012,9 hPa 0,0 mm 1,8 km/h (1 Bft) O 83 ° 1 min 0,000 mm 4,9 UV-I 766 W/m² 15,9 °C 23,4 °C 3,2 km/h (1 Bft)
26.07.2018 11:18 23,3 °C 62 % 1012,8 hPa 0,0 mm 1,1 km/h (1 Bft) O 83 ° 1 min 0,000 mm 5,5 UV-I 770 W/m² 15,6 °C 23,3 °C 3,2 km/h (1 Bft)
26.07.2018 11:19 23,3 °C 64 % 1012,8 hPa 0,0 mm 5,7 km/h (1 Bft) O-SO 112 ° 1 min 0,000 mm 5,8 UV-I 770 W/m² 16,1 °C 23,3 °C 11,3 km/h (2 Bft)
26.07.2018 11:20 23,3 °C 61 % 1012,7 hPa 0,0 mm 4,8 km/h (1 Bft) S 169 ° 1 min 0,000 mm 5,8 UV-I 773 W/m² 15,3 °C 23,3 °C 6,4 km/h (2 Bft)
26.07.2018 11:21 23,3 °C 58 % 1012,9 hPa 0,0 mm 1,4 km/h (1 Bft) S 169 ° 1 min 0,000 mm 4,7 UV-I 775 W/m² 14,6 °C 23,3 °C 3,2 km/h (1 Bft)
26.07.2018 11:22 23,3 °C 62 % 1012,8 hPa 0,0 mm 4,5 km/h (1 Bft) O-SO 107 ° 1 min 0,000 mm 4,5 UV-I 777 W/m² 15,6 °C 23,3 °C 9,7 km/h (2 Bft)
26.07.2018 11:23 23,4 °C 62 % 1012,8 hPa 0,0 mm 5,4 km/h (1 Bft) NO 46 ° 1 min 0,000 mm 5,9 UV-I 777 W/m² 15,7 °C 23,4 °C 11,3 km/h (2 Bft)
26.07.2018 11:24 23,6 °C 59 % 1012,8 hPa 0,0 mm 5,6 km/h (1 Bft) N-NO 23 ° 1 min 0,000 mm 5,9 UV-I 780 W/m² 15,1 °C 23,6 °C 9,7 km/h (2 Bft)
26.07.2018 11:25 23,7 °C 60 % 1012,8 hPa 0,0 mm 4,0 km/h (1 Bft) N-NO 25 ° 1 min 0,000 mm 5,9 UV-I 780 W/m² 15,5 °C 23,7 °C 6,4 km/h (2 Bft)
26.07.2018 11:26 23,8 °C 60 % 1012,8 hPa 0,0 mm 3,8 km/h (1 Bft) N-NO 13 ° 1 min 0,000 mm 5,9 UV-I 782 W/m² 15,6 °C 23,8 °C 4,8 km/h (1 Bft)
26.07.2018 11:27 24,0 °C 67 % 1012,8 hPa 0,0 mm 4,8 km/h (1 Bft) N 10 ° 1 min 0,000 mm 6,0 UV-I 782 W/m² 17,5 °C 24,0 °C 6,4 km/h (2 Bft)
26.07.2018 11:28 24,1 °C 60 % 1012,8 hPa 0,0 mm 5,0 km/h (1 Bft) N-NW 342 ° 1 min 0,000 mm 6,0 UV-I 784 W/m² 15,8 °C 24,1 °C 6,4 km/h (2 Bft)
26.07.2018 11:29 24,0 °C 60 % 1012,8 hPa 0,0 mm 4,7 km/h (1 Bft) N-NO 20 ° 0 min 0,000 mm 6,0 UV-I 577 W/m² 15,7 °C 24,0 °C 6,4 km/h (2 Bft)
26.07.2018 11:30 24,1 °C 61 % 1012,8 hPa 0,0 mm 1,3 km/h (1 Bft) N-NO 20 ° 0 min 0,000 mm 3,4 UV-I 577 W/m² 16,1 °C 24,1 °C 6,4 km/h (2 Bft)
26.07.2018 11:31 24,2 °C 59 % 1012,8 hPa 0,0 mm 4,1 km/h (1 Bft) N 11 ° 1 min 0,000 mm 6,0 UV-I 789 W/m² 15,7 °C 24,2 °C 9,7 km/h (2 Bft)
26.07.2018 11:32 24,2 °C 59 % 1012,8 hPa 0,0 mm 4,2 km/h (1 Bft) N-NO 30 ° 1 min 0,000 mm 6,1 UV-I 791 W/m² 15,7 °C 24,2 °C 11,3 km/h (2 Bft)
26.07.2018 11:33 24,2 °C 59 % 1012,8 hPa 0,0 mm 5,6 km/h (1 Bft) NO 53 ° 1 min 0,000 mm 6,1 UV-I 793 W/m² 15,7 °C 24,2 °C 11,3 km/h (2 Bft)
26.07.2018 11:34 24,2 °C 58 % 1012,8 hPa 0,0 mm 6,5 km/h (2 Bft) O 96 ° 1 min 0,000 mm 6,1 UV-I 795 W/m² 15,4 °C 24,2 °C 9,7 km/h (2 Bft)
26.07.2018 11:35 24,1 °C 59 % 1012,8 hPa 0,0 mm 2,7 km/h (1 Bft) O-NO 75 ° 1 min 0,000 mm 6,1 UV-I 795 W/m² 15,6 °C 24,1 °C 6,4 km/h (2 Bft)
26.07.2018 11:36 24,1 °C 60 % 1012,8 hPa 0,0 mm 5,6 km/h (1 Bft) O-NO 63 ° 1 min 0,000 mm 6,1 UV-I 795 W/m² 15,8 °C 24,1 °C 8,0 km/h (2 Bft)
26.07.2018 11:37 24,1 °C 59 % 1012,8 hPa 0,0 mm 6,9 km/h (2 Bft) N-NO 14 ° 1 min 0,000 mm 6,1 UV-I 798 W/m² 15,6 °C 24,1 °C 14,5 km/h (3 Bft)
26.07.2018 11:38 24,1 °C 59 % 1012,8 hPa 0,0 mm 5,5 km/h (1 Bft) N-NO 13 ° 1 min 0,000 mm 6,2 UV-I 800 W/m² 15,6 °C 24,1 °C 8,0 km/h (2 Bft)
26.07.2018 11:39 24,1 °C 57 % 1012,8 hPa 0,0 mm 3,5 km/h (1 Bft) N-NO 20 ° 1 min 0,000 mm 6,2 UV-I 803 W/m² 15,0 °C 24,1 °C 8,0 km/h (2 Bft)
26.07.2018 11:40 24,1 °C 60 % 1012,8 hPa 0,0 mm 6,9 km/h (2 Bft) NO 44 ° 1 min 0,000 mm 6,2 UV-I 803 W/m² 15,8 °C 24,1 °C 9,7 km/h (2 Bft)
26.07.2018 11:41 24,1 °C 57 % 1012,8 hPa 0,0 mm 5,9 km/h (2 Bft) NO 42 ° 1 min 0,000 mm 6,2 UV-I 805 W/m² 15,0 °C 24,1 °C 9,7 km/h (2 Bft)
26.07.2018 11:42 23,9 °C 56 % 1012,8 hPa 0,0 mm 3,1 km/h (1 Bft) O-NO 73 ° 1 min 0,000 mm 6,3 UV-I 807 W/m² 14,6 °C 23,9 °C 6,4 km/h (2 Bft)
26.07.2018 11:43 23,8 °C 57 % 1012,9 hPa 0,0 mm 4,2 km/h (1 Bft) O-NO 67 ° 1 min 0,000 mm 6,3 UV-I 807 W/m² 14,8 °C 23,8 °C 6,4 km/h (2 Bft)
26.07.2018 11:44 23,7 °C 59 % 1012,9 hPa 0,0 mm 3,5 km/h (1 Bft) O-NO 63 ° 1 min 0,000 mm 6,3 UV-I 809 W/m² 15,2 °C 23,7 °C 6,4 km/h (2 Bft)
26.07.2018 11:45 23,8 °C 59 % 1012,9 hPa 0,0 mm 6,2 km/h (2 Bft) O 87 ° 1 min 0,000 mm 6,3 UV-I 809 W/m² 15,3 °C 23,8 °C 11,3 km/h (2 Bft)
26.07.2018 11:46 23,7 °C 56 % 1012,9 hPa 0,0 mm 3,5 km/h (1 Bft) O-NO 71 ° 1 min 0,000 mm 6,3 UV-I 810 W/m² 14,4 °C 23,7 °C 6,4 km/h (2 Bft)
26.07.2018 11:47 23,7 °C 57 % 1012,8 hPa 0,0 mm 3,7 km/h (1 Bft) NO 53 ° 1 min 0,000 mm 6,3 UV-I 812 W/m² 14,7 °C 23,7 °C 6,4 km/h (2 Bft)
26.07.2018 11:48 23,7 °C 58 % 1012,8 hPa 0,0 mm 5,0 km/h (1 Bft) NO 55 ° 1 min 0,000 mm 6,4 UV-I 814 W/m² 14,9 °C 23,7 °C 6,4 km/h (2 Bft)
26.07.2018 11:49 23,7 °C 56 % 1012,8 hPa 0,0 mm 2,0 km/h (1 Bft) NO 53 ° 1 min 0,000 mm 6,4 UV-I 816 W/m² 14,4 °C 23,7 °C 4,8 km/h (1 Bft)
26.07.2018 11:50 23,8 °C 61 % 1012,8 hPa 0,0 mm 5,6 km/h (1 Bft) O 87 ° 1 min 0,000 mm 6,4 UV-I 817 W/m² 15,8 °C 23,8 °C 11,3 km/h (2 Bft)
26.07.2018 11:51 23,8 °C 57 % 1012,8 hPa 0,0 mm 8,2 km/h (2 Bft) O-NO 65 ° 1 min 0,000 mm 5,1 UV-I 817 W/m² 14,8 °C 23,8 °C 11,3 km/h (2 Bft)
26.07.2018 11:52 23,7 °C 55 % 1012,8 hPa 0,0 mm 3,2 km/h (1 Bft) N-NO 29 ° 1 min 0,000 mm 6,4 UV-I 817 W/m² 14,1 °C 23,7 °C 6,4 km/h (2 Bft)
26.07.2018 11:53 23,7 °C 57 % 1012,8 hPa 0,0 mm 5,1 km/h (1 Bft) N-NO 14 ° 1 min 0,000 mm 6,4 UV-I 819 W/m² 14,7 °C 23,7 °C 6,4 km/h (2 Bft)
26.07.2018 11:54 23,7 °C 57 % 1012,8 hPa 0,0 mm 5,4 km/h (1 Bft) O-NO 65 ° 1 min 0,000 mm 6,5 UV-I 823 W/m² 14,7 °C 23,7 °C 8,0 km/h (2 Bft)
26.07.2018 11:55 23,8 °C 58 % 1012,8 hPa 0,0 mm 2,9 km/h (1 Bft) NO 46 ° 1 min 0,000 mm 6,5 UV-I 824 W/m² 15,0 °C 23,8 °C 6,4 km/h (2 Bft)
26.07.2018 11:56 23,8 °C 58 % 1012,8 hPa 0,0 mm 3,6 km/h (1 Bft) NO 51 ° 1 min 0,000 mm 6,5 UV-I 824 W/m² 15,0 °C 23,8 °C 6,4 km/h (2 Bft)
26.07.2018 11:57 23,8 °C 58 % 1012,8 hPa 0,0 mm 2,2 km/h (1 Bft) O 83 ° 1 min 0,000 mm 6,5 UV-I 824 W/m² 15,0 °C 23,8 °C 6,4 km/h (2 Bft)
26.07.2018 11:58 23,9 °C 60 % 1012,8 hPa 0,0 mm 5,7 km/h (1 Bft) O-NO 60 ° 1 min 0,000 mm 6,5 UV-I 828 W/m² 15,7 °C 23,9 °C 8,0 km/h (2 Bft)
26.07.2018 11:59 24,0 °C 60 % 1012,8 hPa 0,0 mm 4,4 km/h (1 Bft) O-SO 106 ° 1 min 0,000 mm 6,5 UV-I 828 W/m² 15,7 °C 24,0 °C 9,7 km/h (2 Bft)
26.07.2018 12:00 24,1 °C 58 % 1012,8 hPa 0,0 mm 6,0 km/h (2 Bft) NO 40 ° 1 min 0,508 mm 6,6 UV-I 831 W/m² 15,3 °C 24,1 °C 11,3 km/h (2 Bft)
26.07.2018 12:01 24,1 °C 59 % 1012,8 hPa 0,0 mm 5,1 km/h (1 Bft) O 84 ° 1 min 0,000 mm 6,6 UV-I 833 W/m² 15,6 °C 24,1 °C 9,7 km/h (2 Bft)
26.07.2018 12:02 24,1 °C 62 % 1012,8 hPa 0,0 mm 9,9 km/h (2 Bft) O 97 ° 1 min 0,000 mm 6,6 UV-I 833 W/m² 16,4 °C 24,1 °C 14,5 km/h (3 Bft)
26.07.2018 12:03 24,0 °C 57 % 1012,8 hPa 0,0 mm 7,6 km/h (2 Bft) O 90 ° 1 min 0,000 mm 6,6 UV-I 835 W/m² 14,9 °C 24,0 °C 9,7 km/h (2 Bft)
26.07.2018 12:04 24,0 °C 58 % 1012,7 hPa 0,0 mm 5,1 km/h (1 Bft) O-NO 59 ° 1 min 0,000 mm 6,6 UV-I 838 W/m² 15,2 °C 24,0 °C 9,7 km/h (2 Bft)
26.07.2018 12:05 24,1 °C 59 % 1012,7 hPa 0,0 mm 5,9 km/h (2 Bft) O-NO 63 ° 1 min 0,000 mm 6,7 UV-I 837 W/m² 15,6 °C 24,1 °C 8,0 km/h (2 Bft)
26.07.2018 12:06 24,2 °C 58 % 1012,8 hPa 0,0 mm 6,2 km/h (2 Bft) O-SO 118 ° 1 min 0,000 mm 6,7 UV-I 838 W/m² 15,4 °C 24,2 °C 11,3 km/h (2 Bft)
26.07.2018 12:07 24,2 °C 56 % 1012,8 hPa 0,0 mm 6,0 km/h (2 Bft) O-NO 57 ° 1 min 0,000 mm 6,7 UV-I 837 W/m² 14,9 °C 24,2 °C 11,3 km/h (2 Bft)
26.07.2018 12:08 24,2 °C 61 % 1012,8 hPa 0,0 mm 7,2 km/h (2 Bft) O-SO 115 ° 1 min 0,000 mm 6,7 UV-I 838 W/m² 16,2 °C 24,2 °C 9,7 km/h (2 Bft)
26.07.2018 12:09 24,1 °C 56 % 1012,8 hPa 0,0 mm 5,1 km/h (1 Bft) O 99 ° 1 min 0,000 mm 6,7 UV-I 842 W/m² 14,8 °C 24,1 °C 8,0 km/h (2 Bft)
26.07.2018 12:10 24,0 °C 58 % 1012,7 hPa 0,0 mm 4,6 km/h (1 Bft) O-NO 71 ° 1 min 0,000 mm 6,7 UV-I 842 W/m² 15,2 °C 24,0 °C 6,4 km/h (2 Bft)
26.07.2018 12:11 24,0 °C 60 % 1012,7 hPa 0,0 mm 6,9 km/h (2 Bft) O-NO 69 ° 1 min 0,000 mm 6,7 UV-I 842 W/m² 15,7 °C 24,0 °C 11,3 km/h (2 Bft)
26.07.2018 12:12 24,2 °C 65 % 1012,8 hPa 0,0 mm 6,7 km/h (2 Bft) O 93 ° 1 min 0,000 mm 6,7 UV-I 842 W/m² 17,2 °C 24,2 °C 11,3 km/h (2 Bft)
26.07.2018 12:13 24,2 °C 56 % 1012,8 hPa 0,0 mm 7,8 km/h (2 Bft) O 86 ° 1 min 0,000 mm 6,7 UV-I 846 W/m² 14,9 °C 24,2 °C 11,3 km/h (2 Bft)
26.07.2018 12:14 24,1 °C 57 % 1012,8 hPa 0,0 mm 6,9 km/h (2 Bft) NO 46 ° 1 min 0,000 mm 6,7 UV-I 846 W/m² 15,0 °C 24,1 °C 11,3 km/h (2 Bft)
26.07.2018 12:15 24,1 °C 58 % 1012,7 hPa 0,0 mm 4,2 km/h (1 Bft) O-NO 62 ° 1 min 0,000 mm 6,8 UV-I 847 W/m² 15,3 °C 24,1 °C 6,4 km/h (2 Bft)
26.07.2018 12:16 24,1 °C 57 % 1012,8 hPa 0,0 mm 4,2 km/h (1 Bft) O-NO 61 ° 1 min 0,000 mm 6,7 UV-I 849 W/m² 15,0 °C 24,1 °C 8,0 km/h (2 Bft)
26.07.2018 12:17 24,1 °C 58 % 1012,7 hPa 0,0 mm 3,2 km/h (1 Bft) O 88 ° 1 min 0,000 mm 6,8 UV-I 849 W/m² 15,3 °C 24,1 °C 6,4 km/h (2 Bft)
26.07.2018 12:18 24,2 °C 59 % 1012,8 hPa 0,0 mm 6,8 km/h (2 Bft) O 97 ° 1 min 0,000 mm 6,8 UV-I 849 W/m² 15,7 °C 24,2 °C 11,3 km/h (2 Bft)
26.07.2018 12:19 24,2 °C 57 % 1012,8 hPa 0,0 mm 5,5 km/h (1 Bft) O-NO 63 ° 1 min 0,000 mm 6,8 UV-I 851 W/m² 15,1 °C 24,2 °C 12,9 km/h (3 Bft)
26.07.2018 12:20 24,1 °C 58 % 1012,7 hPa 0,0 mm 4,4 km/h (1 Bft) O 100 ° 1 min 0,000 mm 6,8 UV-I 854 W/m² 15,3 °C 24,1 °C 9,7 km/h (2 Bft)
26.07.2018 12:21 24,1 °C 57 % 1012,7 hPa 0,0 mm 4,2 km/h (1 Bft) O-SO 105 ° 1 min 0,000 mm 6,8 UV-I 854 W/m² 15,0 °C 24,1 °C 11,3 km/h (2 Bft)
26.07.2018 12:22 24,1 °C 58 % 1012,7 hPa 0,0 mm 7,2 km/h (2 Bft) NO 36 ° 1 min 0,000 mm 6,8 UV-I 854 W/m² 15,3 °C 24,1 °C 9,7 km/h (2 Bft)
26.07.2018 12:23 24,2 °C 56 % 1012,7 hPa 0,0 mm 6,0 km/h (2 Bft) NO 52 ° 1 min 0,000 mm 6,8 UV-I 856 W/m² 14,9 °C 24,2 °C 9,7 km/h (2 Bft)
26.07.2018 12:24 24,3 °C 59 % 1012,7 hPa 0,0 mm 5,4 km/h (1 Bft) N-NO 26 ° 1 min 0,000 mm 6,9 UV-I 856 W/m² 15,8 °C 24,3 °C 8,0 km/h (2 Bft)
26.07.2018 12:25 24,4 °C 55 % 1012,7 hPa 0,0 mm 4,9 km/h (1 Bft) N-NW 347 ° 1 min 0,000 mm 6,9 UV-I 860 W/m² 14,8 °C 24,4 °C 9,7 km/h (2 Bft)
26.07.2018 12:26 24,4 °C 58 % 1012,7 hPa 0,0 mm 4,0 km/h (1 Bft) O 86 ° 1 min 0,000 mm 6,9 UV-I 860 W/m² 15,6 °C 24,4 °C 8,0 km/h (2 Bft)
26.07.2018 12:27 24,5 °C 57 % 1012,7 hPa 0,0 mm 7,2 km/h (2 Bft) NO 55 ° 1 min 0,000 mm 6,8 UV-I 860 W/m² 15,4 °C 24,5 °C 11,3 km/h (2 Bft)
26.07.2018 12:28 24,4 °C 56 % 1012,7 hPa 0,0 mm 3,7 km/h (1 Bft) NO 50 ° 1 min 0,000 mm 6,8 UV-I 858 W/m² 15,0 °C 24,4 °C 6,4 km/h (2 Bft)
26.07.2018 12:29 24,3 °C 57 % 1012,7 hPa 0,0 mm 2,2 km/h (1 Bft) NO 42 ° 1 min 0,000 mm 6,8 UV-I 854 W/m² 15,2 °C 24,3 °C 3,2 km/h (1 Bft)
26.07.2018 12:30 24,3 °C 57 % 1012,7 hPa 0,0 mm 8,0 km/h (2 Bft) N 11 ° 1 min 0,000 mm 6,9 UV-I 861 W/m² 15,2 °C 24,3 °C 12,9 km/h (3 Bft)
26.07.2018 12:31 24,3 °C 54 % 1012,7 hPa 0,0 mm 11,2 km/h (2 Bft) N 5 ° 1 min 0,000 mm 7,0 UV-I 868 W/m² 14,4 °C 24,3 °C 16,1 km/h (3 Bft)
26.07.2018 12:32 24,4 °C 57 % 1012,6 hPa 0,0 mm 9,3 km/h (2 Bft) N-NW 340 ° 1 min 0,000 mm 7,0 UV-I 874 W/m² 15,3 °C 24,4 °C 12,9 km/h (3 Bft)
26.07.2018 12:33 24,5 °C 55 % 1012,6 hPa 0,0 mm 5,2 km/h (1 Bft) N-NW 344 ° 1 min 0,000 mm 7,0 UV-I 889 W/m² 14,9 °C 24,5 °C 8,0 km/h (2 Bft)
26.07.2018 12:34 24,7 °C 60 % 1012,6 hPa 0,0 mm 8,3 km/h (2 Bft) N 5 ° 1 min 0,000 mm 7,1 UV-I 900 W/m² 16,4 °C 24,7 °C 14,5 km/h (3 Bft)
26.07.2018 12:35 24,7 °C 56 % 1012,6 hPa 0,0 mm 5,0 km/h (1 Bft) N-NO 18 ° 1 min 0,000 mm 7,1 UV-I 905 W/m² 15,3 °C 24,7 °C 12,9 km/h (3 Bft)
26.07.2018 12:36 24,7 °C 55 % 1012,6 hPa 0,0 mm 9,1 km/h (2 Bft) N-NO 28 ° 1 min 0,000 mm 7,2 UV-I 921 W/m² 15,0 °C 24,7 °C 14,5 km/h (3 Bft)
26.07.2018 12:37 24,8 °C 57 % 1012,6 hPa 0,0 mm 6,2 km/h (2 Bft) NO 39 ° 1 min 0,000 mm 7,3 UV-I 932 W/m² 15,7 °C 24,8 °C 11,3 km/h (2 Bft)
26.07.2018 12:38 24,8 °C 58 % 1012,6 hPa 0,0 mm 4,0 km/h (1 Bft) NO 51 ° 1 min 0,000 mm 7,3 UV-I 933 W/m² 16,0 °C 24,8 °C 6,4 km/h (2 Bft)
26.07.2018 12:39 24,8 °C 55 % 1012,6 hPa 0,0 mm 9,4 km/h (2 Bft) O-NO 67 ° 1 min 0,000 mm 7,3 UV-I 926 W/m² 15,1 °C 24,8 °C 17,7 km/h (3 Bft)
26.07.2018 12:40 24,6 °C 54 % 1012,6 hPa 0,0 mm 10,8 km/h (2 Bft) O-NO 76 ° 1 min 0,000 mm 7,2 UV-I 921 W/m² 14,7 °C 24,6 °C 16,1 km/h (3 Bft)
26.07.2018 12:41 24,5 °C 56 % 1012,6 hPa 0,0 mm 7,0 km/h (2 Bft) N-NO 32 ° 1 min 0,000 mm 4,9 UV-I 939 W/m² 15,1 °C 24,5 °C 9,7 km/h (2 Bft)
26.07.2018 12:42 24,6 °C 54 % 1012,6 hPa 0,0 mm 4,5 km/h (1 Bft) O-NO 61 ° 1 min 0,000 mm 3,9 UV-I 939 W/m² 14,7 °C 24,6 °C 6,4 km/h (2 Bft)
26.07.2018 12:43 24,4 °C 56 % 1012,6 hPa 0,0 mm 6,0 km/h (2 Bft) O-NO 69 ° 1 min 0,000 mm 6,1 UV-I 636 W/m² 15,0 °C 24,4 °C 8,0 km/h (2 Bft)
26.07.2018 12:44 24,3 °C 57 % 1012,5 hPa 0,0 mm 2,9 km/h (1 Bft) O-NO 63 ° 1 min 0,000 mm 7,4 UV-I 636 W/m² 15,2 °C 24,3 °C 4,8 km/h (1 Bft)
26.07.2018 12:45 24,3 °C 57 % 1012,6 hPa 0,0 mm 4,2 km/h (1 Bft) NO 41 ° 1 min 0,000 mm 7,4 UV-I 939 W/m² 15,2 °C 24,3 °C 9,7 km/h (2 Bft)
26.07.2018 12:46 24,3 °C 57 % 1012,6 hPa 0,0 mm 5,7 km/h (1 Bft) NO 34 ° 1 min 0,000 mm 7,4 UV-I 940 W/m² 15,2 °C 24,3 °C 9,7 km/h (2 Bft)
26.07.2018 12:47 24,5 °C 59 % 1012,6 hPa 0,0 mm 2,5 km/h (1 Bft) O 88 ° 1 min 0,000 mm 7,4 UV-I 946 W/m² 15,9 °C 24,5 °C 4,8 km/h (1 Bft)
26.07.2018 12:48 24,6 °C 61 % 1012,6 hPa 0,0 mm 6,9 km/h (2 Bft) O-NO 61 ° 1 min 0,000 mm 7,3 UV-I 947 W/m² 16,6 °C 24,6 °C 9,7 km/h (2 Bft)
26.07.2018 12:49 24,6 °C 58 % 1012,5 hPa 0,0 mm 2,7 km/h (1 Bft) NO 44 ° 1 min 0,000 mm 7,4 UV-I 962 W/m² 15,8 °C 24,6 °C 6,4 km/h (2 Bft)
26.07.2018 12:50 24,6 °C 56 % 1012,6 hPa 0,0 mm 3,7 km/h (1 Bft) NO 48 ° 1 min 0,000 mm 7,4 UV-I 969 W/m² 15,2 °C 24,6 °C 8,0 km/h (2 Bft)
26.07.2018 12:51 24,6 °C 57 % 1012,5 hPa 0,0 mm 6,3 km/h (2 Bft) N-NO 17 ° 1 min 0,000 mm 7,4 UV-I 953 W/m² 15,5 °C 24,6 °C 8,0 km/h (2 Bft)
26.07.2018 12:52 24,8 °C 57 % 1012,6 hPa 0,0 mm 7,7 km/h (2 Bft) N 9 ° 1 min 0,000 mm 7,4 UV-I 939 W/m² 15,7 °C 24,8 °C 12,9 km/h (3 Bft)
26.07.2018 12:53 24,8 °C 55 % 1012,6 hPa 0,0 mm 6,6 km/h (2 Bft) O 82 ° 1 min 0,000 mm 7,4 UV-I 932 W/m² 15,1 °C 24,8 °C 12,9 km/h (3 Bft)
26.07.2018 12:54 24,8 °C 54 % 1012,6 hPa 0,0 mm 8,9 km/h (2 Bft) NO 39 ° 1 min 0,000 mm 7,4 UV-I 926 W/m² 14,8 °C 24,8 °C 14,5 km/h (3 Bft)
26.07.2018 12:55 24,8 °C 56 % 1012,5 hPa 0,0 mm 7,8 km/h (2 Bft) O 85 ° 1 min 0,000 mm 7,4 UV-I 925 W/m² 15,4 °C 24,8 °C 12,9 km/h (3 Bft)
26.07.2018 12:56 24,7 °C 53 % 1012,6 hPa 0,0 mm 2,3 km/h (1 Bft) O-NO 57 ° 1 min 0,000 mm 7,4 UV-I 923 W/m² 14,5 °C 24,7 °C 4,8 km/h (1 Bft)
26.07.2018 12:57 24,7 °C 55 % 1012,5 hPa 0,0 mm 5,9 km/h (2 Bft) SO 141 ° 1 min 0,000 mm 7,3 UV-I 918 W/m² 15,0 °C 24,7 °C 8,0 km/h (2 Bft)
26.07.2018 12:58 24,7 °C 54 % 1012,5 hPa 0,0 mm 4,5 km/h (1 Bft) O-SO 111 ° 1 min 0,000 mm 7,3 UV-I 923 W/m² 14,8 °C 24,7 °C 8,0 km/h (2 Bft)
26.07.2018 12:59 24,6 °C 57 % 1012,5 hPa 0,0 mm 14,4 km/h (3 Bft) O-SO 103 ° 1 min 0,000 mm 7,3 UV-I 930 W/m² 15,5 °C 24,6 °C 19,3 km/h (3 Bft)
26.07.2018 13:00 24,6 °C 57 % 1012,5 hPa 0,0 mm 6,5 km/h (2 Bft) O-NO 63 ° 1 min 0,000 mm 7,3 UV-I 935 W/m² 15,5 °C 24,6 °C 12,9 km/h (3 Bft)
26.07.2018 13:01 24,5 °C 59 % 1012,5 hPa 0,0 mm 2,6 km/h (1 Bft) O-NO 78 ° 1 min 0,584 mm 7,3 UV-I 942 W/m² 15,9 °C 24,5 °C 6,4 km/h (2 Bft)
26.07.2018 13:02 24,6 °C 61 % 1012,5 hPa 0,0 mm 6,0 km/h (2 Bft) O 80 ° 1 min 0,000 mm 7,3 UV-I 942 W/m² 16,6 °C 24,6 °C 12,9 km/h (3 Bft)
26.07.2018 13:03 24,7 °C 57 % 1012,6 hPa 0,0 mm 5,8 km/h (2 Bft) N-NO 19 ° 1 min 0,000 mm 4,5 UV-I 942 W/m² 15,6 °C 24,7 °C 12,9 km/h (3 Bft)
26.07.2018 13:04 24,6 °C 55 % 1012,6 hPa 0,0 mm 5,7 km/h (1 Bft) O-NO 70 ° 1 min 0,000 mm 7,5 UV-I 942 W/m² 14,9 °C 24,6 °C 11,3 km/h (2 Bft)
26.07.2018 13:05 24,5 °C 55 % 1012,6 hPa 0,0 mm 4,0 km/h (1 Bft) O-NO 57 ° 1 min 0,000 mm 7,3 UV-I 930 W/m² 14,9 °C 24,5 °C 8,0 km/h (2 Bft)
26.07.2018 13:06 24,5 °C 55 % 1012,6 hPa 0,0 mm 4,3 km/h (1 Bft) N-NO 30 ° 1 min 0,000 mm 7,2 UV-I 912 W/m² 14,9 °C 24,5 °C 8,0 km/h (2 Bft)
26.07.2018 13:07 24,4 °C 54 % 1012,5 hPa 0,0 mm 2,5 km/h (1 Bft) NO 47 ° 1 min 0,000 mm 7,2 UV-I 902 W/m² 14,5 °C 24,4 °C 3,2 km/h (1 Bft)
26.07.2018 13:08 24,4 °C 54 % 1012,5 hPa 0,0 mm 3,5 km/h (1 Bft) NO 46 ° 1 min 0,000 mm 7,2 UV-I 905 W/m² 14,5 °C 24,4 °C 6,4 km/h (2 Bft)
26.07.2018 13:09 24,4 °C 58 % 1012,5 hPa 0,0 mm 2,7 km/h (1 Bft) N 360 ° 1 min 0,000 mm 7,2 UV-I 909 W/m² 15,6 °C 24,4 °C 4,8 km/h (1 Bft)
26.07.2018 13:10 24,6 °C 57 % 1012,5 hPa 0,0 mm 5,3 km/h (1 Bft) N 11 ° 1 min 0,000 mm 7,3 UV-I 909 W/m² 15,5 °C 24,6 °C 8,0 km/h (2 Bft)
26.07.2018 13:11 24,6 °C 54 % 1012,5 hPa 0,0 mm 5,2 km/h (1 Bft) N-NW 342 ° 1 min 0,000 mm 7,3 UV-I 911 W/m² 14,7 °C 24,6 °C 6,4 km/h (2 Bft)
26.07.2018 13:12 24,6 °C 54 % 1012,4 hPa 0,0 mm 5,2 km/h (1 Bft) N 355 ° 1 min 0,000 mm 7,4 UV-I 914 W/m² 14,7 °C 24,6 °C 8,0 km/h (2 Bft)
26.07.2018 13:13 24,6 °C 59 % 1012,5 hPa 0,0 mm 3,0 km/h (1 Bft) NO 36 ° 1 min 0,000 mm 7,4 UV-I 923 W/m² 16,0 °C 24,6 °C 8,0 km/h (2 Bft)
26.07.2018 13:14 24,6 °C 59 % 1012,5 hPa 0,0 mm 3,8 km/h (1 Bft) O-NO 58 ° 1 min 0,000 mm 4,7 UV-I 923 W/m² 16,0 °C 24,6 °C 6,4 km/h (2 Bft)
26.07.2018 13:15 24,6 °C 54 % 1012,5 hPa 0,0 mm 4,4 km/h (1 Bft) NO 49 ° 0 min 0,000 mm 3,3 UV-I 132 W/m² 14,7 °C 24,6 °C 8,0 km/h (2 Bft)
26.07.2018 13:16 24,5 °C 54 % 1012,5 hPa 0,0 mm 4,4 km/h (1 Bft) O-NO 69 ° 0 min 0,000 mm 3,2 UV-I 141 W/m² 14,6 °C 24,5 °C 9,7 km/h (2 Bft)
26.07.2018 13:17 24,4 °C 54 % 1012,5 hPa 0,0 mm 9,1 km/h (2 Bft) O 94 ° 0 min 0,000 mm 4,1 UV-I 171 W/m² 14,5 °C 24,4 °C 12,9 km/h (3 Bft)
26.07.2018 13:18 24,3 °C 56 % 1012,5 hPa 0,0 mm 7,4 km/h (2 Bft) NO 50 ° 0 min 0,000 mm 7,3 UV-I 171 W/m² 14,9 °C 24,3 °C 14,5 km/h (3 Bft)
26.07.2018 13:19 24,3 °C 57 % 1012,5 hPa 0,0 mm 4,7 km/h (1 Bft) N 355 ° 1 min 0,000 mm 7,4 UV-I 953 W/m² 15,2 °C 24,3 °C 11,3 km/h (2 Bft)
26.07.2018 13:20 24,5 °C 55 % 1012,5 hPa 0,0 mm 7,6 km/h (2 Bft) N 355 ° 1 min 0,000 mm 7,4 UV-I 932 W/m² 14,9 °C 24,5 °C 12,9 km/h (3 Bft)
26.07.2018 13:21 24,7 °C 55 % 1012,4 hPa 0,0 mm 3,0 km/h (1 Bft) NO 51 ° 1 min 0,000 mm 7,4 UV-I 881 W/m² 15,0 °C 24,7 °C 6,4 km/h (2 Bft)
26.07.2018 13:22 24,7 °C 52 % 1012,4 hPa 0,0 mm 0,1 km/h (0 Bft) NO 51 ° 1 min 0,000 mm 7,4 UV-I 926 W/m² 14,2 °C 24,7 °C 1,6 km/h (1 Bft)
26.07.2018 13:23 24,7 °C 51 % 1012,4 hPa 0,0 mm 0,0 km/h (0 Bft) NO 51 ° 1 min 0,000 mm 7,3 UV-I 925 W/m² 13,9 °C 24,7 °C 0,0 km/h (0 Bft)
26.07.2018 13:24 24,8 °C 55 % 1012,5 hPa 0,0 mm 1,1 km/h (1 Bft) NO 51 ° 1 min 0,000 mm 7,3 UV-I 923 W/m² 15,1 °C 24,8 °C 4,8 km/h (1 Bft)
26.07.2018 13:25 25,0 °C 53 % 1012,5 hPa 0,0 mm 7,2 km/h (2 Bft) NO 39 ° 1 min 0,000 mm 7,3 UV-I 925 W/m² 14,7 °C 25,0 °C 11,3 km/h (2 Bft)
26.07.2018 13:26 25,1 °C 50 % 1012,4 hPa 0,0 mm 3,7 km/h (1 Bft) N-NO 32 ° 1 min 0,000 mm 7,4 UV-I 925 W/m² 13,9 °C 25,1 °C 11,3 km/h (2 Bft)
26.07.2018 13:27 25,1 °C 51 % 1012,4 hPa 0,0 mm 4,6 km/h (1 Bft) N-NW 348 ° 1 min 0,000 mm 7,4 UV-I 930 W/m² 14,2 °C 25,1 °C 8,0 km/h (2 Bft)
26.07.2018 13:28 25,2 °C 52 % 1012,4 hPa 0,0 mm 6,4 km/h (2 Bft) O 80 ° 1 min 0,000 mm 7,4 UV-I 937 W/m² 14,6 °C 25,2 °C 17,7 km/h (3 Bft)
26.07.2018 13:29 25,2 °C 51 % 1012,5 hPa 0,0 mm 12,0 km/h (2 Bft) O 92 ° 1 min 0,000 mm 7,4 UV-I 939 W/m² 14,3 °C 25,2 °C 17,7 km/h (3 Bft)
26.07.2018 13:30 25,2 °C 54 % 1012,4 hPa 0,0 mm 4,1 km/h (1 Bft) NO 38 ° 1 min 0,000 mm 7,5 UV-I 949 W/m² 15,2 °C 25,2 °C 4,8 km/h (1 Bft)
26.07.2018 13:31 25,2 °C 53 % 1012,4 hPa 0,0 mm 6,9 km/h (2 Bft) O-NO 74 ° 1 min 0,000 mm 7,5 UV-I 951 W/m² 14,9 °C 25,2 °C 12,9 km/h (3 Bft)
26.07.2018 13:32 25,3 °C 53 % 1012,5 hPa 0,0 mm 5,7 km/h (1 Bft) O-NO 76 ° 1 min 0,000 mm 7,5 UV-I 942 W/m² 15,0 °C 25,3 °C 8,0 km/h (2 Bft)
26.07.2018 13:33 25,2 °C 51 % 1012,4 hPa 0,0 mm 4,8 km/h (1 Bft) NO 42 ° 1 min 0,000 mm 7,5 UV-I 942 W/m² 14,3 °C 25,2 °C 6,4 km/h (2 Bft)
26.07.2018 13:34 25,3 °C 53 % 1012,5 hPa 0,0 mm 1,7 km/h (1 Bft) O-NO 57 ° 1 min 0,000 mm 7,5 UV-I 944 W/m² 15,0 °C 25,3 °C 4,8 km/h (1 Bft)
26.07.2018 13:35 25,3 °C 50 % 1012,5 hPa 0,0 mm 4,3 km/h (1 Bft) O-NO 64 ° 1 min 0,000 mm 7,4 UV-I 942 W/m² 14,1 °C 25,3 °C 6,4 km/h (2 Bft)
26.07.2018 13:36 25,2 °C 52 % 1012,4 hPa 0,0 mm 4,8 km/h (1 Bft) O 85 ° 1 min 0,000 mm 7,4 UV-I 956 W/m² 14,6 °C 25,2 °C 6,4 km/h (2 Bft)
26.07.2018 13:37 25,2 °C 51 % 1012,4 hPa 0,0 mm 5,4 km/h (1 Bft) NO 37 ° 1 min 0,000 mm 7,5 UV-I 976 W/m² 14,3 °C 25,2 °C 11,3 km/h (2 Bft)
26.07.2018 13:38 25,2 °C 52 % 1012,4 hPa 0,0 mm 10,4 km/h (2 Bft) O-NO 57 ° 1 min 0,000 mm 7,4 UV-I 976 W/m² 14,6 °C 25,2 °C 16,1 km/h (3 Bft)
26.07.2018 13:39 25,3 °C 51 % 1012,4 hPa 0,0 mm 7,8 km/h (2 Bft) O 84 ° 1 min 0,000 mm 7,4 UV-I 979 W/m² 14,4 °C 25,3 °C 12,9 km/h (3 Bft)
26.07.2018 13:40 25,2 °C 49 % 1012,3 hPa 0,0 mm 6,3 km/h (2 Bft) O 95 ° 1 min 0,000 mm 7,4 UV-I 979 W/m² 13,7 °C 25,2 °C 11,3 km/h (2 Bft)
26.07.2018 13:41 25,0 °C 50 % 1012,3 hPa 0,0 mm 3,2 km/h (1 Bft) NO 46 ° 1 min 0,000 mm 7,3 UV-I 981 W/m² 13,8 °C 25,0 °C 4,8 km/h (1 Bft)
26.07.2018 13:42 25,0 °C 54 % 1012,3 hPa 0,0 mm 6,9 km/h (2 Bft) O 96 ° 1 min 0,000 mm 7,2 UV-I 977 W/m² 15,0 °C 25,0 °C 12,9 km/h (3 Bft)
26.07.2018 13:43 25,1 °C 52 % 1012,4 hPa 0,0 mm 9,7 km/h (2 Bft) O 92 ° 1 min 0,000 mm 7,2 UV-I 981 W/m² 14,5 °C 25,1 °C 12,9 km/h (3 Bft)
26.07.2018 13:44 25,0 °C 50 % 1012,3 hPa 0,0 mm 7,7 km/h (2 Bft) O-NO 76 ° 1 min 0,000 mm 7,2 UV-I 983 W/m² 13,8 °C 25,0 °C 11,3 km/h (2 Bft)
26.07.2018 13:45 24,9 °C 52 % 1012,3 hPa 0,0 mm 5,2 km/h (1 Bft) NO 53 ° 1 min 0,000 mm 7,1 UV-I 977 W/m² 14,4 °C 24,9 °C 6,4 km/h (2 Bft)
26.07.2018 13:46 24,9 °C 54 % 1012,3 hPa 0,0 mm 4,2 km/h (1 Bft) O 95 ° 1 min 0,000 mm 4,3 UV-I 977 W/m² 14,9 °C 24,9 °C 8,0 km/h (2 Bft)
26.07.2018 13:47 25,0 °C 53 % 1012,3 hPa 0,0 mm 5,8 km/h (2 Bft) O-SO 108 ° 1 min 0,000 mm 3,1 UV-I 977 W/m² 14,7 °C 25,0 °C 9,7 km/h (2 Bft)
26.07.2018 13:48 24,9 °C 53 % 1012,3 hPa 0,0 mm 1,7 km/h (1 Bft) O-SO 109 ° 1 min 0,000 mm 3,0 UV-I 977 W/m² 14,6 °C 24,9 °C 4,8 km/h (1 Bft)
26.07.2018 13:49 24,7 °C 53 % 1012,3 hPa 0,0 mm 2,1 km/h (1 Bft) O-NO 76 ° 0 min 0,000 mm 3,1 UV-I 127 W/m² 14,5 °C 24,7 °C 4,8 km/h (1 Bft)
26.07.2018 13:50 24,5 °C 55 % 1012,4 hPa 0,0 mm 2,8 km/h (1 Bft) O-NO 60 ° 0 min 0,000 mm 4,5 UV-I 209 W/m² 14,9 °C 24,5 °C 4,8 km/h (1 Bft)
26.07.2018 13:51 24,4 °C 53 % 1012,3 hPa 0,0 mm 1,4 km/h (1 Bft) O-NO 62 ° 1 min 0,000 mm 7,2 UV-I 933 W/m² 14,2 °C 24,4 °C 4,8 km/h (1 Bft)
26.07.2018 13:52 24,4 °C 55 % 1012,3 hPa 0,0 mm 2,6 km/h (1 Bft) O-NO 64 ° 1 min 0,000 mm 7,3 UV-I 933 W/m² 14,8 °C 24,4 °C 4,8 km/h (1 Bft)
26.07.2018 13:53 24,6 °C 58 % 1012,3 hPa 0,0 mm 2,9 km/h (1 Bft) O-NO 69 ° 1 min 0,000 mm 7,3 UV-I 935 W/m² 15,8 °C 24,6 °C 4,8 km/h (1 Bft)
26.07.2018 13:54 24,7 °C 52 % 1012,3 hPa 0,0 mm 0,9 km/h (0 Bft) O-NO 69 ° 1 min 0,000 mm 7,3 UV-I 939 W/m² 14,2 °C 24,7 °C 4,8 km/h (1 Bft)
26.07.2018 13:55 24,8 °C 55 % 1012,3 hPa 0,0 mm 4,5 km/h (1 Bft) NO 43 ° 1 min 0,000 mm 7,3 UV-I 946 W/m² 15,1 °C 24,8 °C 6,4 km/h (2 Bft)
26.07.2018 13:56 25,0 °C 52 % 1012,3 hPa 0,0 mm 8,0 km/h (2 Bft) N-NO 26 ° 1 min 0,000 mm 7,3 UV-I 951 W/m² 14,4 °C 25,0 °C 12,9 km/h (3 Bft)
26.07.2018 13:57 25,2 °C 50 % 1012,2 hPa 0,0 mm 7,2 km/h (2 Bft) O-NO 57 ° 1 min 0,000 mm 7,4 UV-I 963 W/m² 14,0 °C 25,2 °C 11,3 km/h (2 Bft)
26.07.2018 13:58 25,2 °C 49 % 1012,3 hPa 0,0 mm 4,4 km/h (1 Bft) O 82 ° 1 min 0,000 mm 7,4 UV-I 972 W/m² 13,7 °C 25,2 °C 8,0 km/h (2 Bft)
26.07.2018 13:59 25,2 °C 53 % 1012,3 hPa 0,0 mm 9,2 km/h (2 Bft) O 86 ° 1 min 0,000 mm 7,3 UV-I 974 W/m² 14,9 °C 25,2 °C 14,5 km/h (3 Bft)
26.07.2018 14:00 25,1 °C 50 % 1012,3 hPa 0,0 mm 9,2 km/h (2 Bft) NO 39 ° 1 min 0,000 mm 7,3 UV-I 974 W/m² 13,9 °C 25,1 °C 14,5 km/h (3 Bft)
26.07.2018 14:01 25,2 °C 52 % 1012,2 hPa 0,0 mm 5,1 km/h (1 Bft) N-NW 342 ° 1 min 0,559 mm 7,3 UV-I 991 W/m² 14,6 °C 25,2 °C 9,7 km/h (2 Bft)
26.07.2018 14:02 25,4 °C 51 % 1012,2 hPa 0,0 mm 4,5 km/h (1 Bft) N-NO 19 ° 1 min 0,000 mm 7,3 UV-I 986 W/m² 14,5 °C 25,4 °C 8,0 km/h (2 Bft)
26.07.2018 14:03 25,6 °C 51 % 1012,2 hPa 0,0 mm 4,2 km/h (1 Bft) N 11 ° 1 min 0,000 mm 7,2 UV-I 977 W/m² 14,7 °C 25,6 °C 6,4 km/h (2 Bft)
26.07.2018 14:04 25,8 °C 49 % 1012,1 hPa 0,0 mm 5,1 km/h (1 Bft) O-NO 72 ° 1 min 0,000 mm 7,1 UV-I 967 W/m² 14,3 °C 25,8 °C 9,7 km/h (2 Bft)
26.07.2018 14:05 25,7 °C 51 % 1012,2 hPa 0,0 mm 5,0 km/h (1 Bft) O-NO 75 ° 1 min 0,000 mm 7,3 UV-I 967 W/m² 14,8 °C 25,7 °C 11,3 km/h (2 Bft)
26.07.2018 14:06 25,6 °C 50 % 1012,2 hPa 0,0 mm 5,9 km/h (2 Bft) O-SO 107 ° 1 min 0,000 mm 7,3 UV-I 967 W/m² 14,4 °C 25,6 °C 11,3 km/h (2 Bft)
26.07.2018 14:07 25,4 °C 52 % 1012,2 hPa 0,0 mm 8,6 km/h (2 Bft) O 81 ° 1 min 0,000 mm 7,4 UV-I 962 W/m² 14,8 °C 25,4 °C 17,7 km/h (3 Bft)
26.07.2018 14:08 25,4 °C 54 % 1012,2 hPa 0,0 mm 7,6 km/h (2 Bft) NO 51 ° 1 min 0,000 mm 7,3 UV-I 956 W/m² 15,4 °C 25,4 °C 9,7 km/h (2 Bft)
26.07.2018 14:09 25,4 °C 53 % 1012,2 hPa 0,0 mm 7,0 km/h (2 Bft) N-NO 15 ° 1 min 0,000 mm 7,2 UV-I 953 W/m² 15,1 °C 25,4 °C 11,3 km/h (2 Bft)
26.07.2018 14:10 25,5 °C 53 % 1012,2 hPa 0,0 mm 4,8 km/h (1 Bft) N-NO 30 ° 1 min 0,000 mm 7,1 UV-I 960 W/m² 15,2 °C 25,5 °C 8,0 km/h (2 Bft)
26.07.2018 14:11 25,6 °C 52 % 1012,2 hPa 0,0 mm 7,8 km/h (2 Bft) N-NO 18 ° 1 min 0,000 mm 7,0 UV-I 979 W/m² 15,0 °C 25,6 °C 16,1 km/h (3 Bft)
26.07.2018 14:12 25,7 °C 52 % 1012,1 hPa 0,0 mm 4,1 km/h (1 Bft) NO 35 ° 1 min 0,000 mm 3,6 UV-I 979 W/m² 15,1 °C 25,7 °C 6,4 km/h (2 Bft)
26.07.2018 14:13 25,6 °C 53 % 1012,3 hPa 0,0 mm 6,6 km/h (2 Bft) O-NO 58 ° 0 min 0,000 mm 3,8 UV-I 285 W/m² 15,3 °C 25,6 °C 9,7 km/h (2 Bft)
26.07.2018 14:14 25,3 °C 52 % 1012,2 hPa 0,0 mm 3,4 km/h (1 Bft) O 80 ° 0 min 0,000 mm 7,3 UV-I 285 W/m² 14,7 °C 25,3 °C 6,4 km/h (2 Bft)
26.07.2018 14:15 25,3 °C 57 % 1012,2 hPa 0,0 mm 6,5 km/h (2 Bft) O 92 ° 0 min 0,000 mm 6,7 UV-I 285 W/m² 16,2 °C 25,3 °C 12,9 km/h (3 Bft)
26.07.2018 14:16 25,2 °C 54 % 1012,2 hPa 0,0 mm 7,7 km/h (2 Bft) O-NO 74 ° 0 min 0,000 mm 3,9 UV-I 285 W/m² 15,2 °C 25,2 °C 16,1 km/h (3 Bft)
26.07.2018 14:17 25,2 °C 54 % 1012,1 hPa 0,0 mm 7,5 km/h (2 Bft) O-NO 71 ° 0 min 0,000 mm 7,3 UV-I 285 W/m² 15,2 °C 25,2 °C 14,5 km/h (3 Bft)
26.07.2018 14:18 25,1 °C 53 % 1012,1 hPa 0,0 mm 9,6 km/h (2 Bft) N-NW 344 ° 1 min 0,000 mm 7,4 UV-I 1032 W/m² 14,8 °C 25,1 °C 12,9 km/h (3 Bft)
26.07.2018 14:19 25,2 °C 55 % 1012,1 hPa 0,0 mm 5,6 km/h (1 Bft) N-NW 327 ° 1 min 0,000 mm 7,2 UV-I 991 W/m² 15,5 °C 25,2 °C 8,0 km/h (2 Bft)
26.07.2018 14:20 25,3 °C 57 % 1012,1 hPa 0,0 mm 3,2 km/h (1 Bft) O 94 ° 1 min 0,000 mm 5,9 UV-I 960 W/m² 16,2 °C 25,3 °C 4,8 km/h (1 Bft)
26.07.2018 14:21 25,3 °C 52 % 1012,1 hPa 0,0 mm 4,6 km/h (1 Bft) O-NO 63 ° 1 min 0,000 mm 3,1 UV-I 960 W/m² 14,7 °C 25,3 °C 11,3 km/h (2 Bft)
26.07.2018 14:22 25,2 °C 52 % 1012,1 hPa 0,0 mm 7,3 km/h (2 Bft) NO 49 ° 0 min 0,000 mm 3,0 UV-I 178 W/m² 14,6 °C 25,2 °C 17,7 km/h (3 Bft)
26.07.2018 14:23 25,1 °C 52 % 1012,1 hPa 0,0 mm 8,6 km/h (2 Bft) O-NO 67 ° 0 min 0,000 mm 2,9 UV-I 163 W/m² 14,5 °C 25,1 °C 12,9 km/h (3 Bft)
26.07.2018 14:24 24,8 °C 53 % 1012,1 hPa 0,0 mm 4,0 km/h (1 Bft) N-NW 347 ° 0 min 0,000 mm 2,9 UV-I 153 W/m² 14,6 °C 24,8 °C 6,4 km/h (2 Bft)
26.07.2018 14:25 24,7 °C 53 % 1012,2 hPa 0,0 mm 7,4 km/h (2 Bft) NO 49 ° 0 min 0,000 mm 2,9 UV-I 158 W/m² 14,5 °C 24,7 °C 11,3 km/h (2 Bft)
26.07.2018 14:26 24,6 °C 55 % 1012,2 hPa 0,0 mm 9,7 km/h (2 Bft) O-NO 73 ° 0 min 0,000 mm 3,2 UV-I 185 W/m² 14,9 °C 24,6 °C 14,5 km/h (3 Bft)
26.07.2018 14:27 24,3 °C 55 % 1012,2 hPa 0,0 mm 5,7 km/h (1 Bft) O-NO 69 ° 0 min 0,000 mm 3,4 UV-I 199 W/m² 14,7 °C 24,3 °C 12,9 km/h (3 Bft)
26.07.2018 14:28 24,3 °C 54 % 1012,1 hPa 0,0 mm 3,4 km/h (1 Bft) O-NO 58 ° 0 min 0,000 mm 5,5 UV-I 199 W/m² 14,4 °C 24,3 °C 8,0 km/h (2 Bft)
26.07.2018 14:29 24,2 °C 56 % 1012,1 hPa 0,0 mm 1,5 km/h (1 Bft) O-NO 59 ° 0 min 0,000 mm 6,6 UV-I 199 W/m² 14,9 °C 24,2 °C 3,2 km/h (1 Bft)
26.07.2018 14:30 24,2 °C 57 % 1012,1 hPa 0,0 mm 3,8 km/h (1 Bft) O-NO 61 ° 0 min 0,000 mm 6,7 UV-I 199 W/m² 15,1 °C 24,2 °C 6,4 km/h (2 Bft)
26.07.2018 14:31 24,3 °C 55 % 1012,1 hPa 0,0 mm 5,5 km/h (1 Bft) N-NO 30 ° 1 min 0,000 mm 6,7 UV-I 877 W/m² 14,7 °C 24,3 °C 8,0 km/h (2 Bft)
26.07.2018 14:32 24,5 °C 53 % 1012,1 hPa 0,0 mm 7,7 km/h (2 Bft) O 96 ° 1 min 0,000 mm 6,7 UV-I 874 W/m² 14,3 °C 24,5 °C 14,5 km/h (3 Bft)
26.07.2018 14:33 24,6 °C 55 % 1012,1 hPa 0,0 mm 4,9 km/h (1 Bft) NO 43 ° 1 min 0,000 mm 6,7 UV-I 870 W/m² 14,9 °C 24,6 °C 9,7 km/h (2 Bft)
26.07.2018 14:34 24,8 °C 56 % 1012,1 hPa 0,0 mm 9,1 km/h (2 Bft) O-NO 58 ° 1 min 0,000 mm 6,7 UV-I 872 W/m² 15,4 °C 24,8 °C 14,5 km/h (3 Bft)
26.07.2018 14:35 24,9 °C 52 % 1012,1 hPa 0,0 mm 5,4 km/h (1 Bft) NO 53 ° 1 min 0,000 mm 6,7 UV-I 879 W/m² 14,4 °C 24,9 °C 11,3 km/h (2 Bft)
26.07.2018 14:36 25,2 °C 53 % 1012,1 hPa 0,0 mm 3,8 km/h (1 Bft) NO 53 ° 1 min 0,000 mm 6,8 UV-I 891 W/m² 14,9 °C 25,2 °C 4,8 km/h (1 Bft)
26.07.2018 14:37 25,2 °C 51 % 1012,1 hPa 0,0 mm 1,4 km/h (1 Bft) N-NO 23 ° 1 min 0,000 mm 6,8 UV-I 891 W/m² 14,3 °C 25,2 °C 4,8 km/h (1 Bft)
26.07.2018 14:38 25,3 °C 55 % 1012,0 hPa 0,0 mm 1,7 km/h (1 Bft) N-NO 16 ° 1 min 0,000 mm 6,7 UV-I 891 W/m² 15,6 °C 25,3 °C 4,8 km/h (1 Bft)
26.07.2018 14:39 25,5 °C 57 % 1012,0 hPa 0,0 mm 5,9 km/h (2 Bft) O-SO 103 ° 1 min 0,000 mm 6,7 UV-I 889 W/m² 16,3 °C 25,5 °C 9,7 km/h (2 Bft)
26.07.2018 14:40 25,4 °C 50 % 1012,1 hPa 0,0 mm 5,5 km/h (1 Bft) NO 38 ° 1 min 0,000 mm 5,3 UV-I 889 W/m² 14,2 °C 25,4 °C 11,3 km/h (2 Bft)
26.07.2018 14:41 25,4 °C 52 % 1012,1 hPa 0,0 mm 3,3 km/h (1 Bft) O 82 ° 1 min 0,000 mm 6,3 UV-I 889 W/m² 14,8 °C 25,4 °C 4,8 km/h (1 Bft)
26.07.2018 14:42 25,3 °C 52 % 1012,0 hPa 0,0 mm 2,9 km/h (1 Bft) NO 47 ° 1 min 0,000 mm 6,7 UV-I 889 W/m² 14,7 °C 25,3 °C 8,0 km/h (2 Bft)
26.07.2018 14:43 25,3 °C 51 % 1012,0 hPa 0,0 mm 4,6 km/h (1 Bft) SO 134 ° 1 min 0,000 mm 6,5 UV-I 863 W/m² 14,4 °C 25,3 °C 9,7 km/h (2 Bft)
26.07.2018 14:44 25,3 °C 55 % 1012,0 hPa 0,0 mm 5,8 km/h (2 Bft) O 100 ° 1 min 0,000 mm 6,5 UV-I 851 W/m² 15,6 °C 25,3 °C 9,7 km/h (2 Bft)
26.07.2018 14:45 25,4 °C 54 % 1012,0 hPa 0,0 mm 6,9 km/h (2 Bft) NO 41 ° 1 min 0,000 mm 6,6 UV-I 851 W/m² 15,4 °C 25,4 °C 14,5 km/h (3 Bft)
26.07.2018 14:46 25,3 °C 51 % 1012,0 hPa 0,0 mm 8,2 km/h (2 Bft) O-NO 74 ° 1 min 0,000 mm 6,6 UV-I 853 W/m² 14,4 °C 25,3 °C 14,5 km/h (3 Bft)
26.07.2018 14:47 25,4 °C 51 % 1012,0 hPa 0,0 mm 9,4 km/h (2 Bft) SO 142 ° 1 min 0,000 mm 6,5 UV-I 851 W/m² 14,5 °C 25,4 °C 12,9 km/h (3 Bft)
26.07.2018 14:48 25,3 °C 51 % 1012,0 hPa 0,0 mm 6,5 km/h (2 Bft) O 96 ° 1 min 0,000 mm 6,5 UV-I 853 W/m² 14,4 °C 25,3 °C 11,3 km/h (2 Bft)
26.07.2018 14:49 25,3 °C 50 % 1012,0 hPa 0,0 mm 3,5 km/h (1 Bft) O-NO 66 ° 1 min 0,000 mm 6,5 UV-I 853 W/m² 14,1 °C 25,3 °C 9,7 km/h (2 Bft)
26.07.2018 14:50 25,3 °C 50 % 1012,0 hPa 0,0 mm 7,4 km/h (2 Bft) O-NO 76 ° 1 min 0,000 mm 6,5 UV-I 851 W/m² 14,1 °C 25,3 °C 12,9 km/h (3 Bft)
26.07.2018 14:51 25,3 °C 52 % 1012,0 hPa 0,0 mm 6,6 km/h (2 Bft) O-NO 76 ° 1 min 0,000 mm 6,5 UV-I 854 W/m² 14,7 °C 25,3 °C 11,3 km/h (2 Bft)
26.07.2018 14:52 25,3 °C 51 % 1012,0 hPa 0,0 mm 5,2 km/h (1 Bft) O 87 ° 1 min 0,000 mm 6,5 UV-I 853 W/m² 14,4 °C 25,3 °C 9,7 km/h (2 Bft)
26.07.2018 14:53 25,4 °C 51 % 1012,0 hPa 0,0 mm 11,0 km/h (2 Bft) S-SO 167 ° 1 min 0,000 mm 6,5 UV-I 856 W/m² 14,5 °C 25,4 °C 17,7 km/h (3 Bft)
26.07.2018 14:54 25,4 °C 51 % 1012,0 hPa 0,0 mm 6,9 km/h (2 Bft) NO 49 ° 1 min 0,000 mm 6,5 UV-I 861 W/m² 14,5 °C 25,4 °C 11,3 km/h (2 Bft)
26.07.2018 14:55 25,3 °C 50 % 1011,9 hPa 0,0 mm 3,9 km/h (1 Bft) O-NO 57 ° 1 min 0,000 mm 6,4 UV-I 854 W/m² 14,1 °C 25,3 °C 6,4 km/h (2 Bft)
26.07.2018 14:56 25,4 °C 52 % 1012,0 hPa 0,0 mm 3,2 km/h (1 Bft) NO 34 ° 1 min 0,000 mm 6,4 UV-I 849 W/m² 14,8 °C 25,4 °C 9,7 km/h (2 Bft)
26.07.2018 14:57 25,5 °C 51 % 1012,0 hPa 0,0 mm 5,3 km/h (1 Bft) O-NO 61 ° 1 min 0,000 mm 6,4 UV-I 854 W/m² 14,6 °C 25,5 °C 12,9 km/h (3 Bft)
26.07.2018 14:58 25,6 °C 51 % 1012,0 hPa 0,0 mm 6,0 km/h (2 Bft) NO 49 ° 1 min 0,000 mm 6,5 UV-I 863 W/m² 14,7 °C 25,6 °C 9,7 km/h (2 Bft)
26.07.2018 14:59 25,7 °C 49 % 1012,0 hPa 0,0 mm 5,4 km/h (1 Bft) O 92 ° 1 min 0,000 mm 6,5 UV-I 872 W/m² 14,2 °C 25,7 °C 14,5 km/h (3 Bft)
26.07.2018 15:00 25,6 °C 51 % 1011,9 hPa 0,0 mm 1,0 km/h (0 Bft) O 91 ° 1 min 0,533 mm 6,5 UV-I 888 W/m² 14,7 °C 25,6 °C 3,2 km/h (1 Bft)
26.07.2018 15:01 25,6 °C 49 % 1011,9 hPa 0,0 mm 3,5 km/h (1 Bft) O-NO 66 ° 1 min 0,000 mm 6,4 UV-I 888 W/m² 14,1 °C 25,6 °C 6,4 km/h (2 Bft)
26.07.2018 15:02 25,7 °C 52 % 1011,9 hPa 0,0 mm 6,2 km/h (2 Bft) N 360 ° 1 min 0,000 mm 6,5 UV-I 888 W/m² 15,1 °C 25,7 °C 12,9 km/h (3 Bft)
26.07.2018 15:03 25,7 °C 52 % 1011,9 hPa 0,0 mm 5,0 km/h (1 Bft) NW 315 ° 1 min 0,000 mm 6,5 UV-I 925 W/m² 15,1 °C 25,7 °C 8,0 km/h (2 Bft)
26.07.2018 15:04 25,7 °C 53 % 1011,9 hPa 0,0 mm 6,2 km/h (2 Bft) NO 34 ° 1 min 0,000 mm 6,3 UV-I 928 W/m² 15,4 °C 25,7 °C 12,9 km/h (3 Bft)
26.07.2018 15:05 25,8 °C 52 % 1011,8 hPa 0,0 mm 6,9 km/h (2 Bft) O-NO 59 ° 1 min 0,000 mm 6,2 UV-I 944 W/m² 15,2 °C 25,8 °C 9,7 km/h (2 Bft)
26.07.2018 15:06 25,8 °C 50 % 1011,9 hPa 0,0 mm 7,2 km/h (2 Bft) N-NO 29 ° 0 min 0,000 mm 3,1 UV-I 207 W/m² 14,6 °C 25,8 °C 12,9 km/h (3 Bft)
26.07.2018 15:07 25,7 °C 51 % 1011,9 hPa 0,0 mm 6,8 km/h (2 Bft) NO 43 ° 0 min 0,000 mm 2,9 UV-I 199 W/m² 14,8 °C 25,7 °C 12,9 km/h (3 Bft)
26.07.2018 15:08 25,6 °C 53 % 1011,9 hPa 0,0 mm 6,5 km/h (2 Bft) NO 40 ° 0 min 0,000 mm 2,8 UV-I 186 W/m² 15,3 °C 25,6 °C 14,5 km/h (3 Bft)
26.07.2018 15:09 25,3 °C 51 % 1011,9 hPa 0,0 mm 7,4 km/h (2 Bft) O 85 ° 0 min 0,000 mm 2,8 UV-I 176 W/m² 14,4 °C 25,3 °C 14,5 km/h (3 Bft)
26.07.2018 15:10 25,1 °C 51 % 1011,9 hPa 0,0 mm 5,4 km/h (1 Bft) O-NO 68 ° 0 min 0,000 mm 2,7 UV-I 158 W/m² 14,2 °C 25,1 °C 11,3 km/h (2 Bft)
26.07.2018 15:11 24,9 °C 50 % 1011,9 hPa 0,0 mm 8,2 km/h (2 Bft) N-NO 22 ° 0 min 0,000 mm 2,7 UV-I 142 W/m² 13,7 °C 24,9 °C 11,3 km/h (2 Bft)
26.07.2018 15:12 24,8 °C 53 % 1011,9 hPa 0,0 mm 4,7 km/h (1 Bft) NO 38 ° 0 min 0,000 mm 2,9 UV-I 135 W/m² 14,6 °C 24,8 °C 9,7 km/h (2 Bft)
26.07.2018 15:13 24,6 °C 53 % 1011,9 hPa 0,0 mm 1,4 km/h (1 Bft) NO 38 ° 0 min 0,000 mm 3,1 UV-I 153 W/m² 14,4 °C 24,6 °C 3,2 km/h (1 Bft)
26.07.2018 15:14 24,4 °C 52 % 1011,9 hPa 0,0 mm 0,5 km/h (0 Bft) NO 38 ° 0 min 0,000 mm 6,0 UV-I 153 W/m² 13,9 °C 24,4 °C 1,6 km/h (1 Bft)
26.07.2018 15:15 24,4 °C 54 % 1011,8 hPa 0,0 mm 1,9 km/h (1 Bft) NO 41 ° 1 min 0,000 mm 6,0 UV-I 844 W/m² 14,5 °C 24,4 °C 4,8 km/h (1 Bft)
26.07.2018 15:16 24,6 °C 52 % 1011,8 hPa 0,0 mm 2,5 km/h (1 Bft) NO 44 ° 1 min 0,000 mm 6,0 UV-I 837 W/m² 14,1 °C 24,6 °C 4,8 km/h (1 Bft)
26.07.2018 15:17 24,7 °C 50 % 1011,8 hPa 0,0 mm 1,1 km/h (1 Bft) NO 44 ° 1 min 0,000 mm 6,0 UV-I 831 W/m² 13,6 °C 24,7 °C 3,2 km/h (1 Bft)
26.07.2018 15:18 24,8 °C 49 % 1011,8 hPa 0,0 mm 4,3 km/h (1 Bft) O-NO 74 ° 1 min 0,000 mm 6,1 UV-I 833 W/m² 13,3 °C 24,8 °C 6,4 km/h (2 Bft)
26.07.2018 15:19 24,9 °C 52 % 1011,8 hPa 0,0 mm 3,7 km/h (1 Bft) O-NO 66 ° 1 min 0,000 mm 6,1 UV-I 837 W/m² 14,4 °C 24,9 °C 6,4 km/h (2 Bft)
26.07.2018 15:20 25,1 °C 55 % 1011,8 hPa 0,0 mm 5,0 km/h (1 Bft) NO 53 ° 1 min 0,000 mm 5,9 UV-I 842 W/m² 15,4 °C 25,1 °C 8,0 km/h (2 Bft)
26.07.2018 15:21 25,3 °C 52 % 1011,8 hPa 0,0 mm 4,9 km/h (1 Bft) O-NO 66 ° 1 min 0,000 mm 4,7 UV-I 742 W/m² 14,7 °C 25,3 °C 8,0 km/h (2 Bft)
26.07.2018 15:22 25,3 °C 52 % 1011,8 hPa 0,0 mm 4,9 km/h (1 Bft) O-NO 74 ° 1 min 0,000 mm 5,9 UV-I 742 W/m² 14,7 °C 25,3 °C 8,0 km/h (2 Bft)
26.07.2018 15:23 25,4 °C 51 % 1011,7 hPa 0,0 mm 9,0 km/h (2 Bft) O-NO 61 ° 1 min 0,000 mm 5,8 UV-I 846 W/m² 14,5 °C 25,4 °C 12,9 km/h (3 Bft)
26.07.2018 15:24 25,3 °C 50 % 1011,8 hPa 0,0 mm 9,8 km/h (2 Bft) O 79 ° 1 min 0,000 mm 5,7 UV-I 840 W/m² 14,1 °C 25,3 °C 14,5 km/h (3 Bft)
26.07.2018 15:25 25,3 °C 53 % 1011,8 hPa 0,0 mm 8,2 km/h (2 Bft) O-NO 78 ° 1 min 0,000 mm 2,8 UV-I 840 W/m² 15,0 °C 25,3 °C 12,9 km/h (3 Bft)
26.07.2018 15:26 25,3 °C 50 % 1011,8 hPa 0,0 mm 5,1 km/h (1 Bft) NO 41 ° 0 min 0,000 mm 2,7 UV-I 156 W/m² 14,1 °C 25,3 °C 8,0 km/h (2 Bft)
26.07.2018 15:27 25,3 °C 51 % 1011,8 hPa 0,0 mm 4,6 km/h (1 Bft) O-NO 73 ° 0 min 0,000 mm 2,7 UV-I 151 W/m² 14,4 °C 25,3 °C 8,0 km/h (2 Bft)
26.07.2018 15:28 25,1 °C 51 % 1011,7 hPa 0,0 mm 3,4 km/h (1 Bft) N-NO 23 ° 0 min 0,000 mm 2,7 UV-I 148 W/m² 14,2 °C 25,1 °C 4,8 km/h (1 Bft)
26.07.2018 15:29 25,1 °C 53 % 1011,8 hPa 0,0 mm 4,2 km/h (1 Bft) NO 36 ° 0 min 0,000 mm 2,7 UV-I 163 W/m² 14,8 °C 25,1 °C 6,4 km/h (2 Bft)
26.07.2018 15:30 24,9 °C 50 % 1011,7 hPa 0,0 mm 2,3 km/h (1 Bft) N-NW 342 ° 0 min 0,000 mm 5,7 UV-I 163 W/m² 13,7 °C 24,9 °C 4,8 km/h (1 Bft)
26.07.2018 15:31 24,9 °C 52 % 1011,7 hPa 0,0 mm 0,4 km/h (0 Bft) N 5 ° 1 min 0,000 mm 5,6 UV-I 865 W/m² 14,4 °C 24,9 °C 1,6 km/h (1 Bft)
26.07.2018 15:32 25,1 °C 53 % 1011,7 hPa 0,0 mm 1,5 km/h (1 Bft) N 11 ° 1 min 0,000 mm 5,5 UV-I 844 W/m² 14,8 °C 25,1 °C 3,2 km/h (1 Bft)
26.07.2018 15:33 25,1 °C 53 % 1011,7 hPa 0,0 mm 4,4 km/h (1 Bft) N-NO 32 ° 1 min 0,000 mm 5,3 UV-I 830 W/m² 14,8 °C 25,1 °C 8,0 km/h (2 Bft)
26.07.2018 15:34 25,3 °C 51 % 1011,7 hPa 0,0 mm 6,9 km/h (2 Bft) O-NO 74 ° 1 min 0,000 mm 5,3 UV-I 824 W/m² 14,4 °C 25,3 °C 12,9 km/h (3 Bft)
26.07.2018 15:35 25,2 °C 51 % 1011,7 hPa 0,0 mm 8,4 km/h (2 Bft) O 101 ° 1 min 0,000 mm 3,6 UV-I 824 W/m² 14,3 °C 25,2 °C 12,9 km/h (3 Bft)
26.07.2018 15:36 25,2 °C 52 % 1011,7 hPa 0,0 mm 6,8 km/h (2 Bft) S-SO 150 ° 0 min 0,000 mm 2,8 UV-I 174 W/m² 14,6 °C 25,2 °C 11,3 km/h (2 Bft)
26.07.2018 15:37 24,9 °C 51 % 1011,6 hPa 0,0 mm 2,3 km/h (1 Bft) O 90 ° 0 min 0,000 mm 4,2 UV-I 257 W/m² 14,1 °C 24,9 °C 3,2 km/h (1 Bft)
26.07.2018 15:38 24,8 °C 50 % 1011,7 hPa 0,0 mm 2,0 km/h (1 Bft) O 90 ° 0 min 0,000 mm 5,4 UV-I 257 W/m² 13,7 °C 24,8 °C 3,2 km/h (1 Bft)
26.07.2018 15:39 24,8 °C 53 % 1011,7 hPa 0,0 mm 0,0 km/h (0 Bft) O 90 ° 1 min 0,000 mm 5,4 UV-I 805 W/m² 14,6 °C 24,8 °C 0,0 km/h (0 Bft)
26.07.2018 15:40 24,9 °C 55 % 1011,6 hPa 0,0 mm 5,2 km/h (1 Bft) O-SO 119 ° 1 min 0,000 mm 5,4 UV-I 807 W/m² 15,2 °C 24,9 °C 12,9 km/h (3 Bft)
26.07.2018 15:41 25,1 °C 54 % 1011,6 hPa 0,0 mm 9,7 km/h (2 Bft) O-NO 57 ° 1 min 0,000 mm 5,5 UV-I 810 W/m² 15,1 °C 25,1 °C 14,5 km/h (3 Bft)
26.07.2018 15:42 25,1 °C 51 % 1011,7 hPa 0,0 mm 6,8 km/h (2 Bft) NO 50 ° 1 min 0,000 mm 5,5 UV-I 812 W/m² 14,2 °C 25,1 °C 9,7 km/h (2 Bft)
26.07.2018 15:43 25,2 °C 52 % 1011,7 hPa 0,0 mm 4,6 km/h (1 Bft) NO 34 ° 1 min 0,000 mm 5,5 UV-I 816 W/m² 14,6 °C 25,2 °C 9,7 km/h (2 Bft)
26.07.2018 15:44 25,3 °C 50 % 1011,6 hPa 0,0 mm 6,3 km/h (2 Bft) O-NO 71 ° 1 min 0,000 mm 5,4 UV-I 817 W/m² 14,1 °C 25,3 °C 8,0 km/h (2 Bft)
26.07.2018 15:45 25,4 °C 50 % 1011,6 hPa 0,0 mm 3,6 km/h (1 Bft) NO 35 ° 1 min 0,000 mm 5,4 UV-I 821 W/m² 14,2 °C 25,4 °C 9,7 km/h (2 Bft)
26.07.2018 15:46 25,4 °C 53 % 1011,6 hPa 0,0 mm 5,7 km/h (1 Bft) N 360 ° 1 min 0,000 mm 5,1 UV-I 803 W/m² 15,1 °C 25,4 °C 8,0 km/h (2 Bft)
26.07.2018 15:47 25,4 °C 50 % 1011,6 hPa 0,0 mm 4,2 km/h (1 Bft) O-NO 63 ° 0 min 0,000 mm 2,6 UV-I 144 W/m² 14,2 °C 25,4 °C 8,0 km/h (2 Bft)
26.07.2018 15:48 25,3 °C 51 % 1011,6 hPa 0,0 mm 6,0 km/h (2 Bft) SO 129 ° 0 min 0,000 mm 2,5 UV-I 139 W/m² 14,4 °C 25,3 °C 11,3 km/h (2 Bft)
26.07.2018 15:49 25,2 °C 48 % 1011,6 hPa 0,0 mm 6,1 km/h (2 Bft) O-NO 65 ° 0 min 0,000 mm 2,4 UV-I 120 W/m² 13,4 °C 25,2 °C 11,3 km/h (2 Bft)
26.07.2018 15:50 25,1 °C 48 % 1011,6 hPa 0,0 mm 2,8 km/h (1 Bft) NO 56 ° 0 min 0,000 mm 2,3 UV-I 98 W/m² 13,3 °C 25,1 °C 4,8 km/h (1 Bft)
26.07.2018 15:51 25,0 °C 50 % 1011,6 hPa 0,0 mm 3,6 km/h (1 Bft) NW 325 ° 0 min 0,000 mm 2,3 UV-I 91 W/m² 13,8 °C 25,0 °C 6,4 km/h (2 Bft)
26.07.2018 15:52 24,8 °C 50 % 1011,6 hPa 0,0 mm 5,3 km/h (1 Bft) N 355 ° 0 min 0,000 mm 2,3 UV-I 95 W/m² 13,7 °C 24,8 °C 8,0 km/h (2 Bft)
26.07.2018 15:53 24,7 °C 52 % 1011,6 hPa 0,0 mm 4,7 km/h (1 Bft) N-NO 25 ° 0 min 0,000 mm 2,4 UV-I 123 W/m² 14,2 °C 24,7 °C 9,7 km/h (2 Bft)
26.07.2018 15:54 24,6 °C 51 % 1011,6 hPa 0,0 mm 3,7 km/h (1 Bft) N-NO 14 ° 0 min 0,000 mm 2,9 UV-I 146 W/m² 13,8 °C 24,6 °C 6,4 km/h (2 Bft)
26.07.2018 15:55 24,3 °C 56 % 1011,6 hPa 0,0 mm 2,6 km/h (1 Bft) O 88 ° 0 min 0,000 mm 5,1 UV-I 146 W/m² 14,9 °C 24,3 °C 6,4 km/h (2 Bft)
26.07.2018 15:56 24,3 °C 56 % 1011,6 hPa 0,0 mm 1,0 km/h (0 Bft) O-NO 71 ° 1 min 0,000 mm 5,1 UV-I 789 W/m² 14,9 °C 24,3 °C 3,2 km/h (1 Bft)
26.07.2018 15:57 24,4 °C 55 % 1011,6 hPa 0,0 mm 4,2 km/h (1 Bft) O-NO 61 ° 1 min 0,000 mm 5,1 UV-I 784 W/m² 14,8 °C 24,4 °C 8,0 km/h (2 Bft)
26.07.2018 15:58 24,6 °C 53 % 1011,6 hPa 0,0 mm 5,9 km/h (2 Bft) NO 40 ° 1 min 0,000 mm 5,0 UV-I 779 W/m² 14,4 °C 24,6 °C 11,3 km/h (2 Bft)
26.07.2018 15:59 24,8 °C 55 % 1011,6 hPa 0,0 mm 6,2 km/h (2 Bft) NO 41 ° 1 min 0,000 mm 4,9 UV-I 780 W/m² 15,1 °C 24,8 °C 8,0 km/h (2 Bft)
26.07.2018 16:00 25,1 °C 55 % 1011,6 hPa 0,0 mm 3,9 km/h (1 Bft) NO 41 ° 1 min 0,000 mm 4,9 UV-I 780 W/m² 15,4 °C 25,1 °C 4,8 km/h (1 Bft)
26.07.2018 16:01 25,2 °C 50 % 1011,6 hPa 0,0 mm 5,3 km/h (1 Bft) NO 38 ° 1 min 0,381 mm 4,8 UV-I 780 W/m² 14,0 °C 25,2 °C 11,3 km/h (2 Bft)
26.07.2018 16:02 25,3 °C 51 % 1011,6 hPa 0,0 mm 6,1 km/h (2 Bft) N 360 ° 1 min 0,000 mm 4,8 UV-I 780 W/m² 14,4 °C 25,3 °C 9,7 km/h (2 Bft)
26.07.2018 16:03 25,4 °C 51 % 1011,6 hPa 0,0 mm 13,3 km/h (3 Bft) O-NO 63 ° 1 min 0,000 mm 4,7 UV-I 802 W/m² 14,5 °C 25,4 °C 25,7 km/h (4 Bft)
26.07.2018 16:04 25,4 °C 51 % 1011,6 hPa 0,0 mm 11,9 km/h (2 Bft) O 86 ° 1 min 0,000 mm 4,7 UV-I 791 W/m² 14,5 °C 25,4 °C 19,3 km/h (3 Bft)
26.07.2018 16:05 25,4 °C 49 % 1011,7 hPa 0,0 mm 9,7 km/h (2 Bft) O-NO 76 ° 1 min 0,000 mm 4,3 UV-I 777 W/m² 13,9 °C 25,4 °C 16,1 km/h (3 Bft)
26.07.2018 16:06 25,3 °C 49 % 1011,8 hPa 0,0 mm 10,1 km/h (2 Bft) O 93 ° 1 min 0,000 mm 4,2 UV-I 777 W/m² 13,8 °C 25,3 °C 16,1 km/h (3 Bft)
26.07.2018 16:07 25,2 °C 50 % 1011,6 hPa 0,0 mm 5,1 km/h (1 Bft) O-NO 62 ° 1 min 0,000 mm 2,7 UV-I 777 W/m² 14,0 °C 25,2 °C 8,0 km/h (2 Bft)
26.07.2018 16:08 25,1 °C 51 % 1011,6 hPa 0,0 mm 3,1 km/h (1 Bft) NO 51 ° 1 min 0,000 mm 2,2 UV-I 777 W/m² 14,2 °C 25,1 °C 6,4 km/h (2 Bft)
26.07.2018 16:09 25,0 °C 51 % 1011,6 hPa 0,0 mm 4,4 km/h (1 Bft) NO 53 ° 0 min 0,000 mm 2,1 UV-I 109 W/m² 14,1 °C 25,0 °C 8,0 km/h (2 Bft)
26.07.2018 16:10 24,9 °C 51 % 1011,6 hPa 0,0 mm 5,2 km/h (1 Bft) N-NO 22 ° 0 min 0,000 mm 2,0 UV-I 90 W/m² 14,1 °C 24,9 °C 8,0 km/h (2 Bft)
26.07.2018 16:11 24,9 °C 51 % 1011,6 hPa 0,0 mm 6,3 km/h (2 Bft) N-NW 340 ° 0 min 0,000 mm 2,0 UV-I 86 W/m² 14,1 °C 24,9 °C 8,0 km/h (2 Bft)
26.07.2018 16:12 24,8 °C 51 % 1011,6 hPa 0,0 mm 4,9 km/h (1 Bft) N-NW 333 ° 0 min 0,000 mm 2,0 UV-I 86 W/m² 14,0 °C 24,8 °C 6,4 km/h (2 Bft)
26.07.2018 16:13 24,7 °C 53 % 1011,6 hPa 0,0 mm 8,1 km/h (2 Bft) N 11 ° 0 min 0,000 mm 2,0 UV-I 83 W/m² 14,5 °C 24,7 °C 12,9 km/h (3 Bft)
26.07.2018 16:14 24,6 °C 53 % 1011,6 hPa 0,0 mm 3,0 km/h (1 Bft) N 5 ° 0 min 0,000 mm 2,0 UV-I 84 W/m² 14,4 °C 24,6 °C 4,8 km/h (1 Bft)
26.07.2018 16:15 24,4 °C 52 % 1011,6 hPa 0,0 mm 1,3 km/h (1 Bft) NO 36 ° 0 min 0,000 mm 3,1 UV-I 84 W/m² 13,9 °C 24,4 °C 1,6 km/h (1 Bft)
26.07.2018 16:16 24,4 °C 56 % 1011,6 hPa 0,0 mm 1,8 km/h (1 Bft) NO 36 ° 0 min 0,000 mm 3,8 UV-I 439 W/m² 15,0 °C 24,4 °C 3,2 km/h (1 Bft)
26.07.2018 16:17 24,3 °C 55 % 1011,6 hPa 0,0 mm 3,0 km/h (1 Bft) N-NW 345 ° 0 min 0,000 mm 2,7 UV-I 439 W/m² 14,7 °C 24,3 °C 6,4 km/h (2 Bft)
26.07.2018 16:18 24,4 °C 53 % 1011,5 hPa 0,0 mm 4,8 km/h (1 Bft) O-SO 123 ° 0 min 0,000 mm 2,4 UV-I 146 W/m² 14,2 °C 24,4 °C 8,0 km/h (2 Bft)
26.07.2018 16:19 24,5 °C 55 % 1011,5 hPa 0,0 mm 2,1 km/h (1 Bft) O-SO 117 ° 0 min 0,000 mm 2,4 UV-I 151 W/m² 14,9 °C 24,5 °C 3,2 km/h (1 Bft)
26.07.2018 16:20 24,6 °C 53 % 1011,6 hPa 0,0 mm 8,9 km/h (2 Bft) O 93 ° 0 min 0,000 mm 2,4 UV-I 158 W/m² 14,4 °C 24,6 °C 17,7 km/h (3 Bft)
26.07.2018 16:21 24,7 °C 53 % 1011,6 hPa 0,0 mm 6,9 km/h (2 Bft) NW 325 ° 0 min 0,000 mm 2,4 UV-I 165 W/m² 14,5 °C 24,7 °C 16,1 km/h (3 Bft)
26.07.2018 16:22 24,7 °C 53 % 1011,6 hPa 0,0 mm 3,4 km/h (1 Bft) NO 34 ° 0 min 0,000 mm 2,4 UV-I 160 W/m² 14,5 °C 24,7 °C 4,8 km/h (1 Bft)
26.07.2018 16:23 24,8 °C 51 % 1011,6 hPa 0,0 mm 5,6 km/h (1 Bft) NO 49 ° 0 min 0,000 mm 2,3 UV-I 158 W/m² 14,0 °C 24,8 °C 12,9 km/h (3 Bft)
26.07.2018 16:24 24,9 °C 52 % 1011,6 hPa 0,0 mm 6,0 km/h (2 Bft) N-NW 346 ° 0 min 0,000 mm 2,3 UV-I 149 W/m² 14,4 °C 24,9 °C 11,3 km/h (2 Bft)
26.07.2018 16:25 25,1 °C 52 % 1011,5 hPa 0,0 mm 8,6 km/h (2 Bft) N-NO 15 ° 0 min 0,000 mm 2,2 UV-I 130 W/m² 14,5 °C 25,1 °C 16,1 km/h (3 Bft)
26.07.2018 16:26 25,1 °C 53 % 1011,6 hPa 0,0 mm 5,8 km/h (2 Bft) O-NO 63 ° 0 min 0,000 mm 2,2 UV-I 121 W/m² 14,8 °C 25,1 °C 8,0 km/h (2 Bft)
26.07.2018 16:27 25,2 °C 52 % 1011,6 hPa 0,0 mm 6,8 km/h (2 Bft) O-SO 103 ° 0 min 0,000 mm 2,2 UV-I 120 W/m² 14,6 °C 25,2 °C 12,9 km/h (3 Bft)
26.07.2018 16:28 25,2 °C 52 % 1011,6 hPa 0,0 mm 2,7 km/h (1 Bft) NO 35 ° 0 min 0,000 mm 2,2 UV-I 111 W/m² 14,6 °C 25,2 °C 9,7 km/h (2 Bft)
26.07.2018 16:29 25,1 °C 51 % 1011,6 hPa 0,0 mm 3,4 km/h (1 Bft) NO 43 ° 0 min 0,000 mm 2,2 UV-I 107 W/m² 14,2 °C 25,1 °C 6,4 km/h (2 Bft)
26.07.2018 16:30 25,1 °C 50 % 1011,6 hPa 0,0 mm 3,1 km/h (1 Bft) O 80 ° 0 min 0,000 mm 2,2 UV-I 111 W/m² 13,9 °C 25,1 °C 6,4 km/h (2 Bft)
26.07.2018 16:31 25,0 °C 51 % 1011,6 hPa 0,0 mm 4,9 km/h (1 Bft) O 83 ° 0 min 0,000 mm 2,2 UV-I 111 W/m² 14,1 °C 25,0 °C 6,4 km/h (2 Bft)
26.07.2018 16:32 24,9 °C 52 % 1011,6 hPa 0,0 mm 3,2 km/h (1 Bft) O 86 ° 0 min 0,000 mm 2,2 UV-I 107 W/m² 14,4 °C 24,9 °C 4,8 km/h (1 Bft)
26.07.2018 16:33 24,9 °C 51 % 1011,6 hPa 0,0 mm 3,4 km/h (1 Bft) O-SO 109 ° 0 min 0,000 mm 2,3 UV-I 105 W/m² 14,1 °C 24,9 °C 4,8 km/h (1 Bft)
26.07.2018 16:34 24,9 °C 54 % 1011,6 hPa 0,0 mm 3,3 km/h (1 Bft) O-NO 71 ° 0 min 0,000 mm 2,2 UV-I 111 W/m² 14,9 °C 24,9 °C 9,7 km/h (2 Bft)
26.07.2018 16:35 24,9 °C 54 % 1011,6 hPa 0,0 mm 8,2 km/h (2 Bft) O-NO 74 ° 0 min 0,000 mm 2,2 UV-I 111 W/m² 14,9 °C 24,9 °C 11,3 km/h (2 Bft)
26.07.2018 16:36 24,9 °C 51 % 1011,6 hPa 0,0 mm 2,2 km/h (1 Bft) N-NO 25 ° 0 min 0,000 mm 2,2 UV-I 120 W/m² 14,1 °C 24,9 °C 8,0 km/h (2 Bft)
26.07.2018 16:37 24,9 °C 49 % 1011,6 hPa 0,0 mm 0,8 km/h (0 Bft) N-NO 25 ° 0 min 0,000 mm 2,2 UV-I 121 W/m² 13,4 °C 24,9 °C 3,2 km/h (1 Bft)
26.07.2018 16:38 24,8 °C 50 % 1011,6 hPa 0,0 mm 0,2 km/h (0 Bft) N-NO 25 ° 0 min 0,000 mm 2,2 UV-I 127 W/m² 13,7 °C 24,8 °C 1,6 km/h (1 Bft)
26.07.2018 16:39 24,8 °C 50 % 1011,6 hPa 0,0 mm 0,3 km/h (0 Bft) N-NO 25 ° 0 min 0,000 mm 2,2 UV-I 139 W/m² 13,7 °C 24,8 °C 1,6 km/h (1 Bft)
26.07.2018 16:40 24,8 °C 50 % 1011,6 hPa 0,0 mm 0,1 km/h (0 Bft) N-NO 25 ° 0 min 0,000 mm 2,3 UV-I 146 W/m² 13,7 °C 24,8 °C 1,6 km/h (1 Bft)
26.07.2018 16:41 24,9 °C 51 % 1011,6 hPa 0,0 mm 5,1 km/h (1 Bft) NO 39 ° 0 min 0,000 mm 2,3 UV-I 142 W/m² 14,1 °C 24,9 °C 11,3 km/h (2 Bft)
26.07.2018 16:42 25,1 °C 52 % 1011,6 hPa 0,0 mm 5,2 km/h (1 Bft) O 84 ° 0 min 0,000 mm 2,2 UV-I 139 W/m² 14,5 °C 25,1 °C 9,7 km/h (2 Bft)
26.07.2018 16:43 25,2 °C 50 % 1011,6 hPa 0,0 mm 5,8 km/h (2 Bft) N-NW 348 ° 0 min 0,000 mm 2,2 UV-I 139 W/m² 14,0 °C 25,2 °C 12,9 km/h (3 Bft)
26.07.2018 16:44 25,2 °C 51 % 1011,5 hPa 0,0 mm 8,1 km/h (2 Bft) NO 49 ° 0 min 0,000 mm 2,2 UV-I 139 W/m² 14,3 °C 25,2 °C 12,9 km/h (3 Bft)
26.07.2018 16:45 25,3 °C 49 % 1011,6 hPa 0,0 mm 9,5 km/h (2 Bft) N-NW 346 ° 0 min 0,000 mm 2,2 UV-I 139 W/m² 13,8 °C 25,3 °C 14,5 km/h (3 Bft)
26.07.2018 16:46 25,3 °C 51 % 1011,6 hPa 0,0 mm 8,7 km/h (2 Bft) NO 53 ° 0 min 0,000 mm 2,1 UV-I 134 W/m² 14,4 °C 25,3 °C 12,9 km/h (3 Bft)
26.07.2018 16:47 25,4 °C 48 % 1011,6 hPa 0,0 mm 7,8 km/h (2 Bft) O 94 ° 0 min 0,000 mm 2,1 UV-I 128 W/m² 13,6 °C 25,4 °C 14,5 km/h (3 Bft)
26.07.2018 16:48 25,4 °C 49 % 1011,6 hPa 0,0 mm 4,9 km/h (1 Bft) NO 36 ° 0 min 0,000 mm 2,0 UV-I 127 W/m² 13,9 °C 25,4 °C 6,4 km/h (2 Bft)
26.07.2018 16:49 25,4 °C 48 % 1011,6 hPa 0,0 mm 1,6 km/h (1 Bft) O 88 ° 0 min 0,000 mm 2,0 UV-I 118 W/m² 13,6 °C 25,4 °C 8,0 km/h (2 Bft)
26.07.2018 16:50 25,3 °C 48 % 1011,6 hPa 0,0 mm 4,2 km/h (1 Bft) O-NO 78 ° 0 min 0,000 mm 2,0 UV-I 116 W/m² 13,5 °C 25,3 °C 9,7 km/h (2 Bft)
26.07.2018 16:51 25,2 °C 48 % 1011,6 hPa 0,0 mm 7,2 km/h (2 Bft) O-NO 63 ° 0 min 0,000 mm 2,0 UV-I 98 W/m² 13,4 °C 25,2 °C 9,7 km/h (2 Bft)
26.07.2018 16:52 25,2 °C 47 % 1011,6 hPa 0,0 mm 6,8 km/h (2 Bft) NO 50 ° 0 min 0,000 mm 2,0 UV-I 81 W/m² 13,1 °C 25,2 °C 9,7 km/h (2 Bft)
26.07.2018 16:53 25,1 °C 49 % 1011,6 hPa 0,0 mm 7,8 km/h (2 Bft) O-NO 65 ° 0 min 0,000 mm 2,0 UV-I 70 W/m² 13,6 °C 25,1 °C 9,7 km/h (2 Bft)
26.07.2018 16:54 25,1 °C 48 % 1011,6 hPa 0,0 mm 7,6 km/h (2 Bft) O-SO 112 ° 0 min 0,000 mm 2,0 UV-I 70 W/m² 13,3 °C 25,1 °C 11,3 km/h (2 Bft)
26.07.2018 16:55 24,9 °C 51 % 1011,6 hPa 0,0 mm 2,7 km/h (1 Bft) NO 40 ° 0 min 0,000 mm 2,0 UV-I 70 W/m² 14,1 °C 24,9 °C 4,8 km/h (1 Bft)
26.07.2018 16:56 24,8 °C 51 % 1011,5 hPa 0,0 mm 5,4 km/h (1 Bft) N-NO 31 ° 0 min 0,000 mm 2,0 UV-I 77 W/m² 14,0 °C 24,8 °C 14,5 km/h (3 Bft)
26.07.2018 16:57 24,8 °C 50 % 1011,6 hPa 0,0 mm 8,5 km/h (2 Bft) O-NO 78 ° 0 min 0,000 mm 1,9 UV-I 74 W/m² 13,7 °C 24,8 °C 12,9 km/h (3 Bft)
26.07.2018 16:58 24,8 °C 50 % 1011,6 hPa 0,0 mm 6,7 km/h (2 Bft) NO 54 ° 0 min 0,000 mm 1,9 UV-I 70 W/m² 13,7 °C 24,8 °C 9,7 km/h (2 Bft)
26.07.2018 16:59 24,7 °C 49 % 1011,6 hPa 0,0 mm 7,3 km/h (2 Bft) O 81 ° 0 min 0,000 mm 1,9 UV-I 69 W/m² 13,3 °C 24,7 °C 14,5 km/h (3 Bft)
26.07.2018 17:00 24,8 °C 50 % 1011,6 hPa 0,0 mm 1,1 km/h (1 Bft) O-NO 77 ° 0 min 0,000 mm 1,9 UV-I 67 W/m² 13,7 °C 24,8 °C 1,6 km/h (1 Bft)
26.07.2018 17:01 24,8 °C 51 % 1011,5 hPa 0,0 mm 3,6 km/h (1 Bft) O 84 ° 0 min 0,178 mm 1,9 UV-I 63 W/m² 14,0 °C 24,8 °C 6,4 km/h (2 Bft)
26.07.2018 17:02 24,8 °C 49 % 1011,6 hPa 0,0 mm 3,8 km/h (1 Bft) NO 43 ° 0 min 0,000 mm 1,9 UV-I 62 W/m² 13,3 °C 24,8 °C 6,4 km/h (2 Bft)
26.07.2018 17:03 24,9 °C 50 % 1011,5 hPa 0,0 mm 5,0 km/h (1 Bft) O-NO 61 ° 0 min 0,000 mm 1,8 UV-I 60 W/m² 13,7 °C 24,9 °C 8,0 km/h (2 Bft)
26.07.2018 17:04 24,9 °C 50 % 1011,5 hPa 0,0 mm 4,4 km/h (1 Bft) O-NO 77 ° 0 min 0,000 mm 1,8 UV-I 58 W/m² 13,7 °C 24,9 °C 9,7 km/h (2 Bft)
26.07.2018 17:05 24,9 °C 47 % 1011,5 hPa 0,0 mm 4,6 km/h (1 Bft) NO 39 ° 0 min 0,000 mm 1,8 UV-I 56 W/m² 12,8 °C 24,9 °C 9,7 km/h (2 Bft)
26.07.2018 17:06 24,9 °C 48 % 1011,5 hPa 0,0 mm 6,2 km/h (2 Bft) O-NO 63 ° 0 min 0,000 mm 1,8 UV-I 56 W/m² 13,1 °C 24,9 °C 12,9 km/h (3 Bft)
26.07.2018 17:07 24,9 °C 49 % 1011,5 hPa 0,0 mm 4,4 km/h (1 Bft) O-NO 61 ° 0 min 0,000 mm 1,8 UV-I 56 W/m² 13,4 °C 24,9 °C 6,4 km/h (2 Bft)
26.07.2018 17:08 25,1 °C 49 % 1011,4 hPa 0,0 mm 3,5 km/h (1 Bft) NO 51 ° 0 min 0,000 mm 1,8 UV-I 54 W/m² 13,6 °C 25,1 °C 6,4 km/h (2 Bft)
26.07.2018 17:09 25,1 °C 48 % 1011,5 hPa 0,0 mm 7,3 km/h (2 Bft) O 88 ° 0 min 0,000 mm 0,0 UV-I 53 W/m² 13,3 °C 25,1 °C 14,5 km/h (3 Bft)
26.07.2018 17:10 25,1 °C 49 % 1011,5 hPa 0,0 mm 5,1 km/h (1 Bft) O-NO 78 ° 0 min 0,000 mm 0,0 UV-I 53 W/m² 13,6 °C 25,1 °C 11,3 km/h (2 Bft)
26.07.2018 17:11 25,1 °C 48 % 1011,5 hPa 0,0 mm 1,8 km/h (1 Bft) N-NO 19 ° 0 min 0,000 mm 0,0 UV-I 53 W/m² 13,3 °C 25,1 °C 4,8 km/h (1 Bft)
26.07.2018 17:12 25,1 °C 48 % 1011,4 hPa 0,0 mm 4,4 km/h (1 Bft) NO 50 ° 0 min 0,000 mm 0,0 UV-I 53 W/m² 13,3 °C 25,1 °C 11,3 km/h (2 Bft)
26.07.2018 17:13 25,1 °C 49 % 1011,4 hPa 0,0 mm 4,1 km/h (1 Bft) O 80 ° 0 min 0,000 mm 0,0 UV-I 54 W/m² 13,6 °C 25,1 °C 9,7 km/h (2 Bft)
26.07.2018 17:14 25,1 °C 48 % 1011,4 hPa 0,0 mm 3,4 km/h (1 Bft) NO 38 ° 0 min 0,000 mm 0,0 UV-I 53 W/m² 13,3 °C 25,1 °C 6,4 km/h (2 Bft)
26.07.2018 17:15 25,1 °C 49 % 1011,4 hPa 0,0 mm 3,0 km/h (1 Bft) N-NO 19 ° 0 min 0,000 mm 0,0 UV-I 51 W/m² 13,6 °C 25,1 °C 6,4 km/h (2 Bft)
26.07.2018 17:16 25,1 °C 49 % 1011,5 hPa 0,0 mm 3,4 km/h (1 Bft) O-NO 68 ° 0 min 0,000 mm 0,0 UV-I 51 W/m² 13,6 °C 25,1 °C 6,4 km/h (2 Bft)
26.07.2018 17:17 25,2 °C 48 % 1011,5 hPa 0,0 mm 4,1 km/h (1 Bft) O 94 ° 0 min 0,000 mm 0,0 UV-I 51 W/m² 13,4 °C 25,2 °C 6,4 km/h (2 Bft)
26.07.2018 17:18 25,1 °C 49 % 1011,5 hPa 0,0 mm 9,5 km/h (2 Bft) N-NO 29 ° 0 min 0,000 mm 0,0 UV-I 51 W/m² 13,6 °C 25,1 °C 14,5 km/h (3 Bft)
26.07.2018 17:19 25,2 °C 49 % 1011,5 hPa 0,0 mm 6,9 km/h (2 Bft) O 80 ° 0 min 0,000 mm 0,0 UV-I 51 W/m² 13,7 °C 25,2 °C 9,7 km/h (2 Bft)
26.07.2018 17:20 25,2 °C 47 % 1011,5 hPa 0,0 mm 2,6 km/h (1 Bft) O 84 ° 0 min 0,000 mm 1,7 UV-I 56 W/m² 13,1 °C 25,2 °C 6,4 km/h (2 Bft)
26.07.2018 17:21 25,1 °C 48 % 1011,5 hPa 0,0 mm 3,3 km/h (1 Bft) O 94 ° 0 min 0,000 mm 0,0 UV-I 56 W/m² 13,3 °C 25,1 °C 6,4 km/h (2 Bft)
26.07.2018 17:22 25,0 °C 45 % 1011,5 hPa 0,0 mm 1,4 km/h (1 Bft) N-NO 19 ° 0 min 0,000 mm 0,0 UV-I 54 W/m² 12,2 °C 25,0 °C 3,2 km/h (1 Bft)
26.07.2018 17:23 24,9 °C 46 % 1011,5 hPa 0,0 mm 3,9 km/h (1 Bft) N-NO 27 ° 0 min 0,000 mm 1,7 UV-I 56 W/m² 12,5 °C 24,9 °C 8,0 km/h (2 Bft)
26.07.2018 17:24 25,1 °C 49 % 1011,5 hPa 0,0 mm 6,3 km/h (2 Bft) NO 48 ° 0 min 0,000 mm 1,7 UV-I 56 W/m² 13,6 °C 25,1 °C 11,3 km/h (2 Bft)
26.07.2018 17:25 25,0 °C 47 % 1011,5 hPa 0,0 mm 9,0 km/h (2 Bft) O 94 ° 0 min 0,000 mm 1,7 UV-I 56 W/m² 12,9 °C 25,0 °C 12,9 km/h (3 Bft)
26.07.2018 17:26 25,0 °C 47 % 1011,6 hPa 0,0 mm 6,0 km/h (2 Bft) N-NO 22 ° 0 min 0,000 mm 1,6 UV-I 58 W/m² 12,9 °C 25,0 °C 11,3 km/h (2 Bft)
26.07.2018 17:27 24,9 °C 48 % 1011,5 hPa 0,0 mm 5,1 km/h (1 Bft) N-NO 19 ° 0 min 0,000 mm 1,6 UV-I 58 W/m² 13,1 °C 24,9 °C 12,9 km/h (3 Bft)
26.07.2018 17:28 24,9 °C 48 % 1011,5 hPa 0,0 mm 2,3 km/h (1 Bft) O 91 ° 0 min 0,000 mm 1,6 UV-I 60 W/m² 13,1 °C 24,9 °C 4,8 km/h (1 Bft)
26.07.2018 17:29 24,9 °C 47 % 1011,5 hPa 0,0 mm 2,5 km/h (1 Bft) NO 36 ° 0 min 0,000 mm 1,6 UV-I 60 W/m² 12,8 °C 24,9 °C 4,8 km/h (1 Bft)
26.07.2018 17:30 24,9 °C 50 % 1011,4 hPa 0,0 mm 3,0 km/h (1 Bft) NO 53 ° 0 min 0,000 mm 1,7 UV-I 70 W/m² 13,7 °C 24,9 °C 8,0 km/h (2 Bft)
26.07.2018 17:31 25,0 °C 49 % 1011,4 hPa 0,0 mm 7,5 km/h (2 Bft) O-NO 67 ° 0 min 0,000 mm 2,1 UV-I 58 W/m² 13,5 °C 25,0 °C 12,9 km/h (3 Bft)
26.07.2018 17:32 25,1 °C 50 % 1011,4 hPa 0,0 mm 5,8 km/h (2 Bft) O 96 ° 0 min 0,000 mm 1,9 UV-I 58 W/m² 13,9 °C 25,1 °C 14,5 km/h (3 Bft)
26.07.2018 17:33 25,1 °C 48 % 1011,5 hPa 0,0 mm 6,0 km/h (2 Bft) O 84 ° 0 min 0,000 mm 0,0 UV-I 54 W/m² 13,3 °C 25,1 °C 9,7 km/h (2 Bft)
26.07.2018 17:34 25,1 °C 48 % 1011,5 hPa 0,0 mm 2,9 km/h (1 Bft) N 355 ° 0 min 0,000 mm 0,0 UV-I 54 W/m² 13,3 °C 25,1 °C 6,4 km/h (2 Bft)
26.07.2018 17:35 25,0 °C 49 % 1011,5 hPa 0,0 mm 3,6 km/h (1 Bft) O 98 ° 0 min 0,000 mm 0,0 UV-I 53 W/m² 13,5 °C 25,0 °C 14,5 km/h (3 Bft)
26.07.2018 17:36 24,9 °C 48 % 1011,5 hPa 0,0 mm 10,3 km/h (2 Bft) NO 53 ° 0 min 0,000 mm 0,0 UV-I 53 W/m² 13,1 °C 24,9 °C 16,1 km/h (3 Bft)
26.07.2018 17:37 24,9 °C 48 % 1011,5 hPa 0,0 mm 5,6 km/h (1 Bft) NO 49 ° 0 min 0,000 mm 0,0 UV-I 53 W/m² 13,1 °C 24,9 °C 9,7 km/h (2 Bft)
26.07.2018 17:38 24,9 °C 49 % 1011,5 hPa 0,0 mm 5,8 km/h (2 Bft) NO 45 ° 0 min 0,000 mm 0,0 UV-I 51 W/m² 13,4 °C 24,9 °C 9,7 km/h (2 Bft)
26.07.2018 17:39 24,9 °C 48 % 1011,5 hPa 0,0 mm 7,8 km/h (2 Bft) N 5 ° 0 min 0,000 mm 0,0 UV-I 51 W/m² 13,1 °C 24,9 °C 14,5 km/h (3 Bft)
26.07.2018 17:40 25,0 °C 49 % 1011,5 hPa 0,0 mm 8,4 km/h (2 Bft) O-NO 59 ° 0 min 0,000 mm 0,0 UV-I 53 W/m² 13,5 °C 25,0 °C 14,5 km/h (3 Bft)
26.07.2018 17:41 25,0 °C 48 % 1011,5 hPa 0,0 mm 4,1 km/h (1 Bft) S-SO 148 ° 0 min 0,000 mm 1,5 UV-I 58 W/m² 13,2 °C 25,0 °C 8,0 km/h (2 Bft)
26.07.2018 17:42 25,0 °C 50 % 1011,6 hPa 0,0 mm 2,5 km/h (1 Bft) N-NO 28 ° 0 min 0,000 mm 1,5 UV-I 60 W/m² 13,8 °C 25,0 °C 4,8 km/h (1 Bft)
26.07.2018 17:43 25,0 °C 49 % 1011,6 hPa 0,0 mm 3,5 km/h (1 Bft) NO 56 ° 0 min 0,000 mm 1,6 UV-I 60 W/m² 13,5 °C 25,0 °C 6,4 km/h (2 Bft)
26.07.2018 17:44 25,0 °C 50 % 1011,5 hPa 0,0 mm 4,4 km/h (1 Bft) O 91 ° 0 min 0,000 mm 1,5 UV-I 62 W/m² 13,8 °C 25,0 °C 8,0 km/h (2 Bft)
26.07.2018 17:45 25,1 °C 50 % 1011,5 hPa 0,0 mm 10,2 km/h (2 Bft) O-NO 65 ° 0 min 0,000 mm 1,5 UV-I 62 W/m² 13,9 °C 25,1 °C 16,1 km/h (3 Bft)
26.07.2018 17:46 25,1 °C 50 % 1011,6 hPa 0,0 mm 8,0 km/h (2 Bft) O-NO 73 ° 0 min 0,000 mm 1,5 UV-I 63 W/m² 13,9 °C 25,1 °C 14,5 km/h (3 Bft)
26.07.2018 17:47 25,0 °C 50 % 1011,6 hPa 0,0 mm 9,7 km/h (2 Bft) O 81 ° 0 min 0,000 mm 1,5 UV-I 58 W/m² 13,8 °C 25,0 °C 16,1 km/h (3 Bft)
26.07.2018 17:48 25,0 °C 49 % 1011,6 hPa 0,0 mm 10,0 km/h (2 Bft) SO 127 ° 0 min 0,000 mm 0,0 UV-I 53 W/m² 13,5 °C 25,0 °C 16,1 km/h (3 Bft)
26.07.2018 17:49 24,9 °C 50 % 1011,6 hPa 0,0 mm 5,3 km/h (1 Bft) N-NO 20 ° 0 min 0,000 mm 0,0 UV-I 49 W/m² 13,7 °C 24,9 °C 11,3 km/h (2 Bft)
26.07.2018 17:50 24,9 °C 49 % 1011,6 hPa 0,0 mm 7,6 km/h (2 Bft) O-NO 60 ° 0 min 0,000 mm 0,0 UV-I 47 W/m² 13,4 °C 24,9 °C 12,9 km/h (3 Bft)
26.07.2018 17:51 24,9 °C 48 % 1011,6 hPa 0,0 mm 8,8 km/h (2 Bft) O 93 ° 0 min 0,000 mm 0,0 UV-I 49 W/m² 13,1 °C 24,9 °C 16,1 km/h (3 Bft)
26.07.2018 17:52 24,9 °C 48 % 1011,6 hPa 0,0 mm 10,0 km/h (2 Bft) O-NO 72 ° 0 min 0,000 mm 0,0 UV-I 49 W/m² 13,1 °C 24,9 °C 14,5 km/h (3 Bft)
26.07.2018 17:53 24,9 °C 49 % 1011,6 hPa 0,0 mm 7,0 km/h (2 Bft) NO 35 ° 0 min 0,000 mm 0,0 UV-I 47 W/m² 13,4 °C 24,9 °C 12,9 km/h (3 Bft)
26.07.2018 17:54 24,9 °C 48 % 1011,6 hPa 0,0 mm 7,8 km/h (2 Bft) O-NO 74 ° 0 min 0,000 mm 0,0 UV-I 46 W/m² 13,1 °C 24,9 °C 12,9 km/h (3 Bft)
26.07.2018 17:55 24,9 °C 48 % 1011,5 hPa 0,0 mm 4,4 km/h (1 Bft) NO 44 ° 0 min 0,000 mm 0,0 UV-I 46 W/m² 13,1 °C 24,9 °C 6,4 km/h (2 Bft)
26.07.2018 17:56 24,9 °C 49 % 1011,5 hPa 0,0 mm 6,1 km/h (2 Bft) N 360 ° 0 min 0,000 mm 0,0 UV-I 47 W/m² 13,4 °C 24,9 °C 11,3 km/h (2 Bft)
26.07.2018 17:57 25,0 °C 49 % 1011,6 hPa 0,0 mm 8,0 km/h (2 Bft) O-NO 65 ° 0 min 0,000 mm 0,0 UV-I 44 W/m² 13,5 °C 25,0 °C 12,9 km/h (3 Bft)
26.07.2018 17:58 24,9 °C 48 % 1011,5 hPa 0,0 mm 6,5 km/h (2 Bft) O-NO 76 ° 0 min 0,000 mm 0,0 UV-I 46 W/m² 13,1 °C 24,9 °C 9,7 km/h (2 Bft)
26.07.2018 17:59 24,9 °C 48 % 1011,6 hPa 0,0 mm 6,0 km/h (2 Bft) O 90 ° 0 min 0,000 mm 0,0 UV-I 46 W/m² 13,1 °C 24,9 °C 12,9 km/h (3 Bft)
26.07.2018 18:00 24,8 °C 48 % 1011,6 hPa 0,0 mm 4,7 km/h (1 Bft) N 5 ° 0 min 0,076 mm 0,0 UV-I 46 W/m² 13,0 °C 24,8 °C 8,0 km/h (2 Bft)
26.07.2018 18:01 24,8 °C 49 % 1011,5 hPa 0,0 mm 1,6 km/h (1 Bft) O 79 ° 0 min 0,000 mm 0,0 UV-I 46 W/m² 13,3 °C 24,8 °C 4,8 km/h (1 Bft)
26.07.2018 18:03 24,8 °C 48 % 1011,5 hPa 0,0 mm 5,7 km/h (1 Bft) NO 49 ° 0 min 0,000 mm 0,0 UV-I 44 W/m² 13,0 °C 24,8 °C 8,0 km/h (2 Bft)
26.07.2018 18:04 24,8 °C 48 % 1011,5 hPa 0,0 mm 5,6 km/h (1 Bft) NO 43 ° 0 min 0,000 mm 0,0 UV-I 44 W/m² 13,0 °C 24,8 °C 9,7 km/h (2 Bft)
26.07.2018 18:05 24,9 °C 50 % 1011,5 hPa 0,0 mm 2,6 km/h (1 Bft) O-SO 123 ° 0 min 0,000 mm 0,0 UV-I 44 W/m² 13,7 °C 24,9 °C 8,0 km/h (2 Bft)
26.07.2018 18:06 24,9 °C 50 % 1011,5 hPa 0,0 mm 2,6 km/h (1 Bft) O-NO 57 ° 0 min 0,000 mm 0,0 UV-I 44 W/m² 13,7 °C 24,9 °C 8,0 km/h (2 Bft)
26.07.2018 18:07 24,9 °C 50 % 1011,5 hPa 0,0 mm 6,2 km/h (2 Bft) N 5 ° 0 min 0,000 mm 0,0 UV-I 44 W/m² 13,7 °C 24,9 °C 9,7 km/h (2 Bft)
26.07.2018 18:08 24,9 °C 49 % 1011,5 hPa 0,0 mm 5,6 km/h (1 Bft) O-SO 108 ° 0 min 0,000 mm 0,0 UV-I 44 W/m² 13,4 °C 24,9 °C 11,3 km/h (2 Bft)
26.07.2018 18:09 24,9 °C 48 % 1011,5 hPa 0,0 mm 0,8 km/h (0 Bft) N-NO 19 ° 0 min 0,000 mm 0,0 UV-I 44 W/m² 13,1 °C 24,9 °C 3,2 km/h (1 Bft)
26.07.2018 18:10 24,8 °C 47 % 1011,5 hPa 0,0 mm 1,4 km/h (1 Bft) N 350 ° 0 min 0,000 mm 0,0 UV-I 44 W/m² 12,7 °C 24,8 °C 6,4 km/h (2 Bft)
26.07.2018 18:11 24,8 °C 48 % 1011,5 hPa 0,0 mm 2,9 km/h (1 Bft) NO 40 ° 0 min 0,000 mm 0,0 UV-I 44 W/m² 13,0 °C 24,8 °C 6,4 km/h (2 Bft)
26.07.2018 18:12 24,8 °C 48 % 1011,5 hPa 0,0 mm 4,6 km/h (1 Bft) N-NO 17 ° 0 min 0,000 mm 0,0 UV-I 44 W/m² 13,0 °C 24,8 °C 9,7 km/h (2 Bft)
26.07.2018 18:13 24,8 °C 48 % 1011,5 hPa 0,0 mm 5,1 km/h (1 Bft) NO 55 ° 0 min 0,000 mm 0,0 UV-I 46 W/m² 13,0 °C 24,8 °C 9,7 km/h (2 Bft)
26.07.2018 18:14 24,9 °C 50 % 1011,5 hPa 0,0 mm 5,0 km/h (1 Bft) O 84 ° 0 min 0,000 mm 1,2 UV-I 58 W/m² 13,7 °C 24,9 °C 8,0 km/h (2 Bft)
26.07.2018 18:15 24,9 °C 49 % 1011,5 hPa 0,0 mm 4,5 km/h (1 Bft) O 92 ° 0 min 0,000 mm 0,0 UV-I 51 W/m² 13,4 °C 24,9 °C 11,3 km/h (2 Bft)
26.07.2018 18:17 24,8 °C 48 % 1011,5 hPa 0,0 mm 3,1 km/h (1 Bft) O-NO 77 ° 0 min 0,000 mm 0,0 UV-I 42 W/m² 13,0 °C 24,8 °C 6,4 km/h (2 Bft)
26.07.2018 18:18 24,7 °C 49 % 1011,5 hPa 0,0 mm 5,0 km/h (1 Bft) S 171 ° 0 min 0,000 mm 0,0 UV-I 42 W/m² 13,3 °C 24,7 °C 8,0 km/h (2 Bft)
26.07.2018 18:19 24,7 °C 48 % 1011,5 hPa 0,0 mm 3,4 km/h (1 Bft) O-NO 63 ° 0 min 0,000 mm 0,0 UV-I 42 W/m² 12,9 °C 24,7 °C 6,4 km/h (2 Bft)
26.07.2018 18:20 24,6 °C 49 % 1011,5 hPa 0,0 mm 3,2 km/h (1 Bft) NO 45 ° 0 min 0,000 mm 0,0 UV-I 42 W/m² 13,2 °C 24,6 °C 8,0 km/h (2 Bft)
26.07.2018 18:23 24,6 °C 47 % 1011,5 hPa 0,0 mm 3,1 km/h (1 Bft) SO 146 ° 0 min 0,000 mm 0,0 UV-I 40 W/m² 12,5 °C 24,6 °C 6,4 km/h (2 Bft)
26.07.2018 18:24 24,6 °C 48 % 1011,5 hPa 0,0 mm 8,9 km/h (2 Bft) SO 129 ° 0 min 0,000 mm 0,0 UV-I 40 W/m² 12,8 °C 24,6 °C 12,9 km/h (3 Bft)
26.07.2018 18:25 24,6 °C 48 % 1011,5 hPa 0,0 mm 4,8 km/h (1 Bft) O-SO 114 ° 0 min 0,000 mm 0,0 UV-I 40 W/m² 12,8 °C 24,6 °C 12,9 km/h (3 Bft)
26.07.2018 18:27 24,4 °C 49 % 1011,5 hPa 0,0 mm 4,3 km/h (1 Bft) O-SO 118 ° 0 min 0,000 mm 0,0 UV-I 40 W/m² 13,0 °C 24,4 °C 11,3 km/h (2 Bft)
26.07.2018 18:28 24,4 °C 49 % 1011,5 hPa 0,0 mm 0,8 km/h (0 Bft) O-SO 121 ° 0 min 0,000 mm 0,0 UV-I 40 W/m² 13,0 °C 24,4 °C 3,2 km/h (1 Bft)
26.07.2018 18:29 24,3 °C 48 % 1011,5 hPa 0,0 mm 2,8 km/h (1 Bft) O-SO 115 ° 0 min 0,000 mm 0,0 UV-I 40 W/m² 12,6 °C 24,3 °C 6,4 km/h (2 Bft)
26.07.2018 18:30 24,3 °C 49 % 1011,5 hPa 0,0 mm 1,6 km/h (1 Bft) O-SO 112 ° 0 min 0,000 mm 0,0 UV-I 40 W/m² 12,9 °C 24,3 °C 6,4 km/h (2 Bft)
26.07.2018 18:33 24,3 °C 50 % 1011,5 hPa 0,0 mm 5,5 km/h (1 Bft) O-NO 67 ° 0 min 0,000 mm 0,0 UV-I 40 W/m² 13,2 °C 24,3 °C 9,7 km/h (2 Bft)
26.07.2018 18:34 24,3 °C 50 % 1011,5 hPa 0,0 mm 5,2 km/h (1 Bft) NO 43 ° 0 min 0,000 mm 0,0 UV-I 40 W/m² 13,2 °C 24,3 °C 8,0 km/h (2 Bft)
26.07.2018 18:35 24,4 °C 50 % 1011,5 hPa 0,0 mm 9,8 km/h (2 Bft) O 81 ° 0 min 0,000 mm 0,0 UV-I 40 W/m² 13,3 °C 24,4 °C 16,1 km/h (3 Bft)
26.07.2018 18:37 24,4 °C 51 % 1011,5 hPa 0,0 mm 6,3 km/h (2 Bft) O-NO 59 ° 0 min 0,000 mm 0,0 UV-I 40 W/m² 13,6 °C 24,4 °C 11,3 km/h (2 Bft)
26.07.2018 18:38 24,5 °C 50 % 1011,5 hPa 0,0 mm 6,5 km/h (2 Bft) O-NO 63 ° 0 min 0,000 mm 0,0 UV-I 40 W/m² 13,4 °C 24,5 °C 12,9 km/h (3 Bft)
26.07.2018 18:39 24,5 °C 50 % 1011,5 hPa 0,0 mm 5,2 km/h (1 Bft) NO 36 ° 0 min 0,000 mm 0,0 UV-I 40 W/m² 13,4 °C 24,5 °C 9,7 km/h (2 Bft)
26.07.2018 18:40 24,6 °C 50 % 1011,5 hPa 0,0 mm 3,2 km/h (1 Bft) N-NO 22 ° 0 min 0,000 mm 0,0 UV-I 40 W/m² 13,5 °C 24,6 °C 6,4 km/h (2 Bft)
26.07.2018 18:43 24,6 °C 50 % 1011,5 hPa 0,0 mm 8,7 km/h (2 Bft) O 84 ° 0 min 0,000 mm 0,0 UV-I 40 W/m² 13,5 °C 24,6 °C 12,9 km/h (3 Bft)
26.07.2018 18:44 24,6 °C 49 % 1011,5 hPa 0,0 mm 2,3 km/h (1 Bft) O-NO 59 ° 0 min 0,000 mm 0,0 UV-I 40 W/m² 13,2 °C 24,6 °C 3,2 km/h (1 Bft)
26.07.2018 18:45 24,6 °C 50 % 1011,5 hPa 0,0 mm 3,2 km/h (1 Bft) N-NO 26 ° 0 min 0,000 mm 0,0 UV-I 40 W/m² 13,5 °C 24,6 °C 4,8 km/h (1 Bft)
26.07.2018 18:47 24,6 °C 53 % 1011,5 hPa 0,0 mm 2,1 km/h (1 Bft) O-NO 63 ° 0 min 0,000 mm 0,0 UV-I 39 W/m² 14,4 °C 24,6 °C 4,8 km/h (1 Bft)
26.07.2018 18:48 24,5 °C 52 % 1011,5 hPa 0,0 mm 7,8 km/h (2 Bft) O-NO 63 ° 0 min 0,000 mm 0,0 UV-I 39 W/m² 14,0 °C 24,5 °C 14,5 km/h (3 Bft)
26.07.2018 18:49 24,4 °C 49 % 1011,5 hPa 0,0 mm 7,0 km/h (2 Bft) O-SO 121 ° 0 min 0,000 mm 0,0 UV-I 39 W/m² 13,0 °C 24,4 °C 12,9 km/h (3 Bft)
26.07.2018 18:50 24,4 °C 50 % 1011,5 hPa 0,0 mm 4,8 km/h (1 Bft) O-SO 112 ° 0 min 0,000 mm 0,0 UV-I 40 W/m² 13,3 °C 24,4 °C 9,7 km/h (2 Bft)
26.07.2018 18:53 24,3 °C 48 % 1011,6 hPa 0,0 mm 7,6 km/h (2 Bft) O 85 ° 0 min 0,000 mm 0,0 UV-I 39 W/m² 12,6 °C 24,3 °C 12,9 km/h (3 Bft)
26.07.2018 18:54 24,4 °C 49 % 1011,5 hPa 0,0 mm 5,2 km/h (1 Bft) O-NO 58 ° 0 min 0,000 mm 0,0 UV-I 39 W/m² 13,0 °C 24,4 °C 6,4 km/h (2 Bft)
26.07.2018 18:55 24,4 °C 48 % 1011,5 hPa 0,0 mm 5,5 km/h (1 Bft) O-NO 65 ° 0 min 0,000 mm 0,0 UV-I 39 W/m² 12,7 °C 24,4 °C 9,7 km/h (2 Bft)
26.07.2018 18:57 24,3 °C 49 % 1011,6 hPa 0,0 mm 3,3 km/h (1 Bft) O 89 ° 0 min 0,000 mm 0,0 UV-I 39 W/m² 12,9 °C 24,3 °C 8,0 km/h (2 Bft)
26.07.2018 18:58 24,3 °C 49 % 1011,6 hPa 0,0 mm 6,1 km/h (2 Bft) SO 130 ° 0 min 0,000 mm 0,0 UV-I 42 W/m² 12,9 °C 24,3 °C 9,7 km/h (2 Bft)
26.07.2018 18:59 24,3 °C 49 % 1011,6 hPa 0,0 mm 3,0 km/h (1 Bft) O-NO 59 ° 0 min 0,000 mm 0,0 UV-I 49 W/m² 12,9 °C 24,3 °C 8,0 km/h (2 Bft)
26.07.2018 19:00 24,3 °C 49 % 1011,6 hPa 0,0 mm 2,2 km/h (1 Bft) O-NO 65 ° 0 min 0,000 mm 0,0 UV-I 44 W/m² 12,9 °C 24,3 °C 4,8 km/h (1 Bft)
26.07.2018 19:01 24,3 °C 49 % 1011,6 hPa 0,0 mm 2,0 km/h (1 Bft) NO 52 ° 0 min 0,076 mm 0,0 UV-I 40 W/m² 12,9 °C 24,3 °C 4,8 km/h (1 Bft)
26.07.2018 19:02 24,3 °C 50 % 1011,6 hPa 0,0 mm 1,2 km/h (1 Bft) NO 51 ° 0 min 0,000 mm 0,0 UV-I 39 W/m² 13,2 °C 24,3 °C 3,2 km/h (1 Bft)
26.07.2018 19:03 24,3 °C 52 % 1011,6 hPa 0,0 mm 1,2 km/h (1 Bft) O 80 ° 0 min 0,000 mm 0,0 UV-I 40 W/m² 13,8 °C 24,3 °C 3,2 km/h (1 Bft)
26.07.2018 19:04 24,2 °C 51 % 1011,6 hPa 0,0 mm 3,4 km/h (1 Bft) O-NO 77 ° 0 min 0,000 mm 0,0 UV-I 40 W/m² 13,4 °C 24,2 °C 4,8 km/h (1 Bft)
26.07.2018 19:05 24,2 °C 52 % 1011,6 hPa 0,0 mm 3,0 km/h (1 Bft) O-SO 102 ° 0 min 0,000 mm 0,0 UV-I 40 W/m² 13,7 °C 24,2 °C 6,4 km/h (2 Bft)
26.07.2018 19:06 24,2 °C 51 % 1011,6 hPa 0,0 mm 2,1 km/h (1 Bft) O-NO 62 ° 0 min 0,000 mm 0,0 UV-I 81 W/m² 13,4 °C 24,2 °C 4,8 km/h (1 Bft)
26.07.2018 19:07 24,2 °C 52 % 1011,6 hPa 0,0 mm 1,9 km/h (1 Bft) O-NO 62 ° 0 min 0,000 mm 0,8 UV-I 104 W/m² 13,7 °C 24,2 °C 3,2 km/h (1 Bft)
26.07.2018 19:08 24,2 °C 53 % 1011,6 hPa 0,0 mm 1,5 km/h (1 Bft) O-NO 62 ° 0 min 0,000 mm 0,8 UV-I 83 W/m² 14,0 °C 24,2 °C 3,2 km/h (1 Bft)
26.07.2018 19:09 24,1 °C 52 % 1011,6 hPa 0,0 mm 2,5 km/h (1 Bft) O-NO 62 ° 0 min 0,000 mm 0,0 UV-I 44 W/m² 13,6 °C 24,1 °C 4,8 km/h (1 Bft)
26.07.2018 19:10 24,0 °C 53 % 1011,6 hPa 0,0 mm 4,3 km/h (1 Bft) NO 44 ° 0 min 0,000 mm 0,0 UV-I 37 W/m² 13,8 °C 24,0 °C 8,0 km/h (2 Bft)
26.07.2018 19:11 24,1 °C 51 % 1011,6 hPa 0,0 mm 4,1 km/h (1 Bft) O-NO 57 ° 0 min 0,000 mm 0,0 UV-I 39 W/m² 13,3 °C 24,1 °C 9,7 km/h (2 Bft)
26.07.2018 19:12 24,0 °C 54 % 1011,6 hPa 0,0 mm 4,8 km/h (1 Bft) O 86 ° 0 min 0,000 mm 0,0 UV-I 39 W/m² 14,1 °C 24,0 °C 6,4 km/h (2 Bft)
26.07.2018 19:13 23,9 °C 53 % 1011,6 hPa 0,0 mm 3,2 km/h (1 Bft) NO 39 ° 0 min 0,000 mm 0,0 UV-I 39 W/m² 13,7 °C 23,9 °C 6,4 km/h (2 Bft)
26.07.2018 19:14 23,9 °C 54 % 1011,6 hPa 0,0 mm 3,2 km/h (1 Bft) NO 41 ° 0 min 0,000 mm 0,0 UV-I 37 W/m² 14,0 °C 23,9 °C 4,8 km/h (1 Bft)
26.07.2018 19:15 23,9 °C 53 % 1011,6 hPa 0,0 mm 3,6 km/h (1 Bft) NO 52 ° 0 min 0,000 mm 0,0 UV-I 37 W/m² 13,7 °C 23,9 °C 6,4 km/h (2 Bft)
26.07.2018 19:16 23,9 °C 53 % 1011,6 hPa 0,0 mm 0,6 km/h (0 Bft) NO 52 ° 0 min 0,000 mm 0,0 UV-I 35 W/m² 13,7 °C 23,9 °C 3,2 km/h (1 Bft)
26.07.2018 19:17 23,9 °C 52 % 1011,6 hPa 0,0 mm 0,0 km/h (0 Bft) NO 52 ° 0 min 0,000 mm 0,0 UV-I 35 W/m² 13,4 °C 23,9 °C 0,0 km/h (0 Bft)
26.07.2018 19:18 23,9 °C 54 % 1011,6 hPa 0,0 mm 2,3 km/h (1 Bft) NO 52 ° 0 min 0,000 mm 0,0 UV-I 35 W/m² 14,0 °C 23,9 °C 3,2 km/h (1 Bft)
26.07.2018 19:19 23,9 °C 53 % 1011,7 hPa 0,0 mm 5,0 km/h (1 Bft) S-SO 154 ° 0 min 0,000 mm 0,0 UV-I 35 W/m² 13,7 °C 23,9 °C 8,0 km/h (2 Bft)
26.07.2018 19:20 23,8 °C 51 % 1011,6 hPa 0,0 mm 1,1 km/h (1 Bft) S-SO 154 ° 0 min 0,000 mm 0,0 UV-I 35 W/m² 13,0 °C 23,8 °C 1,6 km/h (1 Bft)
26.07.2018 19:21 23,8 °C 51 % 1011,7 hPa 0,0 mm 0,4 km/h (0 Bft) NO 49 ° 0 min 0,000 mm 0,0 UV-I 35 W/m² 13,0 °C 23,8 °C 1,6 km/h (1 Bft)
26.07.2018 19:22 23,8 °C 52 % 1011,6 hPa 0,0 mm 3,2 km/h (1 Bft) O-NO 59 ° 0 min 0,000 mm 0,0 UV-I 35 W/m² 13,3 °C 23,8 °C 4,8 km/h (1 Bft)
26.07.2018 19:23 23,8 °C 52 % 1011,7 hPa 0,0 mm 1,0 km/h (0 Bft) O-NO 59 ° 0 min 0,000 mm 0,0 UV-I 35 W/m² 13,3 °C 23,8 °C 3,2 km/h (1 Bft)
26.07.2018 19:24 23,8 °C 53 % 1011,7 hPa 0,0 mm 0,3 km/h (0 Bft) O-NO 59 ° 0 min 0,000 mm 0,0 UV-I 35 W/m² 13,6 °C 23,8 °C 1,6 km/h (1 Bft)
26.07.2018 19:25 23,8 °C 52 % 1011,7 hPa 0,0 mm 0,5 km/h (0 Bft) O-NO 59 ° 0 min 0,000 mm 0,0 UV-I 39 W/m² 13,3 °C 23,8 °C 1,6 km/h (1 Bft)
26.07.2018 19:26 23,8 °C 52 % 1011,6 hPa 0,0 mm 0,1 km/h (0 Bft) O-NO 59 ° 0 min 0,000 mm 0,6 UV-I 62 W/m² 13,3 °C 23,8 °C 1,6 km/h (1 Bft)
26.07.2018 19:27 23,8 °C 52 % 1011,6 hPa 0,0 mm 0,9 km/h (0 Bft) S-SO 153 ° 0 min 0,000 mm 0,7 UV-I 67 W/m² 13,3 °C 23,8 °C 3,2 km/h (1 Bft)
26.07.2018 19:28 23,7 °C 55 % 1011,6 hPa 0,0 mm 1,8 km/h (1 Bft) NO 51 ° 0 min 0,000 mm 0,7 UV-I 107 W/m² 14,1 °C 23,7 °C 3,2 km/h (1 Bft)
26.07.2018 19:29 23,7 °C 55 % 1011,6 hPa 0,0 mm 4,7 km/h (1 Bft) O-NO 63 ° 0 min 0,000 mm 0,6 UV-I 144 W/m² 14,1 °C 23,7 °C 8,0 km/h (2 Bft)
26.07.2018 19:30 23,6 °C 54 % 1011,6 hPa 0,0 mm 1,3 km/h (1 Bft) O-NO 63 ° 0 min 0,000 mm 0,6 UV-I 146 W/m² 13,7 °C 23,6 °C 3,2 km/h (1 Bft)
26.07.2018 19:31 23,6 °C 54 % 1011,6 hPa 0,0 mm 3,6 km/h (1 Bft) O-SO 107 ° 0 min 0,000 mm 0,6 UV-I 146 W/m² 13,7 °C 23,6 °C 4,8 km/h (1 Bft)
26.07.2018 19:32 23,6 °C 56 % 1011,6 hPa 0,0 mm 0,9 km/h (0 Bft) O-SO 107 ° 0 min 0,000 mm 0,6 UV-I 142 W/m² 14,3 °C 23,6 °C 3,2 km/h (1 Bft)
26.07.2018 19:33 23,4 °C 53 % 1011,6 hPa 0,0 mm 0,5 km/h (0 Bft) O-SO 107 ° 0 min 0,000 mm 0,6 UV-I 141 W/m² 13,3 °C 23,4 °C 1,6 km/h (1 Bft)
26.07.2018 19:34 23,4 °C 55 % 1011,6 hPa 0,0 mm 0,5 km/h (0 Bft) O-SO 107 ° 0 min 0,000 mm 0,6 UV-I 137 W/m² 13,8 °C 23,4 °C 3,2 km/h (1 Bft)
26.07.2018 19:35 23,4 °C 56 % 1011,6 hPa 0,0 mm 0,8 km/h (0 Bft) O-SO 107 ° 0 min 0,000 mm 0,6 UV-I 132 W/m² 14,1 °C 23,4 °C 1,6 km/h (1 Bft)
26.07.2018 19:36 23,3 °C 55 % 1011,6 hPa 0,0 mm 0,3 km/h (0 Bft) O-SO 107 ° 0 min 0,000 mm 0,6 UV-I 130 W/m² 13,7 °C 23,3 °C 1,6 km/h (1 Bft)
26.07.2018 19:37 23,3 °C 55 % 1011,6 hPa 0,0 mm 1,2 km/h (1 Bft) O-SO 107 ° 0 min 0,000 mm 0,5 UV-I 128 W/m² 13,7 °C 23,3 °C 3,2 km/h (1 Bft)
26.07.2018 19:38 23,3 °C 57 % 1011,6 hPa 0,0 mm 1,7 km/h (1 Bft) O-SO 107 ° 0 min 0,000 mm 0,5 UV-I 125 W/m² 14,3 °C 23,3 °C 4,8 km/h (1 Bft)
26.07.2018 19:39 23,2 °C 55 % 1011,7 hPa 0,0 mm 0,3 km/h (0 Bft) O-SO 107 ° 0 min 0,000 mm 0,5 UV-I 123 W/m² 13,6 °C 23,2 °C 3,2 km/h (1 Bft)
26.07.2018 19:40 23,2 °C 55 % 1011,6 hPa 0,0 mm 0,7 km/h (0 Bft) O-SO 106 ° 0 min 0,000 mm 0,5 UV-I 120 W/m² 13,6 °C 23,2 °C 1,6 km/h (1 Bft)
26.07.2018 19:41 23,3 °C 55 % 1011,6 hPa 0,0 mm 1,6 km/h (1 Bft) O-SO 106 ° 0 min 0,000 mm 0,5 UV-I 116 W/m² 13,7 °C 23,3 °C 3,2 km/h (1 Bft)
26.07.2018 19:42 23,2 °C 57 % 1011,7 hPa 0,0 mm 0,0 km/h (0 Bft) O-SO 106 ° 0 min 0,000 mm 0,5 UV-I 113 W/m² 14,2 °C 23,2 °C 0,0 km/h (0 Bft)
26.07.2018 19:43 23,3 °C 55 % 1011,7 hPa 0,0 mm 0,3 km/h (0 Bft) O-SO 106 ° 0 min 0,000 mm 0,5 UV-I 111 W/m² 13,7 °C 23,3 °C 1,6 km/h (1 Bft)
26.07.2018 19:44 23,2 °C 55 % 1011,7 hPa 0,0 mm 1,1 km/h (1 Bft) O-SO 106 ° 0 min 0,000 mm 0,5 UV-I 107 W/m² 13,6 °C 23,2 °C 3,2 km/h (1 Bft)
26.07.2018 19:45 23,3 °C 55 % 1011,6 hPa 0,0 mm 0,3 km/h (0 Bft) O-SO 106 ° 0 min 0,000 mm 0,5 UV-I 105 W/m² 13,7 °C 23,3 °C 1,6 km/h (1 Bft)
26.07.2018 19:46 23,2 °C 56 % 1011,7 hPa 0,0 mm 1,6 km/h (1 Bft) O-NO 76 ° 0 min 0,000 mm 0,5 UV-I 104 W/m² 13,9 °C 23,2 °C 4,8 km/h (1 Bft)
26.07.2018 19:47 23,2 °C 56 % 1011,7 hPa 0,0 mm 2,3 km/h (1 Bft) O 100 ° 0 min 0,000 mm 0,5 UV-I 98 W/m² 13,9 °C 23,2 °C 3,2 km/h (1 Bft)
26.07.2018 19:48 23,3 °C 54 % 1011,7 hPa 0,0 mm 1,3 km/h (1 Bft) O 98 ° 0 min 0,000 mm 0,0 UV-I 97 W/m² 13,5 °C 23,3 °C 3,2 km/h (1 Bft)
26.07.2018 19:49 23,3 °C 57 % 1011,7 hPa 0,0 mm 0,7 km/h (0 Bft) O 98 ° 0 min 0,000 mm 0,0 UV-I 95 W/m² 14,3 °C 23,3 °C 1,6 km/h (1 Bft)
26.07.2018 19:50 23,2 °C 56 % 1011,7 hPa 0,0 mm 4,9 km/h (1 Bft) O 94 ° 0 min 0,000 mm 0,0 UV-I 93 W/m² 13,9 °C 23,2 °C 9,7 km/h (2 Bft)
26.07.2018 19:51 23,2 °C 55 % 1011,7 hPa 0,0 mm 1,2 km/h (1 Bft) O 94 ° 0 min 0,000 mm 0,0 UV-I 91 W/m² 13,6 °C 23,2 °C 4,8 km/h (1 Bft)
26.07.2018 19:52 23,2 °C 57 % 1011,6 hPa 0,0 mm 0,3 km/h (0 Bft) O-SO 103 ° 0 min 0,000 mm 0,0 UV-I 90 W/m² 14,2 °C 23,2 °C 1,6 km/h (1 Bft)
26.07.2018 19:53 23,2 °C 56 % 1011,6 hPa 0,0 mm 0,0 km/h (0 Bft) O-SO 103 ° 0 min 0,000 mm 0,0 UV-I 84 W/m² 13,9 °C 23,2 °C 0,0 km/h (0 Bft)
26.07.2018 19:54 23,1 °C 56 % 1011,7 hPa 0,0 mm 0,0 km/h (0 Bft) O-SO 103 ° 0 min 0,000 mm 0,0 UV-I 83 W/m² 13,8 °C 23,1 °C 0,0 km/h (0 Bft)
26.07.2018 19:55 23,0 °C 56 % 1011,7 hPa 0,0 mm 0,4 km/h (0 Bft) O-SO 103 ° 0 min 0,000 mm 0,0 UV-I 79 W/m² 13,7 °C 23,0 °C 3,2 km/h (1 Bft)
26.07.2018 19:56 22,9 °C 57 % 1011,7 hPa 0,0 mm 2,0 km/h (1 Bft) O-SO 103 ° 0 min 0,000 mm 0,0 UV-I 77 W/m² 13,9 °C 22,9 °C 3,2 km/h (1 Bft)
26.07.2018 19:57 22,8 °C 57 % 1011,7 hPa 0,0 mm 1,4 km/h (1 Bft) O-NO 67 ° 0 min 0,000 mm 0,0 UV-I 76 W/m² 13,8 °C 22,8 °C 6,4 km/h (2 Bft)
26.07.2018 19:58 22,8 °C 57 % 1011,7 hPa 0,0 mm 1,4 km/h (1 Bft) SO 132 ° 0 min 0,000 mm 0,0 UV-I 72 W/m² 13,8 °C 22,8 °C 4,8 km/h (1 Bft)
26.07.2018 19:59 22,8 °C 59 % 1011,7 hPa 0,0 mm 1,7 km/h (1 Bft) SO 132 ° 0 min 0,000 mm 0,0 UV-I 69 W/m² 14,4 °C 22,8 °C 3,2 km/h (1 Bft)
26.07.2018 20:00 22,7 °C 57 % 1011,7 hPa 0,0 mm 1,7 km/h (1 Bft) O-SO 109 ° 0 min 0,000 mm 0,0 UV-I 67 W/m² 13,7 °C 22,7 °C 4,8 km/h (1 Bft)
26.07.2018 20:01 22,7 °C 59 % 1011,7 hPa 0,0 mm 2,8 km/h (1 Bft) O-SO 113 ° 0 min 0,076 mm 0,0 UV-I 65 W/m² 14,3 °C 22,7 °C 4,8 km/h (1 Bft)
26.07.2018 20:02 22,7 °C 57 % 1011,6 hPa 0,0 mm 1,3 km/h (1 Bft) NO 51 ° 0 min 0,000 mm 0,0 UV-I 63 W/m² 13,7 °C 22,7 °C 3,2 km/h (1 Bft)
26.07.2018 20:03 22,8 °C 57 % 1011,7 hPa 0,0 mm 1,9 km/h (1 Bft) NO 51 ° 0 min 0,000 mm 0,0 UV-I 62 W/m² 13,8 °C 22,8 °C 3,2 km/h (1 Bft)
26.07.2018 20:04 22,8 °C 57 % 1011,7 hPa 0,0 mm 0,0 km/h (0 Bft) NO 51 ° 0 min 0,000 mm 0,0 UV-I 56 W/m² 13,8 °C 22,8 °C 0,0 km/h (0 Bft)
26.07.2018 20:05 22,8 °C 58 % 1011,7 hPa 0,0 mm 0,0 km/h (0 Bft) NO 51 ° 0 min 0,000 mm 0,0 UV-I 54 W/m² 14,1 °C 22,8 °C 0,0 km/h (0 Bft)
26.07.2018 20:06 22,8 °C 57 % 1011,8 hPa 0,0 mm 0,0 km/h (0 Bft) NO 51 ° 0 min 0,000 mm 0,0 UV-I 53 W/m² 13,8 °C 22,8 °C 0,0 km/h (0 Bft)
26.07.2018 20:07 22,7 °C 58 % 1011,8 hPa 0,0 mm 0,1 km/h (0 Bft) NO 51 ° 0 min 0,000 mm 0,0 UV-I 51 W/m² 14,0 °C 22,7 °C 1,6 km/h (1 Bft)
26.07.2018 20:08 22,6 °C 58 % 1011,8 hPa 0,0 mm 1,5 km/h (1 Bft) NO 51 ° 0 min 0,000 mm 0,0 UV-I 49 W/m² 13,9 °C 22,6 °C 4,8 km/h (1 Bft)
26.07.2018 20:09 22,6 °C 58 % 1011,8 hPa 0,0 mm 0,1 km/h (0 Bft) NO 51 ° 0 min 0,000 mm 0,0 UV-I 47 W/m² 13,9 °C 22,6 °C 1,6 km/h (1 Bft)
26.07.2018 20:10 22,5 °C 58 % 1011,7 hPa 0,0 mm 0,0 km/h (0 Bft) NO 51 ° 0 min 0,000 mm 0,0 UV-I 44 W/m² 13,8 °C 22,5 °C 0,0 km/h (0 Bft)
26.07.2018 20:11 22,5 °C 57 % 1011,8 hPa 0,0 mm 0,0 km/h (0 Bft) NO 51 ° 0 min 0,000 mm 0,0 UV-I 42 W/m² 13,5 °C 22,5 °C 0,0 km/h (0 Bft)
26.07.2018 20:12 22,4 °C 58 % 1011,8 hPa 0,0 mm 0,6 km/h (0 Bft) NO 51 ° 0 min 0,000 mm 0,0 UV-I 42 W/m² 13,7 °C 22,4 °C 3,2 km/h (1 Bft)
26.07.2018 20:13 22,4 °C 59 % 1011,8 hPa 0,0 mm 0,0 km/h (0 Bft) NO 51 ° 0 min 0,000 mm 0,0 UV-I 40 W/m² 14,0 °C 22,4 °C 0,0 km/h (0 Bft)
26.07.2018 20:14 22,3 °C 60 % 1011,8 hPa 0,0 mm 0,0 km/h (0 Bft) NO 51 ° 0 min 0,000 mm 0,0 UV-I 40 W/m² 14,2 °C 22,3 °C 0,0 km/h (0 Bft)
26.07.2018 20:15 22,2 °C 60 % 1011,8 hPa 0,0 mm 1,1 km/h (1 Bft) O-NO 78 ° 0 min 0,000 mm 0,0 UV-I 39 W/m² 14,1 °C 22,2 °C 3,2 km/h (1 Bft)
26.07.2018 20:16 22,1 °C 59 % 1011,8 hPa 0,0 mm 3,6 km/h (1 Bft) O-SO 107 ° 0 min 0,000 mm 0,0 UV-I 35 W/m² 13,7 °C 22,1 °C 4,8 km/h (1 Bft)
26.07.2018 20:17 22,1 °C 58 % 1011,8 hPa 0,0 mm 0,4 km/h (0 Bft) O-SO 107 ° 0 min 0,000 mm 0,0 UV-I 35 W/m² 13,4 °C 22,1 °C 3,2 km/h (1 Bft)
26.07.2018 20:18 22,1 °C 59 % 1011,8 hPa 0,0 mm 0,2 km/h (0 Bft) O-SO 107 ° 0 min 0,000 mm 0,0 UV-I 33 W/m² 13,7 °C 22,1 °C 1,6 km/h (1 Bft)
26.07.2018 20:19 22,1 °C 58 % 1011,8 hPa 0,0 mm 0,9 km/h (0 Bft) O-SO 107 ° 0 min 0,000 mm 0,0 UV-I 32 W/m² 13,4 °C 22,1 °C 3,2 km/h (1 Bft)
26.07.2018 20:20 22,2 °C 58 % 1011,9 hPa 0,0 mm 0,0 km/h (0 Bft) O-SO 107 ° 0 min 0,000 mm 0,0 UV-I 30 W/m² 13,5 °C 22,2 °C 0,0 km/h (0 Bft)
26.07.2018 20:21 22,1 °C 61 % 1011,9 hPa 0,0 mm 0,3 km/h (0 Bft) O-SO 107 ° 0 min 0,000 mm 0,0 UV-I 30 W/m² 14,2 °C 22,1 °C 3,2 km/h (1 Bft)
26.07.2018 20:22 22,0 °C 60 % 1011,9 hPa 0,0 mm 1,3 km/h (1 Bft) O-SO 107 ° 0 min 0,000 mm 0,0 UV-I 26 W/m² 13,9 °C 22,0 °C 3,2 km/h (1 Bft)
26.07.2018 20:23 21,9 °C 60 % 1011,8 hPa 0,0 mm 0,0 km/h (0 Bft) O-SO 107 ° 0 min 0,000 mm 0,0 UV-I 26 W/m² 13,8 °C 21,9 °C 0,0 km/h (0 Bft)
26.07.2018 20:24 21,9 °C 61 % 1011,9 hPa 0,0 mm 0,2 km/h (0 Bft) O-SO 107 ° 0 min 0,000 mm 0,0 UV-I 25 W/m² 14,0 °C 21,9 °C 1,6 km/h (1 Bft)
26.07.2018 20:25 21,8 °C 61 % 1011,9 hPa 0,0 mm 0,0 km/h (0 Bft) O-SO 107 ° 0 min 0,000 mm 0,0 UV-I 25 W/m² 13,9 °C 21,8 °C 0,0 km/h (0 Bft)
26.07.2018 20:26 21,7 °C 60 % 1011,9 hPa 0,0 mm 0,1 km/h (0 Bft) O-SO 107 ° 0 min 0,000 mm 0,0 UV-I 23 W/m² 13,6 °C 21,7 °C 1,6 km/h (1 Bft)
26.07.2018 20:27 21,7 °C 60 % 1011,9 hPa 0,0 mm 0,9 km/h (0 Bft) O-SO 107 ° 0 min 0,000 mm 0,0 UV-I 21 W/m² 13,6 °C 21,7 °C 3,2 km/h (1 Bft)
26.07.2018 20:28 21,7 °C 59 % 1011,9 hPa 0,0 mm 0,0 km/h (0 Bft) O-SO 107 ° 0 min 0,000 mm 0,0 UV-I 19 W/m² 13,3 °C 21,7 °C 0,0 km/h (0 Bft)
26.07.2018 20:29 21,6 °C 61 % 1011,9 hPa 0,0 mm 0,0 km/h (0 Bft) O-SO 107 ° 0 min 0,000 mm 0,0 UV-I 19 W/m² 13,7 °C 21,6 °C 0,0 km/h (0 Bft)
26.07.2018 20:30 21,7 °C 60 % 1011,9 hPa 0,0 mm 0,0 km/h (0 Bft) O-SO 107 ° 0 min 0,000 mm 0,0 UV-I 19 W/m² 13,6 °C 21,7 °C 0,0 km/h (0 Bft)
26.07.2018 20:31 21,6 °C 60 % 1011,9 hPa 0,0 mm 1,6 km/h (1 Bft) O-SO 109 ° 0 min 0,000 mm 0,0 UV-I 18 W/m² 13,5 °C 21,6 °C 4,8 km/h (1 Bft)
26.07.2018 20:32 21,6 °C 61 % 1011,9 hPa 0,0 mm 1,1 km/h (1 Bft) O-SO 109 ° 0 min 0,000 mm 0,0 UV-I 18 W/m² 13,7 °C 21,6 °C 3,2 km/h (1 Bft)
26.07.2018 20:33 21,6 °C 60 % 1011,9 hPa 0,0 mm 0,1 km/h (0 Bft) O-SO 109 ° 0 min 0,000 mm 0,0 UV-I 16 W/m² 13,5 °C 21,6 °C 1,6 km/h (1 Bft)
26.07.2018 20:34 21,5 °C 62 % 1012,0 hPa 0,0 mm 0,7 km/h (0 Bft) O-SO 109 ° 0 min 0,000 mm 0,0 UV-I 14 W/m² 13,9 °C 21,5 °C 1,6 km/h (1 Bft)
26.07.2018 20:35 21,3 °C 63 % 1012,0 hPa 0,0 mm 1,3 km/h (1 Bft) O-SO 109 ° 0 min 0,000 mm 0,0 UV-I 14 W/m² 14,0 °C 21,3 °C 3,2 km/h (1 Bft)
26.07.2018 20:36 21,3 °C 61 % 1012,0 hPa 0,0 mm 0,5 km/h (0 Bft) O-SO 109 ° 0 min 0,000 mm 0,0 UV-I 14 W/m² 13,5 °C 21,3 °C 1,6 km/h (1 Bft)
26.07.2018 20:37 21,3 °C 62 % 1012,0 hPa 0,0 mm 0,9 km/h (0 Bft) O-SO 109 ° 0 min 0,000 mm 0,0 UV-I 12 W/m² 13,7 °C 21,3 °C 3,2 km/h (1 Bft)
26.07.2018 20:38 21,2 °C 62 % 1012,0 hPa 0,0 mm 0,6 km/h (0 Bft) O-SO 109 ° 0 min 0,000 mm 0,0 UV-I 12 W/m² 13,6 °C 21,2 °C 1,6 km/h (1 Bft)
26.07.2018 20:39 21,1 °C 62 % 1012,0 hPa 0,0 mm 2,0 km/h (1 Bft) O-SO 111 ° 0 min 0,000 mm 0,0 UV-I 12 W/m² 13,5 °C 21,1 °C 3,2 km/h (1 Bft)
26.07.2018 20:40 21,1 °C 61 % 1012,0 hPa 0,0 mm 0,1 km/h (0 Bft) O-SO 111 ° 0 min 0,000 mm 0,0 UV-I 11 W/m² 13,3 °C 21,1 °C 1,6 km/h (1 Bft)
26.07.2018 20:41 21,1 °C 63 % 1012,0 hPa 0,0 mm 1,3 km/h (1 Bft) O-SO 111 ° 0 min 0,000 mm 0,0 UV-I 11 W/m² 13,8 °C 21,1 °C 3,2 km/h (1 Bft)
26.07.2018 20:42 21,1 °C 62 % 1012,0 hPa 0,0 mm 1,9 km/h (1 Bft) O-SO 111 ° 0 min 0,000 mm 0,0 UV-I 11 W/m² 13,5 °C 21,1 °C 4,8 km/h (1 Bft)
26.07.2018 20:43 20,9 °C 64 % 1012,1 hPa 0,0 mm 1,1 km/h (1 Bft) O-SO 111 ° 0 min 0,000 mm 0,0 UV-I 11 W/m² 13,8 °C 20,9 °C 1,6 km/h (1 Bft)
26.07.2018 20:44 20,8 °C 64 % 1012,1 hPa 0,0 mm 1,9 km/h (1 Bft) O-SO 111 ° 0 min 0,000 mm 0,0 UV-I 9 W/m² 13,7 °C 20,8 °C 3,2 km/h (1 Bft)
26.07.2018 20:45 20,7 °C 65 % 1012,1 hPa 0,0 mm 1,7 km/h (1 Bft) O-SO 111 ° 0 min 0,000 mm 0,0 UV-I 9 W/m² 13,9 °C 20,7 °C 3,2 km/h (1 Bft)
26.07.2018 20:46 20,5 °C 65 % 1012,1 hPa 0,0 mm 0,2 km/h (0 Bft) O-SO 111 ° 0 min 0,000 mm 0,0 UV-I 9 W/m² 13,7 °C 20,5 °C 1,6 km/h (1 Bft)
26.07.2018 20:47 20,4 °C 65 % 1012,1 hPa 0,0 mm 0,9 km/h (0 Bft) O-SO 111 ° 0 min 0,000 mm 0,0 UV-I 7 W/m² 13,6 °C 20,4 °C 3,2 km/h (1 Bft)
26.07.2018 20:48 20,3 °C 65 % 1012,1 hPa 0,0 mm 2,9 km/h (1 Bft) O-SO 111 ° 0 min 0,000 mm 0,0 UV-I 7 W/m² 13,5 °C 20,3 °C 6,4 km/h (2 Bft)
26.07.2018 20:49 20,2 °C 66 % 1012,1 hPa 0,0 mm 2,0 km/h (1 Bft) O-SO 111 ° 0 min 0,000 mm 0,0 UV-I 7 W/m² 13,6 °C 20,2 °C 3,2 km/h (1 Bft)
26.07.2018 20:50 20,2 °C 67 % 1012,1 hPa 0,0 mm 0,8 km/h (0 Bft) O-SO 111 ° 0 min 0,000 mm 0,0 UV-I 7 W/m² 13,9 °C 20,2 °C 1,6 km/h (1 Bft)
26.07.2018 20:51 20,1 °C 67 % 1012,1 hPa 0,0 mm 0,0 km/h (0 Bft) O-SO 111 ° 0 min 0,000 mm 0,0 UV-I 5 W/m² 13,8 °C 20,1 °C 0,0 km/h (0 Bft)
26.07.2018 20:52 20,1 °C 67 % 1012,1 hPa 0,0 mm 0,0 km/h (0 Bft) O-SO 111 ° 0 min 0,000 mm 0,0 UV-I 5 W/m² 13,8 °C 20,1 °C 0,0 km/h (0 Bft)
26.07.2018 20:53 20,0 °C 67 % 1012,1 hPa 0,0 mm 1,1 km/h (1 Bft) O-SO 111 ° 0 min 0,000 mm 0,0 UV-I 5 W/m² 13,7 °C 20,0 °C 1,6 km/h (1 Bft)
26.07.2018 20:54 19,9 °C 67 % 1012,1 hPa 0,0 mm 0,5 km/h (0 Bft) O-SO 111 ° 0 min 0,000 mm 0,0 UV-I 5 W/m² 13,6 °C 19,9 °C 1,6 km/h (1 Bft)
26.07.2018 20:55 19,9 °C 67 % 1012,1 hPa 0,0 mm 0,2 km/h (0 Bft) O-SO 111 ° 0 min 0,000 mm 0,0 UV-I 5 W/m² 13,6 °C 19,9 °C 1,6 km/h (1 Bft)
26.07.2018 20:56 19,8 °C 67 % 1012,1 hPa 0,0 mm 0,3 km/h (0 Bft) O-SO 111 ° 0 min 0,000 mm 0,0 UV-I 5 W/m² 13,5 °C 19,8 °C 1,6 km/h (1 Bft)
26.07.2018 20:57 19,8 °C 67 % 1012,2 hPa 0,0 mm 0,7 km/h (0 Bft) O-SO 111 ° 0 min 0,000 mm 0,0 UV-I 5 W/m² 13,5 °C 19,8 °C 1,6 km/h (1 Bft)
26.07.2018 20:58 19,8 °C 67 % 1012,2 hPa 0,0 mm 0,7 km/h (0 Bft) O-SO 111 ° 0 min 0,000 mm 0,0 UV-I 0 W/m² 13,5 °C 19,8 °C 1,6 km/h (1 Bft)
26.07.2018 20:59 19,7 °C 68 % 1012,2 hPa 0,0 mm 1,8 km/h (1 Bft) O-SO 111 ° 0 min 0,000 mm 0,0 UV-I 0 W/m² 13,6 °C 19,7 °C 4,8 km/h (1 Bft)
26.07.2018 21:00 19,6 °C 68 % 1012,2 hPa 0,0 mm 0,8 km/h (0 Bft) O-SO 111 ° 0 min 0,000 mm 0,0 UV-I 0 W/m² 13,5 °C 19,6 °C 1,6 km/h (1 Bft)
26.07.2018 21:01 19,6 °C 67 % 1012,2 hPa 0,0 mm 0,2 km/h (0 Bft) O-SO 111 ° 0 min 0,026 mm 0,0 UV-I 0 W/m² 13,3 °C 19,6 °C 1,6 km/h (1 Bft)
26.07.2018 21:02 19,6 °C 67 % 1012,2 hPa 0,0 mm 0,0 km/h (0 Bft) O-SO 111 ° 0 min 0,000 mm 0,0 UV-I 0 W/m² 13,3 °C 19,6 °C 0,0 km/h (0 Bft)
26.07.2018 21:03 19,6 °C 68 % 1012,2 hPa 0,0 mm 0,0 km/h (0 Bft) O-SO 111 ° 0 min 0,000 mm 0,0 UV-I 0 W/m² 13,5 °C 19,6 °C 0,0 km/h (0 Bft)
26.07.2018 21:04 19,6 °C 67 % 1012,2 hPa 0,0 mm 0,0 km/h (0 Bft) O-SO 111 ° 0 min 0,000 mm 0,0 UV-I 0 W/m² 13,3 °C 19,6 °C 0,0 km/h (0 Bft)
26.07.2018 21:05 19,6 °C 67 % 1012,3 hPa 0,0 mm 0,3 km/h (0 Bft) O-SO 111 ° 0 min 0,000 mm 0,0 UV-I 0 W/m² 13,3 °C 19,6 °C 1,6 km/h (1 Bft)
26.07.2018 21:06 19,6 °C 68 % 1012,3 hPa 0,0 mm 0,6 km/h (0 Bft) O-SO 111 ° 0 min 0,000 mm 0,0 UV-I 0 W/m² 13,5 °C 19,6 °C 1,6 km/h (1 Bft)
26.07.2018 21:07 19,5 °C 67 % 1012,3 hPa 0,0 mm 0,5 km/h (0 Bft) O-SO 111 ° 0 min 0,000 mm 0,0 UV-I 0 W/m² 13,2 °C 19,5 °C 1,6 km/h (1 Bft)
26.07.2018 21:08 19,5 °C 67 % 1012,3 hPa 0,0 mm 0,8 km/h (0 Bft) O-SO 111 ° 0 min 0,000 mm 0,0 UV-I 0 W/m² 13,2 °C 19,5 °C 1,6 km/h (1 Bft)
26.07.2018 21:09 19,4 °C 68 % 1012,3 hPa 0,0 mm 0,5 km/h (0 Bft) O-SO 111 ° 0 min 0,000 mm 0,0 UV-I 0 W/m² 13,3 °C 19,4 °C 3,2 km/h (1 Bft)
26.07.2018 21:10 19,4 °C 67 % 1012,3 hPa 0,0 mm 0,5 km/h (0 Bft) O-SO 111 ° 0 min 0,000 mm 0,0 UV-I 0 W/m² 13,1 °C 19,4 °C 1,6 km/h (1 Bft)
26.07.2018 21:11 19,3 °C 68 % 1012,3 hPa 0,0 mm 1,7 km/h (1 Bft) O-SO 111 ° 0 min 0,000 mm 0,0 UV-I 0 W/m² 13,2 °C 19,3 °C 3,2 km/h (1 Bft)
26.07.2018 21:12 19,3 °C 68 % 1012,4 hPa 0,0 mm 0,9 km/h (0 Bft) O-SO 111 ° 0 min 0,000 mm 0,0 UV-I 0 W/m² 13,2 °C 19,3 °C 1,6 km/h (1 Bft)
26.07.2018 21:13 19,3 °C 68 % 1012,4 hPa 0,0 mm 0,8 km/h (0 Bft) O-SO 111 ° 0 min 0,000 mm 0,0 UV-I 0 W/m² 13,2 °C 19,3 °C 3,2 km/h (1 Bft)
26.07.2018 21:14 19,2 °C 68 % 1012,4 hPa 0,0 mm 0,1 km/h (0 Bft) O-SO 111 ° 0 min 0,000 mm 0,0 UV-I 0 W/m² 13,1 °C 19,2 °C 1,6 km/h (1 Bft)
26.07.2018 21:15 19,2 °C 68 % 1012,4 hPa 0,0 mm 0,0 km/h (0 Bft) O-SO 111 ° 0 min 0,000 mm 0,0 UV-I 0 W/m² 13,1 °C 19,2 °C 0,0 km/h (0 Bft)
26.07.2018 21:16 19,2 °C 68 % 1012,4 hPa 0,0 mm 0,0 km/h (0 Bft) O-SO 111 ° 0 min 0,000 mm 0,0 UV-I 0 W/m² 13,1 °C 19,2 °C 0,0 km/h (0 Bft)
26.07.2018 21:17 19,2 °C 68 % 1012,4 hPa 0,0 mm 0,0 km/h (0 Bft) O-SO 111 ° 0 min 0,000 mm 0,0 UV-I 0 W/m² 13,1 °C 19,2 °C 0,0 km/h (0 Bft)
26.07.2018 21:18 19,2 °C 69 % 1012,4 hPa 0,0 mm 0,0 km/h (0 Bft) O-SO 111 ° 0 min 0,000 mm 0,0 UV-I 0 W/m² 13,4 °C 19,2 °C 0,0 km/h (0 Bft)
26.07.2018 21:19 19,2 °C 68 % 1012,4 hPa 0,0 mm 0,0 km/h (0 Bft) O-SO 111 ° 0 min 0,000 mm 0,0 UV-I 0 W/m² 13,1 °C 19,2 °C 0,0 km/h (0 Bft)
26.07.2018 21:20 19,1 °C 69 % 1012,4 hPa 0,0 mm 0,0 km/h (0 Bft) O-SO 111 ° 0 min 0,000 mm 0,0 UV-I 0 W/m² 13,3 °C 19,1 °C 0,0 km/h (0 Bft)
26.07.2018 21:21 19,1 °C 68 % 1012,4 hPa 0,0 mm 0,0 km/h (0 Bft) O-SO 111 ° 0 min 0,000 mm 0,0 UV-I 0 W/m² 13,1 °C 19,1 °C 0,0 km/h (0 Bft)
26.07.2018 21:22 19,0 °C 69 % 1012,4 hPa 0,0 mm 0,0 km/h (0 Bft) O-SO 111 ° 0 min 0,000 mm 0,0 UV-I 0 W/m² 13,2 °C 19,0 °C 0,0 km/h (0 Bft)
26.07.2018 21:23 18,8 °C 70 % 1012,4 hPa 0,0 mm 0,0 km/h (0 Bft) O-SO 111 ° 0 min 0,000 mm 0,0 UV-I 0 W/m² 13,2 °C 18,8 °C 0,0 km/h (0 Bft)
26.07.2018 21:24 18,6 °C 71 % 1012,4 hPa 0,0 mm 0,0 km/h (0 Bft) O-SO 111 ° 0 min 0,000 mm 0,0 UV-I 0 W/m² 13,2 °C 18,6 °C 0,0 km/h (0 Bft)
26.07.2018 21:25 18,5 °C 70 % 1012,4 hPa 0,0 mm 0,0 km/h (0 Bft) O-SO 111 ° 0 min 0,000 mm 0,0 UV-I 0 W/m² 12,9 °C 18,5 °C 0,0 km/h (0 Bft)
26.07.2018 21:26 18,3 °C 72 % 1012,4 hPa 0,0 mm 0,0 km/h (0 Bft) O-SO 111 ° 0 min 0,000 mm 0,0 UV-I 0 W/m² 13,2 °C 18,3 °C 0,0 km/h (0 Bft)
26.07.2018 21:27 18,3 °C 71 % 1012,4 hPa 0,0 mm 0,0 km/h (0 Bft) O-SO 111 ° 0 min 0,000 mm 0,0 UV-I 0 W/m² 12,9 °C 18,3 °C 0,0 km/h (0 Bft)
26.07.2018 21:28 18,4 °C 71 % 1012,5 hPa 0,0 mm 0,0 km/h (0 Bft) O-SO 111 ° 0 min 0,000 mm 0,0 UV-I 0 W/m² 13,0 °C 18,4 °C 0,0 km/h (0 Bft)
26.07.2018 21:29 18,2 °C 72 % 1012,4 hPa 0,0 mm 0,0 km/h (0 Bft) O-SO 111 ° 0 min 0,000 mm 0,0 UV-I 0 W/m² 13,1 °C 18,2 °C 0,0 km/h (0 Bft)
26.07.2018 21:30 18,2 °C 72 % 1012,4 hPa 0,0 mm 0,0 km/h (0 Bft) O-SO 111 ° 0 min 0,000 mm 0,0 UV-I 0 W/m² 13,1 °C 18,2 °C 0,0 km/h (0 Bft)
26.07.2018 21:31 18,2 °C 73 % 1012,4 hPa 0,0 mm 0,0 km/h (0 Bft) O-SO 111 ° 0 min 0,000 mm 0,0 UV-I 0 W/m² 13,3 °C 18,2 °C 0,0 km/h (0 Bft)
26.07.2018 21:32 18,1 °C 73 % 1012,4 hPa 0,0 mm 0,0 km/h (0 Bft) O-SO 111 ° 0 min 0,000 mm 0,0 UV-I 0 W/m² 13,2 °C 18,1 °C 0,0 km/h (0 Bft)
26.07.2018 21:33 17,9 °C 73 % 1012,4 hPa 0,0 mm 0,0 km/h (0 Bft) O-SO 111 ° 0 min 0,000 mm 0,0 UV-I 0 W/m² 13,0 °C 17,9 °C 0,0 km/h (0 Bft)
26.07.2018 21:34 17,9 °C 74 % 1012,4 hPa 0,0 mm 0,0 km/h (0 Bft) O-SO 111 ° 0 min 0,000 mm 0,0 UV-I 0 W/m² 13,2 °C 17,9 °C 0,0 km/h (0 Bft)
26.07.2018 21:35 17,9 °C 74 % 1012,4 hPa 0,0 mm 0,0 km/h (0 Bft) O-SO 111 ° 0 min 0,000 mm 0,0 UV-I 0 W/m² 13,2 °C 17,9 °C 0,0 km/h (0 Bft)
26.07.2018 21:36 17,9 °C 73 % 1012,5 hPa 0,0 mm 0,0 km/h (0 Bft) O-SO 111 ° 0 min 0,000 mm 0,0 UV-I 0 W/m² 13,0 °C 17,9 °C 0,0 km/h (0 Bft)
26.07.2018 21:37 17,8 °C 73 % 1012,4 hPa 0,0 mm 0,0 km/h (0 Bft) O-SO 111 ° 0 min 0,000 mm 0,0 UV-I 0 W/m² 12,9 °C 17,8 °C 0,0 km/h (0 Bft)
26.07.2018 21:38 17,8 °C 73 % 1012,5 hPa 0,0 mm 0,0 km/h (0 Bft) O-SO 111 ° 0 min 0,000 mm 0,0 UV-I 0 W/m² 12,9 °C 17,8 °C 0,0 km/h (0 Bft)
26.07.2018 21:39 17,8 °C 74 % 1012,5 hPa 0,0 mm 0,0 km/h (0 Bft) O-SO 111 ° 0 min 0,000 mm 0,0 UV-I 0 W/m² 13,1 °C 17,8 °C 0,0 km/h (0 Bft)
26.07.2018 21:40 17,8 °C 74 % 1012,5 hPa 0,0 mm 0,0 km/h (0 Bft) O-SO 111 ° 0 min 0,000 mm 0,0 UV-I 0 W/m² 13,1 °C 17,8 °C 0,0 km/h (0 Bft)
26.07.2018 21:42 17,9 °C 73 % 1012,5 hPa 0,0 mm 0,0 km/h (0 Bft) O-SO 111 ° 0 min 0,000 mm 0,0 UV-I 0 W/m² 13,0 °C 17,9 °C 0,0 km/h (0 Bft)
26.07.2018 21:43 17,9 °C 73 % 1012,5 hPa 0,0 mm 0,0 km/h (0 Bft) O-SO 111 ° 0 min 0,000 mm 0,0 UV-I 0 W/m² 13,0 °C 17,9 °C 0,0 km/h (0 Bft)
26.07.2018 21:44 17,9 °C 73 % 1012,5 hPa 0,0 mm 0,0 km/h (0 Bft) O-SO 111 ° 0 min 0,000 mm 0,0 UV-I 0 W/m² 13,0 °C 17,9 °C 0,0 km/h (0 Bft)
26.07.2018 21:45 17,8 °C 73 % 1012,5 hPa 0,0 mm 0,0 km/h (0 Bft) O-SO 111 ° 0 min 0,000 mm 0,0 UV-I 0 W/m² 12,9 °C 17,8 °C 0,0 km/h (0 Bft)
26.07.2018 21:46 17,8 °C 73 % 1012,5 hPa 0,0 mm 0,0 km/h (0 Bft) O-SO 111 ° 0 min 0,000 mm 0,0 UV-I 0 W/m² 12,9 °C 17,8 °C 0,0 km/h (0 Bft)
26.07.2018 21:47 17,9 °C 73 % 1012,5 hPa 0,0 mm 0,0 km/h (0 Bft) O-SO 111 ° 0 min 0,000 mm 0,0 UV-I 0 W/m² 13,0 °C 17,9 °C 0,0 km/h (0 Bft)
26.07.2018 21:48 17,9 °C 73 % 1012,5 hPa 0,0 mm 0,0 km/h (0 Bft) O-SO 111 ° 0 min 0,000 mm 0,0 UV-I 0 W/m² 13,0 °C 17,9 °C 0,0 km/h (0 Bft)
26.07.2018 21:49 18,0 °C 72 % 1012,5 hPa 0,0 mm 0,0 km/h (0 Bft) O-SO 111 ° 0 min 0,000 mm 0,0 UV-I 0 W/m² 12,9 °C 18,0 °C 0,0 km/h (0 Bft)
26.07.2018 21:50 18,0 °C 72 % 1012,5 hPa 0,0 mm 0,8 km/h (0 Bft) O-SO 111 ° 0 min 0,000 mm 0,0 UV-I 0 W/m² 12,9 °C 18,0 °C 1,6 km/h (1 Bft)
26.07.2018 21:51 18,0 °C 72 % 1012,5 hPa 0,0 mm 0,3 km/h (0 Bft) O-SO 111 ° 0 min 0,000 mm 0,0 UV-I 0 W/m² 12,9 °C 18,0 °C 1,6 km/h (1 Bft)
26.07.2018 21:52 18,1 °C 72 % 1012,5 hPa 0,0 mm 0,1 km/h (0 Bft) O-SO 111 ° 0 min 0,000 mm 0,0 UV-I 0 W/m² 13,0 °C 18,1 °C 1,6 km/h (1 Bft)
26.07.2018 21:53 18,1 °C 72 % 1012,5 hPa 0,0 mm 1,2 km/h (1 Bft) O-SO 111 ° 0 min 0,000 mm 0,0 UV-I 0 W/m² 13,0 °C 18,1 °C 3,2 km/h (1 Bft)
26.07.2018 21:54 18,0 °C 72 % 1012,5 hPa 0,0 mm 0,0 km/h (0 Bft) O-SO 111 ° 0 min 0,000 mm 0,0 UV-I 0 W/m² 12,9 °C 18,0 °C 0,0 km/h (0 Bft)
26.07.2018 21:55 17,9 °C 72 % 1012,5 hPa 0,0 mm 0,0 km/h (0 Bft) O-SO 111 ° 0 min 0,000 mm 0,0 UV-I 0 W/m² 12,8 °C 17,9 °C 0,0 km/h (0 Bft)
26.07.2018 21:56 17,9 °C 72 % 1012,5 hPa 0,0 mm 1,0 km/h (0 Bft) O-SO 111 ° 0 min 0,000 mm 0,0 UV-I 0 W/m² 12,8 °C 17,9 °C 3,2 km/h (1 Bft)
26.07.2018 21:57 17,9 °C 72 % 1012,5 hPa 0,0 mm 0,3 km/h (0 Bft) O-SO 111 ° 0 min 0,000 mm 0,0 UV-I 0 W/m² 12,8 °C 17,9 °C 1,6 km/h (1 Bft)
26.07.2018 21:58 17,8 °C 72 % 1012,5 hPa 0,0 mm 0,0 km/h (0 Bft) O-SO 111 ° 0 min 0,000 mm 0,0 UV-I 0 W/m² 12,7 °C 17,8 °C 0,0 km/h (0 Bft)
26.07.2018 21:59 17,7 °C 74 % 1012,5 hPa 0,0 mm 0,0 km/h (0 Bft) O-SO 111 ° 0 min 0,000 mm 0,0 UV-I 0 W/m² 13,0 °C 17,7 °C 0,0 km/h (0 Bft)
26.07.2018 22:00 17,6 °C 74 % 1012,5 hPa 0,0 mm 0,0 km/h (0 Bft) O-SO 111 ° 0 min 0,000 mm 0,0 UV-I 0 W/m² 12,9 °C 17,6 °C 0,0 km/h (0 Bft)
26.07.2018 22:01 17,3 °C 74 % 1012,6 hPa 0,0 mm 0,0 km/h (0 Bft) O-SO 111 ° 0 min 0,000 mm 0,0 UV-I 0 W/m² 12,6 °C 17,3 °C 0,0 km/h (0 Bft)
26.07.2018 22:02 17,2 °C 76 % 1012,6 hPa 0,0 mm 0,6 km/h (0 Bft) O-SO 111 ° 0 min 0,000 mm 0,0 UV-I 0 W/m² 12,9 °C 17,2 °C 1,6 km/h (1 Bft)
26.07.2018 22:03 17,1 °C 75 % 1012,5 hPa 0,0 mm 1,2 km/h (1 Bft) O-SO 111 ° 0 min 0,000 mm 0,0 UV-I 0 W/m² 12,6 °C 17,1 °C 3,2 km/h (1 Bft)
26.07.2018 22:04 17,2 °C 75 % 1012,5 hPa 0,0 mm 0,3 km/h (0 Bft) O-SO 111 ° 0 min 0,000 mm 0,0 UV-I 0 W/m² 12,7 °C 17,2 °C 1,6 km/h (1 Bft)
26.07.2018 22:05 17,1 °C 76 % 1012,6 hPa 0,0 mm 0,0 km/h (0 Bft) O-SO 111 ° 0 min 0,000 mm 0,0 UV-I 0 W/m² 12,8 °C 17,1 °C 0,0 km/h (0 Bft)
26.07.2018 22:06 17,1 °C 76 % 1012,5 hPa 0,0 mm 0,0 km/h (0 Bft) O-SO 111 ° 0 min 0,000 mm 0,0 UV-I 0 W/m² 12,8 °C 17,1 °C 0,0 km/h (0 Bft)
26.07.2018 22:07 17,0 °C 77 % 1012,5 hPa 0,0 mm 0,0 km/h (0 Bft) O-SO 111 ° 0 min 0,000 mm 0,0 UV-I 0 W/m² 12,9 °C 17,0 °C 0,0 km/h (0 Bft)
26.07.2018 22:08 16,8 °C 78 % 1012,5 hPa 0,0 mm 0,0 km/h (0 Bft) O-SO 111 ° 0 min 0,000 mm 0,0 UV-I 0 W/m² 12,9 °C 16,8 °C 0,0 km/h (0 Bft)
26.07.2018 22:09 16,8 °C 78 % 1012,5 hPa 0,0 mm 0,0 km/h (0 Bft) O-SO 111 ° 0 min 0,000 mm 0,0 UV-I 0 W/m² 12,9 °C 16,8 °C 0,0 km/h (0 Bft)
26.07.2018 22:10 16,7 °C 77 % 1012,5 hPa 0,0 mm 0,0 km/h (0 Bft) O-SO 111 ° 0 min 0,000 mm 0,0 UV-I 0 W/m² 12,6 °C 16,7 °C 0,0 km/h (0 Bft)
26.07.2018 22:11 16,7 °C 79 % 1012,5 hPa 0,0 mm 0,0 km/h (0 Bft) O-SO 111 ° 0 min 0,000 mm 0,0 UV-I 0 W/m² 13,0 °C 16,7 °C 0,0 km/h (0 Bft)
26.07.2018 22:12 16,7 °C 79 % 1012,5 hPa 0,0 mm 0,0 km/h (0 Bft) O-SO 111 ° 0 min 0,000 mm 0,0 UV-I 0 W/m² 13,0 °C 16,7 °C 0,0 km/h (0 Bft)
26.07.2018 22:13 16,7 °C 78 % 1012,5 hPa 0,0 mm 0,0 km/h (0 Bft) O-SO 111 ° 0 min 0,000 mm 0,0 UV-I 0 W/m² 12,8 °C 16,7 °C 0,0 km/h (0 Bft)
26.07.2018 22:14 16,7 °C 80 % 1012,5 hPa 0,0 mm 0,0 km/h (0 Bft) O-SO 111 ° 0 min 0,000 mm 0,0 UV-I 0 W/m² 13,2 °C 16,7 °C 0,0 km/h (0 Bft)
26.07.2018 22:15 16,7 °C 80 % 1012,5 hPa 0,0 mm 0,0 km/h (0 Bft) O-SO 111 ° 0 min 0,000 mm 0,0 UV-I 0 W/m² 13,2 °C 16,7 °C 0,0 km/h (0 Bft)
26.07.2018 22:16 16,6 °C 80 % 1012,5 hPa 0,0 mm 0,0 km/h (0 Bft) O-SO 111 ° 0 min 0,000 mm 0,0 UV-I 0 W/m² 13,1 °C 16,6 °C 0,0 km/h (0 Bft)
26.07.2018 22:17 16,6 °C 80 % 1012,5 hPa 0,0 mm 0,0 km/h (0 Bft) O-SO 111 ° 0 min 0,000 mm 0,0 UV-I 0 W/m² 13,1 °C 16,6 °C 0,0 km/h (0 Bft)
26.07.2018 22:18 16,6 °C 80 % 1012,5 hPa 0,0 mm 0,0 km/h (0 Bft) O-SO 111 ° 0 min 0,000 mm 0,0 UV-I 0 W/m² 13,1 °C 16,6 °C 0,0 km/h (0 Bft)
26.07.2018 22:19 16,5 °C 80 % 1012,5 hPa 0,0 mm 0,0 km/h (0 Bft) O-SO 111 ° 0 min 0,000 mm 0,0 UV-I 0 W/m² 13,0 °C 16,5 °C 0,0 km/h (0 Bft)
26.07.2018 22:20 16,5 °C 80 % 1012,5 hPa 0,0 mm 0,0 km/h (0 Bft) O-SO 111 ° 0 min 0,000 mm 0,0 UV-I 0 W/m² 13,0 °C 16,5 °C 0,0 km/h (0 Bft)
26.07.2018 22:21 16,4 °C 80 % 1012,6 hPa 0,0 mm 0,0 km/h (0 Bft) O-SO 111 ° 0 min 0,000 mm 0,0 UV-I 0 W/m² 12,9 °C 16,4 °C 0,0 km/h (0 Bft)
26.07.2018 22:22 16,4 °C 79 % 1012,5 hPa 0,0 mm 0,0 km/h (0 Bft) O-SO 111 ° 0 min 0,000 mm 0,0 UV-I 0 W/m² 12,7 °C 16,4 °C 0,0 km/h (0 Bft)
26.07.2018 22:23 16,4 °C 79 % 1012,6 hPa 0,0 mm 0,0 km/h (0 Bft) O-SO 111 ° 0 min 0,000 mm 0,0 UV-I 0 W/m² 12,7 °C 16,4 °C 0,0 km/h (0 Bft)
26.07.2018 22:24 16,5 °C 79 % 1012,5 hPa 0,0 mm 0,0 km/h (0 Bft) O-SO 111 ° 0 min 0,000 mm 0,0 UV-I 0 W/m² 12,8 °C 16,5 °C 0,0 km/h (0 Bft)
26.07.2018 22:25 16,6 °C 78 % 1012,6 hPa 0,0 mm 0,0 km/h (0 Bft) O-SO 111 ° 0 min 0,000 mm 0,0 UV-I 0 W/m² 12,7 °C 16,6 °C 0,0 km/h (0 Bft)
26.07.2018 22:26 16,6 °C 78 % 1012,6 hPa 0,0 mm 0,0 km/h (0 Bft) O-SO 111 ° 0 min 0,000 mm 0,0 UV-I 0 W/m² 12,7 °C 16,6 °C 0,0 km/h (0 Bft)
26.07.2018 22:27 16,6 °C 78 % 1012,6 hPa 0,0 mm 0,0 km/h (0 Bft) O-SO 111 ° 0 min 0,000 mm 0,0 UV-I 0 W/m² 12,7 °C 16,6 °C 0,0 km/h (0 Bft)
26.07.2018 22:28 16,6 °C 77 % 1012,6 hPa 0,0 mm 0,0 km/h (0 Bft) O-SO 111 ° 0 min 0,000 mm 0,0 UV-I 0 W/m² 12,5 °C 16,6 °C 0,0 km/h (0 Bft)
26.07.2018 22:29 16,6 °C 77 % 1012,6 hPa 0,0 mm 0,0 km/h (0 Bft) O-SO 111 ° 0 min 0,000 mm 0,0 UV-I 0 W/m² 12,5 °C 16,6 °C 0,0 km/h (0 Bft)
26.07.2018 22:30 16,6 °C 77 % 1012,6 hPa 0,0 mm 0,0 km/h (0 Bft) O-SO 111 ° 0 min 0,000 mm 0,0 UV-I 0 W/m² 12,5 °C 16,6 °C 0,0 km/h (0 Bft)
26.07.2018 22:31 16,5 °C 78 % 1012,6 hPa 0,0 mm 0,0 km/h (0 Bft) O-SO 111 ° 0 min 0,000 mm 0,0 UV-I 0 W/m² 12,6 °C 16,5 °C 0,0 km/h (0 Bft)
26.07.2018 22:32 16,4 °C 78 % 1012,6 hPa 0,0 mm 0,0 km/h (0 Bft) O-SO 111 ° 0 min 0,000 mm 0,0 UV-I 0 W/m² 12,6 °C 16,4 °C 0,0 km/h (0 Bft)
26.07.2018 22:33 16,3 °C 79 % 1012,6 hPa 0,0 mm 0,0 km/h (0 Bft) O-SO 111 ° 0 min 0,000 mm 0,0 UV-I 0 W/m² 12,6 °C 16,3 °C 0,0 km/h (0 Bft)
26.07.2018 22:34 16,3 °C 80 % 1012,6 hPa 0,0 mm 0,0 km/h (0 Bft) O-SO 111 ° 0 min 0,000 mm 0,0 UV-I 0 W/m² 12,8 °C 16,3 °C 0,0 km/h (0 Bft)
26.07.2018 22:35 16,2 °C 80 % 1012,6 hPa 0,0 mm 0,0 km/h (0 Bft) O-SO 111 ° 0 min 0,000 mm 0,0 UV-I 0 W/m² 12,7 °C 16,2 °C 0,0 km/h (0 Bft)
26.07.2018 22:36 16,1 °C 79 % 1012,6 hPa 0,0 mm 0,0 km/h (0 Bft) O-SO 111 ° 0 min 0,000 mm 0,0 UV-I 0 W/m² 12,5 °C 16,1 °C 0,0 km/h (0 Bft)
26.07.2018 22:37 16,1 °C 80 % 1012,7 hPa 0,0 mm 0,0 km/h (0 Bft) O-SO 111 ° 0 min 0,000 mm 0,0 UV-I 0 W/m² 12,6 °C 16,1 °C 0,0 km/h (0 Bft)
26.07.2018 22:38 16,1 °C 80 % 1012,6 hPa 0,0 mm 0,0 km/h (0 Bft) O-SO 111 ° 0 min 0,000 mm 0,0 UV-I 0 W/m² 12,6 °C 16,1 °C 0,0 km/h (0 Bft)
26.07.2018 22:39 16,0 °C 81 % 1012,6 hPa 0,0 mm 0,0 km/h (0 Bft) O-SO 111 ° 0 min 0,000 mm 0,0 UV-I 0 W/m² 12,7 °C 16,0 °C 0,0 km/h (0 Bft)
26.07.2018 22:40 16,0 °C 81 % 1012,6 hPa 0,0 mm 0,0 km/h (0 Bft) O-SO 111 ° 0 min 0,000 mm 0,0 UV-I 0 W/m² 12,7 °C 16,0 °C 0,0 km/h (0 Bft)
26.07.2018 22:41 15,9 °C 81 % 1012,6 hPa 0,0 mm 0,0 km/h (0 Bft) O-SO 111 ° 0 min 0,000 mm 0,0 UV-I 0 W/m² 12,6 °C 15,9 °C 0,0 km/h (0 Bft)
26.07.2018 22:42 15,9 °C 81 % 1012,6 hPa 0,0 mm 0,0 km/h (0 Bft) O-SO 111 ° 0 min 0,000 mm 0,0 UV-I 0 W/m² 12,6 °C 15,9 °C 0,0 km/h (0 Bft)
26.07.2018 22:43 15,8 °C 81 % 1012,6 hPa 0,0 mm 0,0 km/h (0 Bft) O-SO 111 ° 0 min 0,000 mm 0,0 UV-I 0 W/m² 12,5 °C 15,8 °C 0,0 km/h (0 Bft)
26.07.2018 22:44 15,7 °C 82 % 1012,6 hPa 0,0 mm 0,0 km/h (0 Bft) O-SO 111 ° 0 min 0,000 mm 0,0 UV-I 0 W/m² 12,6 °C 15,7 °C 0,0 km/h (0 Bft)
26.07.2018 22:45 15,7 °C 82 % 1012,7 hPa 0,0 mm 0,0 km/h (0 Bft) O-SO 111 ° 0 min 0,000 mm 0,0 UV-I 0 W/m² 12,6 °C 15,7 °C 0,0 km/h (0 Bft)
26.07.2018 22:46 15,6 °C 83 % 1012,7 hPa 0,0 mm 0,0 km/h (0 Bft) O-SO 111 ° 0 min 0,000 mm 0,0 UV-I 0 W/m² 12,7 °C 15,6 °C 0,0 km/h (0 Bft)
26.07.2018 22:47 15,6 °C 83 % 1012,6 hPa 0,0 mm 0,0 km/h (0 Bft) O-SO 111 ° 0 min 0,000 mm 0,0 UV-I 0 W/m² 12,7 °C 15,6 °C 0,0 km/h (0 Bft)
26.07.2018 22:48 15,6 °C 83 % 1012,6 hPa 0,0 mm 0,0 km/h (0 Bft) O-SO 111 ° 0 min 0,000 mm 0,0 UV-I 0 W/m² 12,7 °C 15,6 °C 0,0 km/h (0 Bft)
26.07.2018 22:49 15,6 °C 83 % 1012,6 hPa 0,0 mm 0,0 km/h (0 Bft) O-SO 111 ° 0 min 0,000 mm 0,0 UV-I 0 W/m² 12,7 °C 15,6 °C 0,0 km/h (0 Bft)
26.07.2018 22:50 15,6 °C 83 % 1012,6 hPa 0,0 mm 0,0 km/h (0 Bft) O-SO 111 ° 0 min 0,000 mm 0,0 UV-I 0 W/m² 12,7 °C 15,6 °C 0,0 km/h (0 Bft)
26.07.2018 22:51 15,6 °C 83 % 1012,6 hPa 0,0 mm 0,0 km/h (0 Bft) O-SO 111 ° 0 min 0,000 mm 0,0 UV-I 0 W/m² 12,7 °C 15,6 °C 0,0 km/h (0 Bft)
26.07.2018 22:52 15,7 °C 83 % 1012,6 hPa 0,0 mm 0,0 km/h (0 Bft) O-SO 111 ° 0 min 0,000 mm 0,0 UV-I 0 W/m² 12,8 °C 15,7 °C 0,0 km/h (0 Bft)
26.07.2018 22:53 15,7 °C 83 % 1012,6 hPa 0,0 mm 0,0 km/h (0 Bft) O-SO 111 ° 0 min 0,000 mm 0,0 UV-I 0 W/m² 12,8 °C 15,7 °C 0,0 km/h (0 Bft)
26.07.2018 22:54 15,7 °C 83 % 1012,6 hPa 0,0 mm 0,0 km/h (0 Bft) O-SO 111 ° 0 min 0,000 mm 0,0 UV-I 0 W/m² 12,8 °C 15,7 °C 0,0 km/h (0 Bft)
26.07.2018 22:55 15,7 °C 82 % 1012,5 hPa 0,0 mm 0,0 km/h (0 Bft) O-SO 111 ° 0 min 0,000 mm 0,0 UV-I 0 W/m² 12,6 °C 15,7 °C 0,0 km/h (0 Bft)
26.07.2018 22:56 15,7 °C 82 % 1012,6 hPa 0,0 mm 0,0 km/h (0 Bft) O-SO 111 ° 0 min 0,000 mm 0,0 UV-I 0 W/m² 12,6 °C 15,7 °C 0,0 km/h (0 Bft)
26.07.2018 22:57 15,7 °C 82 % 1012,5 hPa 0,0 mm 0,0 km/h (0 Bft) O-SO 111 ° 0 min 0,000 mm 0,0 UV-I 0 W/m² 12,6 °C 15,7 °C 0,0 km/h (0 Bft)
26.07.2018 22:58 15,7 °C 81 % 1012,5 hPa 0,0 mm 0,0 km/h (0 Bft) O-SO 111 ° 0 min 0,000 mm 0,0 UV-I 0 W/m² 12,4 °C 15,7 °C 0,0 km/h (0 Bft)
26.07.2018 22:59 15,8 °C 81 % 1012,5 hPa 0,0 mm 0,0 km/h (0 Bft) O-SO 111 ° 0 min 0,000 mm 0,0 UV-I 0 W/m² 12,5 °C 15,8 °C 0,0 km/h (0 Bft)
26.07.2018 23:00 15,8 °C 81 % 1012,5 hPa 0,0 mm 0,0 km/h (0 Bft) O-SO 111 ° 0 min 0,025 mm 0,0 UV-I 0 W/m² 12,5 °C 15,8 °C 0,0 km/h (0 Bft)
26.07.2018 23:01 15,8 °C 81 % 1012,5 hPa 0,0 mm 0,0 km/h (0 Bft) O-SO 111 ° 0 min 0,000 mm 0,0 UV-I 0 W/m² 12,5 °C 15,8 °C 0,0 km/h (0 Bft)
26.07.2018 23:02 15,8 °C 81 % 1012,5 hPa 0,0 mm 0,0 km/h (0 Bft) O-SO 111 ° 0 min 0,000 mm 0,0 UV-I 0 W/m² 12,5 °C 15,8 °C 0,0 km/h (0 Bft)
26.07.2018 23:03 15,8 °C 81 % 1012,5 hPa 0,0 mm 0,0 km/h (0 Bft) O-SO 111 ° 0 min 0,000 mm 0,0 UV-I 0 W/m² 12,5 °C 15,8 °C 0,0 km/h (0 Bft)
26.07.2018 23:04 15,8 °C 81 % 1012,5 hPa 0,0 mm 0,0 km/h (0 Bft) O-SO 111 ° 0 min 0,000 mm 0,0 UV-I 0 W/m² 12,5 °C 15,8 °C 0,0 km/h (0 Bft)
26.07.2018 23:05 15,7 °C 81 % 1012,5 hPa 0,0 mm 0,0 km/h (0 Bft) O-SO 111 ° 0 min 0,000 mm 0,0 UV-I 0 W/m² 12,4 °C 15,7 °C 0,0 km/h (0 Bft)
26.07.2018 23:06 15,7 °C 82 % 1012,5 hPa 0,0 mm 0,0 km/h (0 Bft) O-SO 111 ° 0 min 0,000 mm 0,0 UV-I 0 W/m² 12,6 °C 15,7 °C 0,0 km/h (0 Bft)
26.07.2018 23:07 15,6 °C 82 % 1012,5 hPa 0,0 mm 0,0 km/h (0 Bft) O-SO 111 ° 0 min 0,000 mm 0,0 UV-I 0 W/m² 12,5 °C 15,6 °C 0,0 km/h (0 Bft)
26.07.2018 23:08 15,6 °C 82 % 1012,5 hPa 0,0 mm 0,0 km/h (0 Bft) O-SO 111 ° 0 min 0,000 mm 0,0 UV-I 0 W/m² 12,5 °C 15,6 °C 0,0 km/h (0 Bft)
26.07.2018 23:09 15,6 °C 82 % 1012,5 hPa 0,0 mm 0,0 km/h (0 Bft) O-SO 111 ° 0 min 0,000 mm 0,0 UV-I 0 W/m² 12,5 °C 15,6 °C 0,0 km/h (0 Bft)
26.07.2018 23:10 15,6 °C 82 % 1012,5 hPa 0,0 mm 0,0 km/h (0 Bft) O-SO 111 ° 0 min 0,000 mm 0,0 UV-I 0 W/m² 12,5 °C 15,6 °C 0,0 km/h (0 Bft)
26.07.2018 23:11 15,6 °C 82 % 1012,5 hPa 0,0 mm 0,0 km/h (0 Bft) O-SO 111 ° 0 min 0,000 mm 0,0 UV-I 0 W/m² 12,5 °C 15,6 °C 0,0 km/h (0 Bft)
26.07.2018 23:12 15,5 °C 82 % 1012,5 hPa 0,0 mm 0,0 km/h (0 Bft) O-SO 111 ° 0 min 0,000 mm 0,0 UV-I 0 W/m² 12,4 °C 15,5 °C 0,0 km/h (0 Bft)
26.07.2018 23:13 15,5 °C 83 % 1012,5 hPa 0,0 mm 0,0 km/h (0 Bft) O-SO 111 ° 0 min 0,000 mm 0,0 UV-I 0 W/m² 12,6 °C 15,5 °C 0,0 km/h (0 Bft)
26.07.2018 23:14 15,5 °C 83 % 1012,5 hPa 0,0 mm 0,0 km/h (0 Bft) O-SO 111 ° 0 min 0,000 mm 0,0 UV-I 0 W/m² 12,6 °C 15,5 °C 0,0 km/h (0 Bft)
26.07.2018 23:15 15,4 °C 83 % 1012,5 hPa 0,0 mm 0,0 km/h (0 Bft) O-SO 111 ° 0 min 0,000 mm 0,0 UV-I 0 W/m² 12,5 °C 15,4 °C 0,0 km/h (0 Bft)
26.07.2018 23:16 15,4 °C 83 % 1012,4 hPa 0,0 mm 0,0 km/h (0 Bft) O-SO 111 ° 0 min 0,000 mm 0,0 UV-I 0 W/m² 12,5 °C 15,4 °C 0,0 km/h (0 Bft)
26.07.2018 23:17 15,3 °C 83 % 1012,4 hPa 0,0 mm 0,0 km/h (0 Bft) O-SO 111 ° 0 min 0,000 mm 0,0 UV-I 0 W/m² 12,4 °C 15,3 °C 0,0 km/h (0 Bft)
26.07.2018 23:18 15,4 °C 83 % 1012,5 hPa 0,0 mm 0,0 km/h (0 Bft) O-SO 111 ° 0 min 0,000 mm 0,0 UV-I 0 W/m² 12,5 °C 15,4 °C 0,0 km/h (0 Bft)
26.07.2018 23:19 15,3 °C 84 % 1012,4 hPa 0,0 mm 0,0 km/h (0 Bft) O-SO 111 ° 0 min 0,000 mm 0,0 UV-I 0 W/m² 12,6 °C 15,3 °C 0,0 km/h (0 Bft)
26.07.2018 23:20 15,3 °C 84 % 1012,4 hPa 0,0 mm 0,0 km/h (0 Bft) O-SO 111 ° 0 min 0,000 mm 0,0 UV-I 0 W/m² 12,6 °C 15,3 °C 0,0 km/h (0 Bft)
26.07.2018 23:21 15,3 °C 84 % 1012,4 hPa 0,0 mm 0,0 km/h (0 Bft) O-SO 111 ° 0 min 0,000 mm 0,0 UV-I 0 W/m² 12,6 °C 15,3 °C 0,0 km/h (0 Bft)
26.07.2018 23:22 15,2 °C 84 % 1012,4 hPa 0,0 mm 0,0 km/h (0 Bft) O-SO 111 ° 0 min 0,000 mm 0,0 UV-I 0 W/m² 12,5 °C 15,2 °C 0,0 km/h (0 Bft)
26.07.2018 23:23 15,2 °C 84 % 1012,4 hPa 0,0 mm 0,0 km/h (0 Bft) O-SO 111 ° 0 min 0,000 mm 0,0 UV-I 0 W/m² 12,5 °C 15,2 °C 0,0 km/h (0 Bft)
26.07.2018 23:24 15,1 °C 85 % 1012,4 hPa 0,0 mm 0,0 km/h (0 Bft) O-SO 111 ° 0 min 0,000 mm 0,0 UV-I 0 W/m² 12,6 °C 15,1 °C 0,0 km/h (0 Bft)
26.07.2018 23:25 15,1 °C 85 % 1012,4 hPa 0,0 mm 0,0 km/h (0 Bft) O-SO 111 ° 0 min 0,000 mm 0,0 UV-I 0 W/m² 12,6 °C 15,1 °C 0,0 km/h (0 Bft)
26.07.2018 23:26 15,1 °C 85 % 1012,4 hPa 0,0 mm 0,0 km/h (0 Bft) O-SO 111 ° 0 min 0,000 mm 0,0 UV-I 0 W/m² 12,6 °C 15,1 °C 0,0 km/h (0 Bft)
26.07.2018 23:27 15,1 °C 84 % 1012,4 hPa 0,0 mm 0,0 km/h (0 Bft) O-SO 111 ° 0 min 0,000 mm 0,0 UV-I 0 W/m² 12,4 °C 15,1 °C 0,0 km/h (0 Bft)
26.07.2018 23:28 15,1 °C 84 % 1012,4 hPa 0,0 mm 0,0 km/h (0 Bft) O-SO 111 ° 0 min 0,000 mm 0,0 UV-I 0 W/m² 12,4 °C 15,1 °C 0,0 km/h (0 Bft)
26.07.2018 23:29 15,1 °C 84 % 1012,4 hPa 0,0 mm 0,0 km/h (0 Bft) O-SO 111 ° 0 min 0,000 mm 0,0 UV-I 0 W/m² 12,4 °C 15,1 °C 0,0 km/h (0 Bft)
26.07.2018 23:30 15,1 °C 84 % 1012,4 hPa 0,0 mm 0,0 km/h (0 Bft) O-SO 111 ° 0 min 0,000 mm 0,0 UV-I 0 W/m² 12,4 °C 15,1 °C 0,0 km/h (0 Bft)
26.07.2018 23:31 15,1 °C 84 % 1012,4 hPa 0,0 mm 0,0 km/h (0 Bft) O-SO 111 ° 0 min 0,000 mm 0,0 UV-I 0 W/m² 12,4 °C 15,1 °C 0,0 km/h (0 Bft)
26.07.2018 23:32 15,0 °C 85 % 1012,4 hPa 0,0 mm 0,0 km/h (0 Bft) O-SO 111 ° 0 min 0,000 mm 0,0 UV-I 0 W/m² 12,5 °C 15,0 °C 0,0 km/h (0 Bft)
26.07.2018 23:33 14,9 °C 85 % 1012,4 hPa 0,0 mm 0,0 km/h (0 Bft) O-SO 111 ° 0 min 0,000 mm 0,0 UV-I 0 W/m² 12,4 °C 14,9 °C 0,0 km/h (0 Bft)
26.07.2018 23:34 14,9 °C 85 % 1012,4 hPa 0,0 mm 0,0 km/h (0 Bft) O-SO 111 ° 0 min 0,000 mm 0,0 UV-I 0 W/m² 12,4 °C 14,9 °C 0,0 km/h (0 Bft)
26.07.2018 23:35 14,9 °C 86 % 1012,4 hPa 0,0 mm 0,0 km/h (0 Bft) O-SO 111 ° 0 min 0,000 mm 0,0 UV-I 0 W/m² 12,6 °C 14,9 °C 0,0 km/h (0 Bft)
26.07.2018 23:36 14,9 °C 86 % 1012,4 hPa 0,0 mm 0,0 km/h (0 Bft) O-SO 111 ° 0 min 0,000 mm 0,0 UV-I 0 W/m² 12,6 °C 14,9 °C 0,0 km/h (0 Bft)
26.07.2018 23:37 14,9 °C 86 % 1012,4 hPa 0,0 mm 0,0 km/h (0 Bft) O-SO 111 ° 0 min 0,000 mm 0,0 UV-I 0 W/m² 12,6 °C 14,9 °C 0,0 km/h (0 Bft)
26.07.2018 23:38 15,0 °C 85 % 1012,4 hPa 0,0 mm 0,0 km/h (0 Bft) O-SO 111 ° 0 min 0,000 mm 0,0 UV-I 0 W/m² 12,5 °C 15,0 °C 0,0 km/h (0 Bft)
26.07.2018 23:39 15,0 °C 85 % 1012,4 hPa 0,0 mm 0,0 km/h (0 Bft) O-SO 111 ° 0 min 0,000 mm 0,0 UV-I 0 W/m² 12,5 °C 15,0 °C 0,0 km/h (0 Bft)
26.07.2018 23:40 15,1 °C 84 % 1012,3 hPa 0,0 mm 0,0 km/h (0 Bft) O-SO 111 ° 0 min 0,000 mm 0,0 UV-I 0 W/m² 12,4 °C 15,1 °C 0,0 km/h (0 Bft)
26.07.2018 23:41 15,1 °C 85 % 1012,4 hPa 0,0 mm 0,0 km/h (0 Bft) O-SO 111 ° 0 min 0,000 mm 0,0 UV-I 0 W/m² 12,6 °C 15,1 °C 0,0 km/h (0 Bft)
26.07.2018 23:42 15,1 °C 85 % 1012,4 hPa 0,0 mm 0,0 km/h (0 Bft) O-SO 111 ° 0 min 0,000 mm 0,0 UV-I 0 W/m² 12,6 °C 15,1 °C 0,0 km/h (0 Bft)
26.07.2018 23:43 15,1 °C 85 % 1012,4 hPa 0,0 mm 0,0 km/h (0 Bft) O-SO 111 ° 0 min 0,000 mm 0,0 UV-I 0 W/m² 12,6 °C 15,1 °C 0,0 km/h (0 Bft)
26.07.2018 23:44 15,0 °C 85 % 1012,4 hPa 0,0 mm 0,0 km/h (0 Bft) O-SO 111 ° 0 min 0,000 mm 0,0 UV-I 0 W/m² 12,5 °C 15,0 °C 0,0 km/h (0 Bft)
26.07.2018 23:45 15,1 °C 85 % 1012,3 hPa 0,0 mm 0,0 km/h (0 Bft) O-SO 111 ° 0 min 0,000 mm 0,0 UV-I 0 W/m² 12,6 °C 15,1 °C 0,0 km/h (0 Bft)
26.07.2018 23:46 14,9 °C 85 % 1012,3 hPa 0,0 mm 0,0 km/h (0 Bft) O-SO 111 ° 0 min 0,000 mm 0,0 UV-I 0 W/m² 12,4 °C 14,9 °C 0,0 km/h (0 Bft)
26.07.2018 23:47 14,9 °C 85 % 1012,4 hPa 0,0 mm 0,0 km/h (0 Bft) O-SO 111 ° 0 min 0,000 mm 0,0 UV-I 0 W/m² 12,4 °C 14,9 °C 0,0 km/h (0 Bft)
26.07.2018 23:48 14,8 °C 85 % 1012,4 hPa 0,0 mm 0,0 km/h (0 Bft) O-SO 111 ° 0 min 0,000 mm 0,0 UV-I 0 W/m² 12,3 °C 14,8 °C 0,0 km/h (0 Bft)
26.07.2018 23:49 14,8 °C 85 % 1012,4 hPa 0,0 mm 0,0 km/h (0 Bft) O-SO 111 ° 0 min 0,000 mm 0,0 UV-I 0 W/m² 12,3 °C 14,8 °C 0,0 km/h (0 Bft)
26.07.2018 23:50 14,8 °C 85 % 1012,3 hPa 0,0 mm 0,0 km/h (0 Bft) O-SO 111 ° 0 min 0,000 mm 0,0 UV-I 0 W/m² 12,3 °C 14,8 °C 0,0 km/h (0 Bft)
26.07.2018 23:51 14,7 °C 85 % 1012,4 hPa 0,0 mm 0,0 km/h (0 Bft) O-SO 111 ° 0 min 0,000 mm 0,0 UV-I 0 W/m² 12,2 °C 14,7 °C 0,0 km/h (0 Bft)
26.07.2018 23:52 14,7 °C 85 % 1012,4 hPa 0,0 mm 0,0 km/h (0 Bft) O-SO 111 ° 0 min 0,000 mm 0,0 UV-I 0 W/m² 12,2 °C 14,7 °C 0,0 km/h (0 Bft)
26.07.2018 23:53 14,7 °C 85 % 1012,4 hPa 0,0 mm 0,0 km/h (0 Bft) O-SO 111 ° 0 min 0,000 mm 0,0 UV-I 0 W/m² 12,2 °C 14,7 °C 0,0 km/h (0 Bft)
26.07.2018 23:54 14,7 °C 85 % 1012,3 hPa 0,0 mm 0,0 km/h (0 Bft) O-SO 111 ° 0 min 0,000 mm 0,0 UV-I 0 W/m² 12,2 °C 14,7 °C 0,0 km/h (0 Bft)
26.07.2018 23:55 14,6 °C 86 % 1012,4 hPa 0,0 mm 0,0 km/h (0 Bft) O-SO 111 ° 0 min 0,000 mm 0,0 UV-I 0 W/m² 12,3 °C 14,6 °C 0,0 km/h (0 Bft)
26.07.2018 23:56 14,6 °C 86 % 1012,4 hPa 0,0 mm 0,0 km/h (0 Bft) O-SO 111 ° 0 min 0,000 mm 0,0 UV-I 0 W/m² 12,3 °C 14,6 °C 0,0 km/h (0 Bft)
26.07.2018 23:57 14,6 °C 86 % 1012,4 hPa 0,0 mm 0,0 km/h (0 Bft) O-SO 111 ° 0 min 0,000 mm 0,0 UV-I 0 W/m² 12,3 °C 14,6 °C 0,0 km/h (0 Bft)
26.07.2018 23:58 14,6 °C 86 % 1012,4 hPa 0,0 mm 0,0 km/h (0 Bft) O-SO 111 ° 0 min 0,000 mm 0,0 UV-I 0 W/m² 12,3 °C 14,6 °C 0,0 km/h (0 Bft)
26.07.2018 23:59 14,6 °C 86 % 1012,3 hPa 0,0 mm 0,0 km/h (0 Bft) O-SO 111 ° 0 min 0,000 mm 0,0 UV-I 0 W/m² 12,3 °C 14,6 °C 0,0 km/h (0 Bft)
_ Min-Zeit 05:21 17:22 17:32 - 23:59 - - - - - - 05:06 05:21 23:59
Minimum _ 12,3 °C 45 % 1011,4 hPa - 0,0 km/h (0 Bft) - - - - - - 11,1 °C 12,3 °C 0,0 km/h (0 Bft)
_ Max-Zeit 15:06 06:22 00:16 23:59 12:59 - - 16:08 13:01 13:37 14:18 09:32 15:06 16:03
Maximum _ 25,8 °C 93 % 1013,3 hPa 0,0 mm 14,4 km/h
O-SO (3 Bft)
- - 1 min 0,584 mm 7,5 UV-I 1032 W/m² 17,7 °C 25,8 °C 25,7 km/h
O (4 Bft)
Durchschnitt _ 19,4 °C 72 % 1012,4 hPa #0,0 mm 2,0 km/h (1 Bft) O-NO - #5:20 h #4,013 mm 4,2 UV-I 245 W/m² 13,7 °C 19,4 °C 3,8 km/h (1 Bft)